[[{"header":{"parameterUnit":"m.s-1","parameterCategory":1,"la1":30.6,"la2":28.766,"lo1":-90.7593,"lo2":-88.6598,"dy":0.0162,"dx":0.0183,"nx":116,"ny":114,"refTime":"2023-03-28T06:00:00:Z","depth":0,"parameterNumber":2,"parameterNumberName":"U-component_of_WINDS"},"data":[0.0,0.0,0.0,0.0,0.0,0.0,0.0,0.0,0.0,0.0,0.0,0.0,0.0,0.0,0.0,0.0,0.0,0.0,0.0,0.0,0.0,0.0,0.0,0.0,0.0,0.0,0.0,0.0,0.0,0.0,0.0,0.0,0.0,0.0,0.0,0.0,0.0,0.0,0.0,0.0,0.0,0.0,0.0,0.0,0.0,0.0,0.0,0.0,0.0,0.0,0.0,0.0,0.0,0.0,0.0,0.0,0.0,0.0,0.0,0.0,0.0,0.0,0.0,0.0,0.0,0.0,0.0,0.0,0.0,0.0,0.0,0.0,0.0,0.0,0.0,0.0,0.0,0.0,0.0,0.0,0.0,0.0,0.0,0.0,0.0,0.0,0.0,0.0,0.0,0.0,0.0,0.0,0.0,0.0,0.0,0.0,0.0,0.0,0.0,0.0,0.0,0.0,0.0,0.0,0.0,0.0,0.0,0.0,0.0,0.0,0.0,0.0,0.0,0.0,0.0,0.0,0.0,0.0,0.0,0.0,0.0,0.0,0.0,0.0,0.0,0.0,0.0,0.0,0.0,0.0,0.0,0.0,0.0,0.0,0.0,0.0,0.0,0.0,0.0,0.0,0.0,0.0,0.0,0.0,0.0,0.0,0.0,0.0,0.0,0.0,0.0,0.0,0.0,0.0,0.0,0.0,0.0,0.0,0.0,0.0,0.0,0.0,0.0,0.0,0.0,0.0,0.0,0.0,0.0,0.0,0.0,0.0,0.0,0.0,0.0,0.0,0.0,0.0,0.0,0.0,0.0,0.0,0.0,0.0,0.0,0.0,0.0,0.0,0.0,0.0,0.0,0.0,0.0,0.0,0.0,0.0,0.0,0.0,0.0,0.0,0.0,0.0,0.0,0.0,0.0,0.0,0.0,0.0,0.0,0.0,0.0,0.0,0.0,0.0,0.0,0.0,0.0,0.0,0.0,0.0,0.0,0.0,0.0,0.0,0.0,0.0,0.0,0.0,0.0,0.0,0.0,0.0,0.0,0.0,0.0,0.0,0.0,0.0,0.0,0.0,0.0,0.0,0.0,0.0,0.0,0.0,0.0,0.0,0.0,0.0,0.0,0.0,0.0,0.0,0.0,0.0,0.0,0.0,0.0,0.0,0.0,0.0,0.0,0.0,0.0,0.0,0.0,0.0,0.0,0.0,0.0,0.0,0.0,0.0,0.0,0.0,0.0,0.0,0.0,0.0,0.0,0.0,0.0,0.0,0.0,0.0,0.0,0.0,0.0,0.0,0.0,0.0,0.0,0.0,0.0,0.0,0.0,0.0,0.0,0.0,0.0,0.0,0.0,0.0,0.0,0.0,0.0,0.0,0.0,0.0,0.0,0.0,0.0,0.0,0.0,0.0,0.0,0.0,0.0,0.0,0.0,0.0,0.0,0.0,0.0,0.0,0.0,0.0,0.0,0.0,0.0,0.0,0.0,0.0,0.0,0.0,0.0,0.0,0.0,0.0,0.0,0.0,0.0,0.0,0.0,0.0,0.0,0.0,0.0,0.0,0.0,0.0,0.0,0.0,0.0,0.0,0.0,0.0,0.0,0.0,0.0,0.0,0.0,0.0,0.0,0.0,0.0,0.0,0.0,0.0,0.0,0.0,0.0,0.0,0.0,0.0,0.0,0.0,0.0,0.0,0.0,0.0,0.0,0.0,0.0,0.0,0.0,0.0,0.0,0.0,0.0,0.0,0.0,0.0,0.0,0.0,0.0,0.0,0.0,0.0,0.0,0.0,0.0,0.0,0.0,0.0,0.0,0.0,0.0,0.0,0.0,0.0,0.0,0.0,0.0,0.0,0.0,0.0,0.0,0.0,0.0,0.0,0.0,0.0,0.0,0.0,0.0,0.0,0.0,0.0,0.0,0.0,0.0,0.0,0.0,0.0,0.0,0.0,0.0,0.0,0.0,0.0,0.0,0.0,0.0,0.0,0.0,0.0,0.0,0.0,0.0,0.0,0.0,0.0,0.0,0.0,0.0,0.0,0.0,0.0,0.0,0.0,0.0,0.0,0.0,0.0,0.0,0.0,0.0,0.0,0.0,0.0,0.0,0.0,0.0,0.0,0.0,0.0,0.0,0.0,0.0,0.0,0.0,0.0,0.0,0.0,0.0,0.0,0.0,0.0,0.0,0.0,0.0,0.0,0.0,0.0,0.0,0.0,0.0,0.0,0.0,0.0,0.0,0.0,0.0,0.0,0.0,0.0,0.0,0.0,0.0,0.0,0.0,0.0,0.0,0.0,0.0,0.0,0.0,0.0,0.0,0.0,0.0,0.0,0.0,0.0,0.0,0.0,0.0,0.0,0.0,0.0,0.0,0.0,0.0,0.0,0.0,0.0,0.0,0.0,0.0,0.0,0.0,0.0,0.0,0.0,0.0,0.0,0.0,0.0,0.0,0.0,0.0,0.0,0.0,0.0,0.0,0.0,0.0,0.0,0.0,0.0,0.0,0.0,0.0,0.0,0.0,0.0,0.0,0.0,0.0,0.0,0.0,0.0,0.0,0.0,0.0,0.0,0.0,0.0,0.0,0.0,0.0,0.0,0.0,0.0,0.0,0.0,0.0,0.0,0.0,0.0,0.0,0.0,0.0,0.0,0.0,0.0,0.0,0.0,0.0,0.0,0.0,0.0,0.0,0.0,0.0,0.0,0.0,0.0,0.0,0.0,0.0,0.0,0.0,0.0,0.0,0.0,0.0,0.0,0.0,0.0,0.0,0.0,0.0,0.0,0.0,0.0,0.0,0.0,0.0,0.0,0.0,0.0,0.0,0.0,0.0,0.0,0.0,0.0,0.0,0.0,0.0,0.0,0.0,0.0,0.0,0.0,0.0,0.0,0.0,0.0,0.0,0.0,0.0,0.0,0.0,0.0,0.0,0.0,0.0,0.0,0.0,0.0,0.0,0.0,0.0,0.0,0.0,0.0,0.0,0.0,0.0,0.0,0.0,0.0,0.0,0.0,0.0,0.0,0.0,0.0,0.0,0.0,0.0,0.0,0.0,0.0,0.0,0.0,0.0,0.0,0.0,0.0,0.0,0.0,0.0,0.0,0.0,0.0,0.0,0.0,0.0,0.0,0.0,0.0,0.0,0.0,0.0,0.0,0.0,0.0,0.0,0.0,0.0,0.0,0.0,0.0,0.0,0.0,0.0,0.0,0.0,0.0,0.0,0.0,0.0,0.0,0.0,0.0,0.0,0.0,0.0,0.0,0.0,0.0,0.0,0.0,0.0,0.0,0.0,0.0,0.0,0.0,0.0,0.0,0.0,0.0,0.0,0.0,0.0,0.0,0.0,0.0,0.0,0.0,0.0,0.0,0.0,0.0,0.0,0.0,0.0,0.0,0.0,0.0,0.0,0.0,0.0,0.0,0.0,0.0,0.0,0.0,0.0,0.0,0.0,0.0,0.0,0.0,0.0,0.0,0.0,0.0,0.0,0.0,0.0,0.0,0.0,0.0,0.0,0.0,0.0,0.0,0.0,0.0,0.0,0.0,0.0,0.0,0.0,0.0,0.0,0.0,0.0,0.0,0.0,0.0,0.0,0.0,0.0,0.0,0.0,0.0,0.0,0.0,0.0,0.0,0.0,0.0,0.0,0.0,0.0,0.0,0.0,0.0,0.0,0.0,0.0,0.0,0.0,0.0,0.0,0.0,0.0,0.0,0.0,0.0,0.0,0.0,0.0,0.0,0.0,0.0,0.0,0.0,0.0,0.0,0.0,0.0,0.0,0.0,0.0,0.0,0.0,0.0,0.0,0.0,0.0,0.0,0.0,0.0,0.0,0.0,0.0,0.0,0.0,0.0,0.0,0.0,0.0,0.0,0.0,0.0,0.0,0.0,0.0,0.0,0.0,0.0,0.0,0.0,0.0,0.0,0.0,0.0,0.0,0.0,0.0,0.0,0.0,0.0,0.0,0.0,0.0,0.0,0.0,0.0,0.0,0.0,0.0,0.0,0.0,0.0,0.0,0.0,0.0,0.0,0.0,0.0,0.0,0.0,0.0,0.0,0.0,0.0,0.0,0.0,0.0,0.0,0.0,0.0,0.0,0.0,0.0,0.0,0.0,0.0,0.0,0.0,0.0,0.0,0.0,0.0,0.0,0.0,0.0,0.0,0.0,0.0,0.0,0.0,0.0,0.0,0.0,0.0,0.0,0.0,0.0,0.0,0.0,0.0,0.0,0.0,0.0,0.0,0.0,0.0,0.0,0.0,0.0,0.0,0.0,0.0,0.0,0.0,0.0,0.0,0.0,0.0,0.0,0.0,0.0,0.0,0.0,0.0,0.0,0.0,0.0,0.0,0.0,0.0,0.0,0.0,0.0,0.0,0.0,0.0,0.0,0.0,0.0,0.0,0.0,0.0,0.0,0.0,0.0,0.0,0.0,0.0,0.0,0.0,0.0,0.0,0.0,0.0,0.0,0.0,0.0,0.0,0.0,0.0,0.0,0.0,0.0,0.0,0.0,0.0,0.0,0.0,0.0,0.0,0.0,0.0,0.0,0.0,0.0,0.0,0.0,0.0,0.0,0.0,0.0,0.0,0.0,0.0,0.0,0.0,0.0,0.0,0.0,0.0,0.0,0.0,0.0,0.0,0.0,0.0,0.0,0.0,0.0,0.0,0.0,0.0,0.0,0.0,0.0,0.0,0.0,0.0,0.0,0.0,0.0,0.0,0.0,0.0,0.0,0.0,0.0,0.0,0.0,0.0,0.0,0.0,0.0,0.0,0.0,0.0,0.0,0.0,0.0,0.0,0.0,0.0,0.0,0.0,0.0,0.0,0.0,0.0,0.0,0.0,0.0,0.0,0.0,0.0,0.0,0.0,0.0,0.0,0.0,0.0,0.0,0.0,0.0,0.0,0.0,0.0,0.0,0.0,0.0,0.0,0.0,0.0,0.0,0.0,0.0,0.0,0.0,0.0,0.0,0.0,0.0,0.0,0.0,0.0,0.0,0.0,0.0,0.0,0.0,0.0,0.0,0.0,0.0,0.0,0.0,0.0,0.0,0.0,0.0,0.0,0.0,0.0,0.0,0.0,0.0,0.0,0.0,0.0,0.0,0.0,0.0,0.0,0.0,0.0,0.0,0.0,0.0,0.0,0.0,0.0,0.0,0.0,0.0,0.0,0.0,0.0,0.0,0.0,0.0,0.0,0.0,0.0,0.0,0.0,0.0,0.0,0.0,0.0,0.0,0.0,0.0,0.0,0.0,0.0,0.0,0.0,0.0,0.0,0.0,0.0,0.0,0.0,0.0,0.0,0.0,0.0,0.0,0.0,0.0,0.0,0.0,0.0,0.0,0.0,0.0,0.0,0.0,0.0,0.0,0.0,0.0,0.0,0.0,0.0,0.0,0.0,0.0,0.0,0.0,0.0,0.0,0.0,0.0,0.0,0.0,0.0,0.0,0.0,0.0,0.0,0.0,0.0,0.0,0.0,0.0,0.0,0.0,0.0,0.0,0.0,0.0,0.0,0.0,0.0,0.0,0.0,0.0,0.0,0.0,0.0,0.0,0.0,0.0,0.0,0.0,0.0,0.0,0.0,0.0,0.0,0.0,0.0,0.0,0.0,0.0,0.0,0.0,0.0,0.0,0.0,0.0,0.0,0.0,0.0,0.0,0.0,0.0,0.0,0.0,0.0,0.0,0.0,0.0,0.0,0.0,0.0,0.0,0.0,0.0,0.0,0.0,0.0,0.0,0.0,0.0,0.0,0.0,0.0,0.0,0.0,0.0,0.0,0.0,0.0,0.0,0.0,0.0,0.0,0.0,0.0,0.0,0.0,0.0,0.0,0.0,0.0,0.0,0.0,0.0,0.0,0.0,0.0,0.0,0.0,0.0,0.0,0.0,0.0,0.0,0.0,0.0,0.0,0.0,0.0,0.0,0.0,0.0,0.0,0.0,0.0,0.0,0.0,0.0,0.0,0.0,0.0,0.0,0.0,0.0,0.0,0.0,0.0,0.0,0.0,0.0,0.0,0.0,0.0,0.0,0.0,0.0,0.0,0.0,0.0,0.0,0.0,0.0,0.0,0.0,0.0,0.0,0.0,0.0,0.0,0.0,0.0,0.0,0.0,4.8781,0.0,0.0,0.0,0.0,0.0,0.0,0.0,0.0,0.0,0.0,0.0,0.0,0.0,0.0,0.0,0.0,0.0,0.0,0.0,0.0,0.0,0.0,0.0,0.0,0.0,0.0,0.0,0.0,0.0,0.0,0.0,0.0,0.0,0.0,0.0,0.0,0.0,0.0,0.0,0.0,0.0,0.0,0.0,0.0,0.0,0.0,0.0,0.0,0.0,0.0,0.0,0.0,0.0,0.0,0.0,0.0,0.0,0.0,0.0,0.0,0.0,0.0,0.0,0.0,0.0,0.0,0.0,0.0,0.0,0.0,0.0,0.0,0.0,0.0,0.0,0.0,0.0,0.0,0.0,0.0,0.0,0.0,0.0,0.0,0.0,0.0,0.0,0.0,0.0,0.0,0.0,0.0,0.0,0.0,0.0,0.0,0.0,0.0,0.0,0.0,0.0,0.0,0.0,0.0,0.0,0.0,0.0,0.0,0.0,0.0,0.0,0.0,0.0,0.0,0.0,0.0,5.0736,0.0,0.0,0.0,0.0,0.0,0.0,0.0,0.0,0.0,0.0,0.0,0.0,0.0,0.0,0.0,0.0,0.0,0.0,0.0,0.0,0.0,0.0,0.0,0.0,0.0,0.0,0.0,0.0,0.0,0.0,0.0,0.0,0.0,0.0,0.0,0.0,0.0,0.0,0.0,0.0,0.0,0.0,0.0,0.0,0.0,0.0,0.0,0.0,0.0,0.0,0.0,0.0,0.0,0.0,0.0,0.0,0.0,0.0,0.0,0.0,0.0,0.0,0.0,0.0,0.0,0.0,0.0,0.0,0.0,0.0,0.0,0.0,0.0,0.0,0.0,0.0,0.0,0.0,0.0,0.0,0.0,0.0,0.0,0.0,0.0,0.0,0.0,0.0,0.0,0.0,0.0,0.0,0.0,0.0,0.0,0.0,0.0,0.0,0.0,0.0,0.0,0.0,0.0,0.0,0.0,0.0,0.0,0.0,0.0,5.5919,5.8263,5.7645,5.7915,5.8761,5.6562,5.4321,5.2385,0.0,0.0,0.0,0.0,0.0,0.0,0.0,0.0,0.0,0.0,0.0,0.0,0.0,0.0,0.0,0.0,0.0,0.0,0.0,0.0,0.0,0.0,0.0,0.0,0.0,0.0,0.0,0.0,0.0,0.0,0.0,0.0,0.0,0.0,0.0,0.0,0.0,0.0,0.0,4.5667,4.749,4.8441,4.8589,4.7399,0.0,0.0,0.0,0.0,0.0,0.0,0.0,0.0,0.0,0.0,0.0,0.0,0.0,0.0,0.0,0.0,0.0,0.0,0.0,0.0,0.0,0.0,0.0,0.0,0.0,0.0,0.0,0.0,0.0,0.0,0.0,0.0,0.0,0.0,0.0,0.0,0.0,0.0,0.0,0.0,0.0,0.0,0.0,4.3767,4.4454,0.0,0.0,0.0,0.0,0.0,0.0,0.0,0.0,0.0,0.0,0.0,0.0,0.0,0.0,5.4786,5.6089,5.7239,5.8269,5.8921,5.9438,5.981,5.9708,6.0791,6.2811,6.37,0.0,5.5953,5.4524,0.0,0.0,0.0,0.0,0.0,0.0,0.0,0.0,0.0,0.0,0.0,0.0,0.0,0.0,0.0,0.0,0.0,0.0,0.0,0.0,0.0,0.0,0.0,0.0,0.0,0.0,0.0,0.0,0.0,0.0,0.0,0.0,0.0,0.0,0.0,0.0,4.6184,4.6677,4.7185,4.8087,4.8716,4.9042,4.8295,4.8742,5.0033,4.8194,0.0,0.0,0.0,0.0,0.0,0.0,0.0,0.0,0.0,0.0,0.0,0.0,0.0,0.0,0.0,0.0,0.0,0.0,0.0,0.0,0.0,0.0,0.0,0.0,0.0,0.0,0.0,0.0,0.0,0.0,0.0,0.0,0.0,0.0,0.0,0.0,0.0,0.0,0.0,4.6675,4.6804,4.5537,4.7314,4.8241,0.0,0.0,0.0,0.0,0.0,0.0,0.0,0.0,0.0,5.3187,5.3264,5.4287,5.6336,5.783,5.9577,6.1528,6.2289,6.3297,6.4485,6.4006,6.5269,6.7832,6.7621,6.6576,6.4637,6.0747,5.7762,5.5564,0.0,0.0,0.0,0.0,0.0,5.6402,0.0,0.0,0.0,0.0,0.0,0.0,0.0,0.0,0.0,0.0,0.0,0.0,0.0,0.0,0.0,4.3427,0.0,0.0,0.0,0.0,0.0,0.0,0.0,0.0,0.0,0.0,0.0,0.0,4.7937,4.8829,4.9295,4.9655,5.0074,5.0534,5.0205,5.0232,5.038,4.8294,4.7476,0.0,0.0,0.0,0.0,0.0,0.0,0.0,0.0,0.0,0.0,0.0,0.0,0.0,0.0,0.0,0.0,0.0,0.0,0.0,0.0,0.0,0.0,0.0,0.0,0.0,0.0,0.0,0.0,0.0,0.0,0.0,0.0,0.0,0.0,0.0,0.0,0.0,0.0,4.8114,4.8449,4.6202,4.8142,4.9135,0.0,0.0,0.0,0.0,0.0,0.0,5.2102,5.389,5.5568,5.7062,5.6918,5.7737,5.9677,6.095,6.2892,6.5467,6.6363,6.7683,6.9272,6.8856,6.998,7.2287,7.1185,7.1241,7.1706,6.6294,6.1762,5.8075,5.6215,5.5843,5.635,5.6537,5.7891,5.9684,0.0,0.0,0.0,0.0,0.0,0.0,0.0,0.0,0.0,0.0,0.0,0.0,0.0,0.0,4.4836,4.515,4.6039,4.6189,0.0,0.0,0.0,0.0,0.0,0.0,0.0,0.0,0.0,4.8563,5.0226,5.1366,5.2037,5.3324,5.391,5.388,5.2636,5.1626,5.0724,4.8602,4.7937,4.8203,0.0,0.0,0.0,0.0,0.0,0.0,0.0,0.0,0.0,0.0,0.0,0.0,0.0,0.0,0.0,0.0,0.0,0.0,0.0,0.0,0.0,0.0,0.0,0.0,0.0,0.0,0.0,0.0,0.0,0.0,0.0,0.0,0.0,0.0,0.0,0.0,0.0,0.0,0.0,4.4965,4.6397,0.0,0.0,0.0,0.0,4.8966,5.3587,5.5902,5.4771,5.6667,5.8743,6.0859,6.1588,6.3626,6.7221,6.801,6.9166,7.0726,7.2112,7.287,7.3042,7.365,7.4494,7.547,7.5404,7.5017,7.3972,6.803,6.5436,6.4894,6.2042,6.2178,6.3869,6.2526,6.2956,6.4174,0.0,0.0,0.0,0.0,0.0,0.0,0.0,0.0,0.0,0.0,0.0,0.0,0.0,4.5152,4.6148,4.7143,4.6749,4.6319,4.5973,0.0,0.0,0.0,0.0,0.0,0.0,0.0,4.9122,5.094,5.3278,5.497,5.6004,5.6034,5.6316,5.6662,5.5341,5.412,5.2807,4.9494,4.7676,4.6904,4.5424,4.4678,0.0,0.0,0.0,0.0,0.0,0.0,0.0,0.0,0.0,0.0,0.0,0.0,0.0,0.0,0.0,0.0,0.0,0.0,0.0,0.0,0.0,0.0,0.0,0.0,0.0,0.0,0.0,0.0,0.0,0.0,0.0,0.0,0.0,0.0,0.0,0.0,0.0,5.1032,5.3155,0.0,0.0,5.3118,5.3936,5.4726,5.7352,5.9329,6.0262,6.1996,6.3911,6.6016,6.684,6.8069,6.9777,7.0465,7.1351,7.24,7.2367,7.2861,7.3821,7.3523,7.3881,7.4709,7.4222,7.4224,7.4304,7.1154,6.8784,6.6924,6.4928,6.4309,6.4647,6.5087,6.5865,6.6812,0.0,0.0,0.0,0.0,0.0,0.0,0.0,0.0,0.0,0.0,0.0,4.3718,4.4855,4.654,4.8065,4.9194,4.8245,4.7437,4.6999,0.0,0.0,0.0,0.0,0.0,0.0,4.9397,5.2187,5.4179,5.6658,5.8291,5.9115,5.889,5.877,5.8726,5.7885,5.6778,5.5316,5.2486,4.9744,4.7189,4.5862,4.5713,4.6151,0.0,0.0,0.0,0.0,0.0,0.0,0.0,0.0,0.0,0.0,0.0,0.0,0.0,0.0,0.0,0.0,0.0,0.0,0.0,0.0,0.0,0.0,0.0,0.0,0.0,0.0,0.0,0.0,0.0,0.0,0.0,0.0,0.0,0.0,0.0,5.5037,5.611,5.8127,5.8918,5.759,5.7928,5.8561,5.9328,6.2074,6.426,6.5485,6.7197,6.8849,7.048,7.1042,7.1623,7.2235,7.2701,7.3186,7.3691,7.3395,7.3639,7.4378,7.4038,7.4274,7.4841,7.436,7.4521,7.5048,7.4033,7.2333,7.0222,6.856,6.8101,6.8416,6.8864,6.9659,7.0601,0.0,0.0,0.0,0.0,0.0,0.0,0.0,0.0,0.0,0.0,4.1774,4.3688,4.4366,4.7945,5.0566,5.1265,5.0637,4.965,4.8397,4.5144,0.0,0.0,0.0,0.0,4.8728,5.242,5.5615,5.8205,6.0222,6.118,6.121,6.1852,6.1447,6.022,6.019,5.9428,5.8175,5.7483,5.4276,4.9498,4.8027,4.8514,4.9848,0.0,0.0,0.0,0.0,0.0,0.0,0.0,0.0,0.0,0.0,0.0,0.0,0.0,0.0,0.0,0.0,0.0,0.0,0.0,0.0,0.0,0.0,0.0,0.0,0.0,0.0,0.0,0.0,0.0,0.0,0.0,0.0,0.0,5.0001,5.509,5.8944,5.9648,6.0687,6.0851,5.9608,6.1696,6.2969,6.246,6.7691,7.0709,7.0191,7.1996,7.3326,7.4001,7.4061,7.4407,7.5006,7.5035,7.5035,7.5035,7.5647,7.5617,7.5006,7.5647,7.6011,7.6199,7.6199,7.6245,7.6361,7.6329,7.5915,7.5136,7.316,7.3745,7.5489,7.3996,7.4398,7.5481,0.0,0.0,0.0,0.0,0.0,0.0,0.0,0.0,0.0,0.0,4.3678,4.6461,4.714,5.0313,5.2845,5.4012,5.1301,4.9396,4.9048,0.0,0.0,0.0,0.0,0.0,5.2548,5.5545,5.8338,6.1014,6.248,6.3199,6.3199,6.2944,6.2854,6.2899,6.1942,6.1343,6.0924,5.9771,5.8454,5.6748,5.2558,5.0032,4.8686,0.0,0.0,0.0,0.0,0.0,0.0,0.0,0.0,0.0,0.0,0.0,0.0,0.0,0.0,0.0,0.0,0.0,0.0,0.0,0.0,0.0,0.0,0.0,0.0,0.0,0.0,0.0,0.0,0.0,0.0,0.0,0.0,5.483,5.473,5.8004,6.1535,6.458,6.6057,6.7059,6.7597,6.8282,6.9036,6.9858,7.186,7.3413,7.4227,7.5211,7.6048,7.6724,7.7682,7.8041,7.7729,7.822,7.822,7.7729,7.7412,7.7173,7.6993,7.6676,7.6339,7.5989,7.5989,7.5745,7.5265,7.4778,7.5137,7.5838,7.4869,7.4854,7.5302,7.4397,7.4739,7.5545,0.0,0.0,0.0,0.0,0.0,0.0,0.0,0.0,0.0,0.0,4.4122,4.6947,4.7351,5.0242,5.2597,5.3755,5.0711,4.8663,4.8484,0.0,0.0,0.0,0.0,5.0036,5.46,5.6824,5.9087,6.146,6.2199,6.2577,6.2577,6.3284,6.3485,6.3294,6.3608,6.3408,6.2839,6.2076,6.1417,6.0669,5.7586,5.494,5.2618,5.0541,4.9883,5.0011,5.0051,4.9846,4.9567,4.9554,0.0,0.0,0.0,0.0,0.0,0.0,0.0,0.0,0.0,0.0,0.0,0.0,0.0,0.0,0.0,0.0,0.0,0.0,0.0,0.0,0.0,0.0,0.0,0.0,5.6211,6.0026,6.151,6.3047,6.5233,6.866,7.0247,7.1547,7.2864,7.3206,7.3804,7.4852,7.5809,7.6724,7.7484,7.8112,7.8651,7.9058,7.9788,8.0045,7.9627,8.0016,8.0016,7.9627,7.8968,7.8771,7.9028,7.8352,7.7694,0.0,7.7113,7.6574,7.5677,7.5288,7.5629,0.0,0.0,0.0,0.0,0.0,7.5191,7.5199,0.0,0.0,0.0,0.0,0.0,0.0,0.0,0.0,0.0,0.0,0.0,4.606,4.5903,4.8858,5.1159,5.1953,4.9577,4.7759,0.0,0.0,0.0,4.5926,4.9643,5.2938,5.5695,5.7246,5.8927,6.0712,6.0712,6.0712,6.0772,6.2976,6.3357,6.2326,6.4737,6.5128,6.404,6.4172,6.3558,6.254,6.2361,6.1014,5.871,5.5042,5.4294,5.5042,5.3755,5.1821,4.9756,4.9086,0.0,0.0,0.0,0.0,0.0,0.0,0.0,0.0,0.0,0.0,0.0,0.0,0.0,0.0,0.0,0.0,0.0,0.0,0.0,0.0,0.0,0.0,0.0,0.0,6.0027,6.4515,6.8944,6.9229,6.9858,7.2192,7.3492,7.4779,7.6198,7.6826,7.7424,7.81,7.9249,7.9937,8.0027,0.0,0.0,0.0,0.0,8.1033,8.1033,8.1033,8.1033,8.1003,8.0345,8.0345,8.0883,8.0225,7.9597,7.9046,7.9046,7.831,7.7137,7.7065,7.6946,7.6697,7.5756,7.6182,7.7241,7.6497,7.5685,0.0,0.0,0.0,0.0,0.0,0.0,0.0,0.0,0.0,0.0,3.9006,4.3074,4.5727,4.4765,4.8918,5.184,5.2049,4.9744,4.7513,0.0,0.0,4.5235,5.0094,5.1806,5.4301,5.7901,5.9326,6.0502,6.1413,6.1413,6.1413,6.1413,6.1892,6.1986,6.1829,6.3778,6.4487,6.4304,6.5212,6.5473,6.5144,6.4066,6.1822,5.889,5.7034,5.588,5.5102,5.4281,5.3683,5.3144,5.2468,5.2438,5.2211,4.9655,0.0,0.0,0.0,0.0,0.0,0.0,0.0,0.0,0.0,0.0,0.0,0.0,0.0,0.0,0.0,0.0,0.0,0.0,0.0,0.0,6.1735,6.5787,6.9528,7.2535,7.421,7.53,7.5809,7.6078,7.6976,7.886,7.916,7.9489,8.0165,8.0464,8.0823,8.1362,8.153,0.0,8.2417,8.2417,8.2417,8.2417,8.2417,8.2417,8.2417,0.0,0.0,8.159,8.0913,8.0554,8.0405,8.0405,7.9956,7.9189,7.8639,7.7801,7.6784,7.6576,7.6395,7.6126,7.5429,7.6301,7.7694,0.0,0.0,0.0,0.0,0.0,0.0,0.0,0.0,0.0,0.0,4.1668,4.3373,4.2761,4.5549,4.7495,4.7599,4.7106,0.0,4.4187,4.5666,4.8299,5.2031,5.3664,5.5778,5.8634,5.8767,5.9105,5.9747,5.9747,5.9747,5.9782,6.0693,6.1086,6.1208,6.3984,6.5199,6.5284,6.6851,6.7508,6.7402,6.6416,6.5009,6.3303,6.0968,5.9502,5.859,5.8261,5.729,5.6064,5.5371,5.473,5.3803,5.148,5.0283,4.9494,0.0,0.0,0.0,0.0,0.0,0.0,0.0,0.0,0.0,0.0,0.0,0.0,0.0,0.0,5.3034,0.0,0.0,6.3347,6.6491,7.035,7.3732,7.6036,7.7502,7.8053,7.7394,7.7903,7.895,8.0644,8.0794,8.1063,8.174,8.18,8.1949,8.2279,8.2297,8.2578,8.3217,8.2967,8.2937,8.3247,8.2937,8.2806,8.2776,8.2129,8.1979,8.2297,8.162,8.1302,8.1302,8.1302,8.0734,7.9788,7.9447,7.8908,7.8292,7.8292,7.7305,7.5856,7.5527,7.6245,7.7307,0.0,0.0,0.0,0.0,0.0,0.0,0.0,0.0,0.0,0.0,4.0115,4.0908,4.0961,4.2263,4.3134,0.0,0.0,0.0,4.3981,4.8082,5.1459,5.3417,5.5139,5.6808,5.8407,5.7607,5.7405,5.7901,5.7901,5.7901,5.7939,5.94,6.0062,6.0208,6.3557,6.5225,6.5705,6.761,6.8657,6.8944,6.8421,6.8107,6.7718,6.5054,6.3542,6.2839,6.272,6.0701,5.8085,5.7932,5.6406,5.4431,5.3443,5.2773,5.2025,5.0504,4.9486,0.0,0.0,0.0,0.0,0.0,0.0,0.0,0.0,0.0,5.2387,5.3676,5.5511,5.7853,6.1116,6.4813,6.8226,7.0889,7.433,7.7263,7.8938,7.9776,7.9806,7.8699,7.9537,8.0674,8.189,8.2099,8.2398,8.2937,8.3106,8.3147,8.3147,8.3147,8.3386,8.3886,8.3277,8.3217,8.3688,8.3117,8.2806,8.2776,8.2249,8.2297,8.2776,8.2238,8.1979,8.1979,8.186,8.1183,8.0177,8.0057,7.9997,7.9967,7.9848,7.8501,7.6634,7.6365,7.6591,7.6976,0.0,0.0,0.0,0.0,0.0,0.0,0.0,0.0,0.0,0.0,0.0,0.0,0.0,0.0,0.0,0.0,0.0,4.6646,4.7791,4.9727,5.2271,5.5518,5.6004,5.6518,5.7199,5.7593,5.7826,5.7901,5.7901,5.7901,5.7901,5.8101,5.8195,5.8289,6.0317,6.2153,6.3804,6.5655,6.7432,6.9004,6.8914,6.8541,6.7958,6.7598,6.6655,6.5488,6.4889,6.1824,5.8354,6.0073,5.856,5.6042,5.6419,5.6496,5.597,5.3498,0.0,5.023,4.7228,4.5607,4.5044,4.6264,4.829,5.0224,0.0,0.0,5.5468,5.6451,5.9188,6.2216,6.4902,6.9083,7.2997,7.5629,7.7903,7.9638,8.0464,8.1153,8.153,8.1381,8.1471,8.186,8.2627,8.3187,8.3527,8.3587,8.4156,8.4504,8.4504,8.4504,8.4534,8.4574,8.3946,8.3647,8.3688,8.3117,8.2806,8.2806,8.2717,8.2717,8.2806,8.2717,8.2687,8.2657,8.2069,8.171,8.153,8.0943,8.0704,8.0644,8.0027,7.9608,7.9219,7.8041,7.8551,7.9685,0.0,0.0,0.0,0.0,0.0,0.0,0.0,0.0,0.0,0.0,0.0,0.0,0.0,0.0,0.0,0.0,4.3254,4.5752,4.7514,5.0279,5.3112,5.6002,5.6464,5.7079,5.7983,5.8234,5.8529,5.883,5.883,5.883,5.883,5.883,5.883,5.8926,6.0795,6.2068,6.2948,6.4801,6.669,6.8434,6.8053,6.8171,6.8541,6.8167,6.6685,6.4606,6.2839,6.0511,0.0,0.0,5.7129,5.5952,5.7285,5.6632,5.5209,5.4102,5.1468,0.0,4.5822,4.5975,0.0,0.0,5.0934,5.3622,5.5559,5.8343,6.0737,6.1547,6.4964,6.8511,7.0739,7.4001,7.6963,0.0,8.0165,8.1183,8.186,8.2208,8.2069,8.1302,8.1919,8.2638,8.3277,8.3886,8.4275,8.4275,8.4545,8.4694,8.4694,8.4694,8.4893,8.5282,8.4634,8.4485,8.4844,8.4235,8.3906,8.3906,8.3517,8.3337,8.3307,8.2967,8.2806,8.2747,8.2069,8.2009,8.2327,8.165,8.1362,8.1351,8.1063,8.0494,7.9638,7.8292,7.825,7.8655,0.0,0.0,0.0,0.0,0.0,0.0,0.0,0.0,0.0,0.0,0.0,0.0,0.0,0.0,0.0,3.8249,4.1268,4.4149,4.6397,4.9887,5.3087,5.5864,5.6803,5.7631,5.8459,5.8761,5.9106,5.9483,5.9483,5.9483,5.9483,5.9483,5.9483,5.956,6.0957,6.1891,6.2479,6.3857,6.5533,6.7244,6.6606,6.6808,6.7379,6.668,6.4552,6.1748,6.0253,5.8229,0.0,0.0,5.405,5.3675,5.6009,5.5585,5.4089,5.3551,5.023,4.664,4.6061,0.0,0.0,5.1505,5.4478,5.7603,6.0595,6.3827,6.652,6.7761,7.1098,7.4317,7.5963,7.8118,0.0,8.1171,8.1901,8.2559,8.3236,8.3016,8.2297,8.0943,8.1321,8.2009,8.2809,8.3976,8.4784,8.4963,8.5162,8.5252,8.5252,8.5252,8.5462,8.594,8.5342,8.5222,8.5701,8.5043,8.4604,8.4425,8.3927,8.3617,8.3438,8.2997,8.2806,8.2776,8.2297,8.2357,8.2747,8.2297,8.2069,8.2069,8.186,8.1212,8.0177,7.8849,7.825,7.7921,0.0,0.0,0.0,0.0,0.0,0.0,0.0,0.0,0.0,0.0,0.0,0.0,0.0,0.0,0.0,3.786,3.9708,4.2183,4.525,4.8472,5.1817,5.5261,5.6997,5.7901,5.7926,5.893,5.9483,5.9483,5.9483,5.9483,5.9483,5.9483,5.9483,5.9483,5.956,6.0641,6.2413,6.2442,6.3566,6.5247,6.4709,6.4117,6.3486,6.2764,6.0132,5.6975,5.8148,0.0,0.0,0.0,4.9514,4.8576,5.2197,5.3755,0.0,5.1876,4.8476,0.0,0.0,0.0,5.0516,5.5598,5.8919,6.1957,6.5862,6.9319,7.2402,7.5018,7.7173,7.8819,7.9519,8.0764,8.1949,8.2627,8.3247,8.3886,8.4545,8.3596,8.2297,8.0943,7.9686,7.9417,0.0,8.3217,8.4963,8.5611,8.6289,8.6648,8.6648,8.6648,8.6648,8.6678,8.6,8.5671,8.5701,8.5043,8.4365,8.3718,8.3718,8.3397,8.2836,8.2806,8.2806,8.2806,8.2776,8.2776,8.2806,8.2776,8.2776,8.2717,8.2039,8.177,8.159,8.0207,7.9327,7.8669,0.0,0.0,0.0,0.0,0.0,0.0,0.0,0.0,0.0,0.0,0.0,0.0,0.0,0.0,0.0,0.0,3.8539,4.0171,4.196,4.5548,4.8948,5.1942,5.5089,5.6928,5.7305,5.8052,5.8428,5.8428,5.8428,5.8629,5.8961,5.8961,5.9156,5.9483,5.9483,5.9869,6.0469,6.0469,6.1781,6.3783,6.2864,6.2835,6.3173,6.1086,5.8214,5.487,0.0,0.0,0.0,0.0,0.0,0.0,4.8521,0.0,0.0,4.7597,0.0,0.0,0.0,0.0,5.7406,6.1359,6.5323,6.8944,7.1623,7.4437,7.6724,7.7622,7.7652,7.7544,7.7783,7.7125,7.737,7.9764,8.0704,8.1792,8.3767,8.3677,8.226,7.9178,7.9597,0.0,0.0,0.0,0.0,8.5521,8.591,8.6229,8.6678,8.7127,8.7157,8.6708,8.6898,8.6808,8.6379,8.5701,8.5252,8.5013,8.4126,8.3397,8.2806,8.2806,8.2806,8.2806,8.2806,8.2806,8.2806,8.2806,8.2806,8.2747,8.2069,8.153,8.1033,8.0117,7.9387,7.8699,0.0,0.0,0.0,0.0,0.0,0.0,0.0,0.0,0.0,0.0,0.0,0.0,0.0,0.0,0.0,0.0,0.0,0.0,3.975,4.2034,4.483,4.8193,5.0728,5.2511,5.3447,5.364,5.4059,5.4655,5.5257,5.6118,5.7248,5.7832,5.8384,5.893,5.893,5.893,5.893,5.893,5.9388,6.0009,5.8695,5.84,5.8531,5.6126,5.3497,0.0,0.0,0.0,0.0,0.0,0.0,0.0,0.0,0.0,0.0,0.0,0.0,0.0,0.0,5.871,6.3169,6.7193,7.1128,7.448,7.6263,7.8328,7.9465,7.8058,7.6904,7.5689,7.4283,7.2398,7.2535,7.7023,7.7921,7.9477,8.3497,8.3258,8.1643,7.883,7.8849,0.0,0.0,0.0,0.0,8.4724,8.5432,8.599,8.6648,8.7127,8.7257,8.7067,8.7227,8.7157,8.6708,8.605,8.5462,8.4963,8.3906,8.3158,8.2806,8.2806,8.2806,8.2806,8.2806,8.2806,8.2806,8.2806,8.2806,8.2747,8.2327,8.189,8.1411,8.0494,7.9896,7.9357,0.0,0.0,0.0,0.0,0.0,0.0,0.0,0.0,0.0,0.0,0.0,0.0,0.0,0.0,0.0,0.0,0.0,0.0,3.8502,3.8229,3.9849,4.4052,4.4403,4.5217,4.6823,4.6386,4.6928,4.8526,5.0134,5.2017,5.417,5.5698,5.6728,5.7298,5.7349,5.7349,5.7349,5.7374,5.6187,5.417,5.2588,5.1319,5.0215,4.8421,0.0,0.0,0.0,0.0,0.0,0.0,0.0,0.0,0.0,0.0,0.0,0.0,0.0,5.233,5.958,6.3992,6.7747,7.2864,7.6096,7.834,7.9608,8.0764,8.0513,7.6634,7.5035,7.312,0.0,0.0,6.7956,7.454,7.5335,7.737,8.3827,8.2589,8.0704,0.0,0.0,0.0,0.0,0.0,0.0,8.3419,0.0,8.594,8.6648,8.6768,8.7067,8.7646,8.7067,8.6738,8.6708,8.602,8.4983,8.3628,8.3087,8.2806,8.2806,8.2806,8.2806,8.2806,8.2806,8.2806,8.2806,8.2806,8.2806,8.2806,8.2747,8.2747,8.2597,8.1272,8.0764,8.0464,0.0,0.0,0.0,0.0,0.0,0.0,0.0,0.0,0.0,0.0,0.0,0.0,0.0,0.0,0.0,0.0,0.0,0.0,3.5786,3.716,3.833,3.9057,4.1482,4.3014,4.3441,4.3704,4.4256,4.507,4.5497,4.6441,4.7823,4.8234,4.8736,4.9289,4.9674,4.9834,4.9875,5.0277,5.0368,5.0256,0.0,4.9544,4.9124,0.0,0.0,0.0,0.0,0.0,0.0,0.0,0.0,0.0,0.0,0.0,4.9007,0.0,0.0,5.967,6.5966,7.0454,7.4061,7.6844,7.9196,8.0872,8.1212,8.0016,7.813,7.5664,7.0336,6.5338,0.0,0.0,0.0,7.0606,7.5065,0.0,8.4714,8.4444,0.0,0.0,0.0,8.0105,7.9578,8.0285,0.0,0.0,8.4485,8.5462,8.6648,8.7666,8.7816,8.6978,8.7257,8.7217,8.6708,8.5551,8.4295,8.3027,8.2866,8.2806,8.2806,8.2806,8.2806,8.2806,8.2806,8.2806,8.2806,8.2806,8.2806,8.2747,8.2249,8.2039,8.1949,8.1093,8.0476,7.9907,0.0,0.0,0.0,0.0,0.0,0.0,0.0,0.0,0.0,0.0,0.0,0.0,0.0,0.0,0.0,0.0,0.0,0.0,0.0,3.6435,3.695,3.7157,3.8021,3.8864,3.9582,3.8969,3.9296,4.0539,4.1028,4.2208,4.407,4.4532,4.5045,4.5583,4.5869,4.5995,4.602,4.6336,0.0,0.0,0.0,0.0,0.0,0.0,0.0,0.0,0.0,0.0,0.0,0.0,0.0,4.7747,4.9535,5.151,5.4204,5.9458,0.0,6.5353,7.0992,7.5031,7.81,8.0064,8.1411,8.162,7.9286,7.7143,7.4104,6.8645,6.3333,0.0,0.0,0.0,0.0,0.0,0.0,0.0,8.4444,8.4444,8.3427,0.0,8.217,0.0,8.1553,8.2181,8.3307,0.0,8.5103,8.5731,8.7067,8.7856,8.8055,8.7606,8.7367,8.6778,8.5821,8.5372,8.4474,8.3187,8.3506,8.3476,8.3187,8.3187,8.3057,8.2806,0.0,8.2806,8.2806,8.2806,8.2806,8.2747,8.2387,8.2238,8.2129,8.1171,8.0554,8.0105,0.0,0.0,0.0,0.0,0.0,0.0,0.0,0.0,0.0,0.0,0.0,0.0,0.0,0.0,0.0,0.0,0.0,0.0,0.0,0.0,0.0,3.6854,3.4975,3.4595,3.604,3.4258,3.4266,0.0,0.0,0.0,4.1417,0.0,0.0,0.0,0.0,0.0,0.0,0.0,0.0,0.0,0.0,0.0,0.0,0.0,0.0,0.0,0.0,0.0,0.0,0.0,5.0955,5.1923,5.576,5.8022,6.0298,6.5518,6.7942,7.0037,7.5168,7.834,8.0644,8.2458,8.2657,8.107,7.5933,7.3103,6.8928,5.9534,0.0,5.3264,5.0357,5.2683,5.7706,6.5697,0.0,7.6544,8.3797,8.3805,8.3296,8.3886,8.3487,8.3386,8.3916,8.4066,8.4844,8.6708,8.6379,8.6569,8.7646,8.7796,8.8005,8.8414,8.7307,8.611,8.4844,8.5402,8.5073,8.3837,8.4425,8.4395,8.3827,8.3748,8.3408,8.2926,0.0,0.0,8.2806,8.2806,8.2806,8.2806,8.2806,8.2806,8.2657,8.1392,8.0883,8.0614,0.0,0.0,0.0,0.0,0.0,0.0,0.0,0.0,0.0,0.0,3.7345,3.7456,0.0,0.0,0.0,0.0,0.0,0.0,0.0,0.0,0.0,3.5727,3.4892,3.4596,3.4897,0.0,0.0,0.0,0.0,0.0,3.7252,0.0,0.0,0.0,0.0,0.0,0.0,0.0,0.0,0.0,0.0,0.0,0.0,0.0,0.0,0.0,0.0,0.0,0.0,0.0,5.4944,5.7247,6.0146,6.3079,6.64,7.1128,7.309,7.4616,7.8819,8.1111,8.2488,8.3318,8.1912,7.9238,7.5018,6.9259,0.0,0.0,0.0,4.8495,4.7897,5.1397,5.7141,6.5622,0.0,0.0,0.0,0.0,8.4624,0.0,0.0,0.0,0.0,0.0,0.0,0.0,0.0,8.8035,8.7736,8.8215,8.8085,8.7067,8.6828,8.6319,8.5521,8.5641,8.5312,8.4515,8.4634,8.4634,8.4515,8.3946,8.3647,8.3527,0.0,0.0,8.2806,8.2806,8.2806,8.2806,8.2806,8.2806,8.2687,8.1919,8.1291,8.0704,0.0,0.0,0.0,0.0,0.0,0.0,0.0,3.6498,3.6947,3.8255,3.8742,3.8563,3.7516,3.7413,3.7533,0.0,0.0,0.0,0.0,0.0,0.0,0.0,0.0,0.0,0.0,0.0,0.0,0.0,0.0,0.0,0.0,0.0,0.0,0.0,0.0,0.0,0.0,0.0,0.0,0.0,0.0,0.0,0.0,0.0,0.0,0.0,0.0,0.0,0.0,0.0,5.5286,5.9504,6.456,6.8196,7.1218,7.4463,7.6395,7.8011,8.0614,8.226,8.3427,8.4066,8.1732,7.7352,6.9977,0.0,0.0,0.0,0.0,4.4237,4.4237,4.9404,0.0,0.0,0.0,0.0,0.0,0.0,0.0,0.0,0.0,0.0,0.0,0.0,0.0,0.0,0.0,0.0,8.8245,8.8185,8.7706,8.6738,8.6708,8.6379,8.5701,8.605,8.5881,8.5222,8.5581,8.5551,8.5192,8.4515,8.4036,8.3658,8.3057,0.0,8.2806,8.2806,8.2806,8.2806,8.2806,8.2806,8.2717,8.2039,8.1381,8.0704,0.0,0.0,0.0,0.0,0.0,0.0,0.0,3.7704,3.8212,3.9828,4.0247,3.9679,3.7823,3.7315,3.7135,0.0,0.0,0.0,0.0,0.0,0.0,0.0,0.0,0.0,0.0,0.0,0.0,0.0,0.0,0.0,0.0,0.0,0.0,0.0,0.0,0.0,0.0,0.0,0.0,0.0,0.0,0.0,0.0,0.0,0.0,0.0,0.0,0.0,0.0,0.0,5.3611,5.8607,6.5607,7.062,7.427,7.6078,7.8112,8.0147,8.1781,8.3019,8.4036,8.4574,8.1302,7.5365,6.5368,5.8976,0.0,0.0,4.0945,4.1523,4.1932,0.0,5.2797,0.0,6.1746,0.0,0.0,0.0,0.0,0.0,0.0,0.0,0.0,0.0,0.0,0.0,0.0,0.0,8.8684,8.7915,8.7227,8.6708,8.6708,8.6439,8.591,8.6439,8.6439,8.591,8.6439,8.6409,8.59,8.5222,8.4545,8.3886,8.3247,0.0,0.0,8.2806,8.2806,8.2806,8.2806,8.2806,8.2717,8.2039,8.1471,8.0883,0.0,0.0,0.0,0.0,0.0,0.0,0.0,3.8691,3.9248,4.1772,4.1134,3.9858,3.8461,3.8802,3.8443,0.0,0.0,0.0,0.0,0.0,0.0,0.0,0.0,0.0,0.0,0.0,0.0,0.0,0.0,0.0,0.0,0.0,0.0,0.0,0.0,0.0,0.0,0.0,0.0,0.0,0.0,0.0,0.0,0.0,0.0,0.0,0.0,0.0,0.0,0.0,0.0,5.2982,5.9069,6.6954,7.418,7.5587,0.0,0.0,8.2869,8.4066,8.4604,8.4664,7.9926,7.312,6.4964,0.0,0.0,4.1953,4.0945,4.1932,4.3708,0.0,0.0,0.0,0.0,6.5009,0.0,0.0,0.0,0.0,0.0,0.0,0.0,0.0,0.0,0.0,0.0,0.0,0.0,8.7487,8.6768,8.6708,8.6708,8.6678,8.6619,8.6678,8.6678,8.6619,8.6678,8.6648,8.6589,8.591,8.5252,8.4574,0.0,0.0,0.0,8.2806,8.2806,8.2806,8.2806,8.2806,8.2717,8.2039,8.177,8.153,0.0,0.0,0.0,0.0,0.0,0.0,3.7875,3.6994,3.7302,4.0735,4.0121,3.9587,4.0141,3.9483,3.8157,3.6068,0.0,0.0,0.0,0.0,0.0,0.0,0.0,0.0,0.0,0.0,0.0,0.0,0.0,0.0,0.0,0.0,0.0,0.0,0.0,0.0,0.0,0.0,0.0,0.0,0.0,0.0,0.0,0.0,0.0,0.0,0.0,0.0,0.0,0.0,0.0,0.0,5.1038,5.7304,0.0,0.0,7.4779,7.7771,8.1991,8.4205,8.5222,8.4784,7.9148,7.1517,6.3183,0.0,4.6909,3.9999,3.9439,4.0417,4.1216,4.3399,4.639,5.0338,0.0,0.0,6.5772,0.0,0.0,0.0,0.0,0.0,0.0,0.0,0.0,0.0,0.0,0.0,0.0,8.7217,8.6708,8.6708,8.6708,8.6708,8.6708,8.6708,8.6708,8.6708,8.6708,8.6708,8.6648,8.5581,8.4953,8.4634,0.0,0.0,0.0,8.2806,8.2806,8.2806,8.2806,8.2806,8.2776,8.2507,8.189,8.1123,0.0,0.0,0.0,0.0,0.0,3.5206,3.7375,3.6365,3.6635,4.0226,3.982,3.9757,4.1228,3.9566,3.7795,3.647,3.6648,0.0,0.0,0.0,0.0,0.0,0.0,0.0,0.0,0.0,0.0,0.0,0.0,0.0,0.0,0.0,0.0,0.0,0.0,0.0,0.0,0.0,0.0,0.0,0.0,0.0,0.0,0.0,0.0,0.0,0.0,0.0,0.0,0.0,0.0,0.0,0.0,0.0,0.0,0.0,7.0709,7.4916,8.0423,8.3457,8.5043,8.4773,7.8442,7.0214,0.0,0.0,4.5294,3.9251,3.8733,3.9511,3.9909,4.2043,4.4317,4.6031,4.8147,5.2276,6.0013,6.4276,6.9453,0.0,0.0,0.0,0.0,0.0,0.0,0.0,0.0,0.0,0.0,8.7666,8.7097,8.6708,8.6888,8.6888,8.6708,8.6708,8.6708,8.6708,8.6708,8.6708,8.6648,8.5521,8.4893,8.4634,0.0,0.0,0.0,8.2806,8.2806,8.2806,8.2806,8.2806,8.2806,8.2806,8.2069,8.1063,0.0,0.0,0.0,0.0,0.0,0.0,3.799,3.7823,3.8332,4.1044,4.0816,4.0627,4.1343,3.9011,3.7656,3.8311,3.6626,0.0,0.0,0.0,0.0,0.0,0.0,0.0,0.0,0.0,3.9729,4.0397,3.972,0.0,0.0,0.0,0.0,0.0,0.0,0.0,0.0,0.0,0.0,0.0,0.0,0.0,0.0,0.0,0.0,0.0,0.0,0.0,0.0,0.0,0.0,0.0,0.0,0.0,0.0,0.0,6.5832,7.2235,7.8202,8.1714,8.3886,8.4545,7.7753,6.9183,0.0,0.0,4.4984,4.0348,3.9391,3.9819,4.1124,4.1952,4.3259,4.5882,4.8473,5.2749,6.0073,6.5069,6.9484,0.0,0.0,0.0,0.0,0.0,0.0,0.0,0.0,0.0,0.0,8.9043,8.8085,8.6738,8.7347,8.7377,8.6708,8.6708,8.6708,8.6708,8.6708,8.6708,8.6678,8.602,8.5342,0.0,0.0,0.0,0.0,8.2806,8.2806,8.2806,8.2806,8.2806,8.2806,8.2806,8.2368,8.171,0.0,0.0,0.0,0.0,0.0,0.0,0.0,3.4771,3.5003,3.7682,3.7546,3.8079,4.0472,3.8458,3.7326,3.8309,3.7024,0.0,0.0,0.0,0.0,0.0,0.0,0.0,0.0,0.0,3.9511,3.9729,3.9969,4.0397,0.0,0.0,0.0,0.0,0.0,0.0,0.0,0.0,0.0,0.0,0.0,0.0,0.0,0.0,0.0,0.0,0.0,0.0,0.0,0.0,0.0,0.0,0.0,0.0,0.0,4.8865,0.0,0.0,6.9108,7.2954,7.5048,7.2548,6.7358,6.1329,5.5645,0.0,4.2681,3.9418,3.873,3.9269,4.1074,4.1952,4.3718,4.769,4.9392,5.1983,0.0,0.0,0.0,0.0,0.0,0.0,0.0,0.0,0.0,0.0,0.0,0.0,0.0,8.8833,8.8295,8.7407,8.7586,8.7377,8.6708,8.6708,8.6708,8.6708,8.6708,8.6469,8.597,8.5312,0.0,0.0,0.0,0.0,0.0,8.2806,8.2806,8.2806,8.2806,8.2806,8.2806,8.2806,8.2387,8.171,0.0,0.0,0.0,0.0,0.0,0.0,0.0,3.3582,3.3664,3.5827,3.5836,3.6834,4.0054,3.8336,3.7448,3.8659,3.7383,0.0,0.0,0.0,0.0,0.0,0.0,0.0,0.0,3.9541,3.9861,4.0877,4.1055,4.1543,4.2252,4.283,4.299,0.0,0.0,0.0,0.0,0.0,0.0,0.0,0.0,0.0,3.9679,0.0,0.0,0.0,0.0,0.0,0.0,0.0,0.0,0.0,0.0,0.0,0.0,0.0,0.0,0.0,0.0,6.6101,6.8315,6.5862,6.1224,0.0,0.0,0.0,4.0705,3.8799,3.8191,3.8571,4.0316,4.1403,4.306,4.6174,0.0,0.0,0.0,0.0,0.0,0.0,0.0,0.0,0.0,0.0,0.0,0.0,0.0,0.0,0.0,0.0,8.8774,8.8095,8.7826,8.7377,8.6708,8.6708,8.6708,8.6708,8.6439,8.611,8.5671,8.4724,0.0,0.0,0.0,0.0,0.0,8.2806,8.2806,8.2806,8.2806,8.2806,8.2806,8.2806,8.2238,8.1381,0.0,0.0,0.0,0.0,0.0,0.0,0.0,3.3979,3.4023,3.528,3.5541,3.6776,3.9798,3.8473,3.7875,3.9092,0.0,0.0,0.0,0.0,0.0,0.0,0.0,0.0,0.0,3.9819,4.0677,4.315,4.2591,4.3269,4.5075,4.4486,4.3908,4.33,4.33,0.0,0.0,0.0,0.0,0.0,0.0,0.0,0.0,0.0,0.0,0.0,0.0,0.0,0.0,0.0,0.0,0.0,0.0,0.0,0.0,0.0,0.0,0.0,0.0,0.0,0.0,0.0,0.0,0.0,0.0,0.0,0.0,3.8461,3.7823,3.7845,3.9331,4.0576,4.1712,0.0,0.0,0.0,0.0,0.0,0.0,0.0,0.0,0.0,0.0,0.0,0.0,0.0,0.0,0.0,0.0,0.0,8.9282,8.8714,8.8005,8.7317,8.6708,8.6648,8.6619,8.6619,8.596,8.5611,8.5521,8.4275,0.0,0.0,0.0,0.0,0.0,8.2806,8.2806,8.2806,8.2806,8.2806,8.2806,8.2747,8.1949,8.0853,0.0,0.0,0.0,0.0,0.0,0.0,0.0,0.0,0.0,0.0,3.6028,3.7075,3.7383,3.7404,3.7345,0.0,0.0,0.0,0.0,0.0,0.0,0.0,0.0,0.0,4.1194,4.0516,4.0726,4.1843,4.1703,4.2131,4.309,4.3379,4.3449,4.33,4.33,4.2592,0.0,0.0,0.0,0.0,0.0,0.0,0.0,0.0,0.0,0.0,3.9391,3.9601,0.0,0.0,0.0,0.0,0.0,0.0,0.0,0.0,4.0376,4.1923,4.3589,0.0,0.0,0.0,4.6702,0.0,0.0,0.0,0.0,0.0,0.0,3.8272,4.1164,4.1523,4.2601,0.0,0.0,0.0,0.0,0.0,0.0,0.0,0.0,0.0,0.0,0.0,0.0,0.0,0.0,0.0,0.0,0.0,8.8334,8.8684,8.7546,8.6858,8.6708,8.62,8.596,8.593,8.5252,8.4664,8.4156,8.3837,0.0,0.0,0.0,0.0,8.2806,8.2806,8.2806,8.2806,8.2806,8.2806,8.2747,8.2219,8.183,8.1411,0.0,0.0,0.0,0.0,0.0,0.0,0.0,0.0,0.0,0.0,0.0,3.6956,3.6934,3.7494,0.0,0.0,0.0,0.0,0.0,0.0,0.0,0.0,0.0,4.1772,4.1403,4.0735,4.1175,4.2731,4.2152,4.2661,4.4177,4.3878,4.3599,4.326,4.2382,4.1773,0.0,0.0,0.0,0.0,0.0,0.0,0.0,0.0,0.0,0.0,3.8584,3.8682,0.0,3.9729,4.0148,4.0337,0.0,0.0,0.0,0.0,3.8452,3.8952,3.8584,4.1743,4.4547,4.2092,4.1274,4.0556,0.0,0.0,0.0,0.0,0.0,3.8063,4.0176,0.0,0.0,0.0,0.0,0.0,0.0,0.0,0.0,0.0,0.0,0.0,0.0,0.0,0.0,0.0,0.0,0.0,0.0,0.0,8.8185,8.8245,8.6948,8.6229,8.6229,8.5881,8.5551,8.5222,8.4545,8.4066,8.3688,8.3408,0.0,0.0,0.0,0.0,8.2806,8.2806,8.2806,8.2776,8.2477,8.2357,8.2297,8.1919,8.1411,8.0823,0.0,0.0,0.0,0.0,0.0,0.0,0.0,0.0,0.0,0.0,0.0,0.0,0.0,0.0,0.0,0.0,0.0,0.0,0.0,0.0,0.0,0.0,0.0,4.1633,4.1553,4.0885,4.1654,4.3858,4.3169,4.3978,4.6121,4.5414,4.4486,4.3359,4.1524,4.0915,0.0,0.0,0.0,0.0,0.0,0.0,0.0,0.0,0.0,0.0,0.0,0.0,0.0,3.8862,3.94,3.9709,3.9131,0.0,0.0,0.0,0.0,0.0,3.7486,3.9349,4.1035,4.0157,3.9329,3.849,3.7605,0.0,0.0,0.0,0.0,0.0,0.0,0.0,0.0,0.0,0.0,0.0,0.0,0.0,0.0,0.0,0.0,0.0,0.0,0.0,0.0,0.0,0.0,0.0,0.0,0.0,0.0,8.7706,8.6389,8.5641,8.5551,8.5462,8.5103,8.4545,8.3886,8.3557,8.3557,8.3027,8.2806,0.0,0.0,0.0,8.2806,8.2806,8.2806,8.2747,8.2069,8.186,8.1919,8.162,8.0823,7.9997,0.0,0.0,0.0,0.0,0.0,0.0,0.0,0.0,0.0,0.0,0.0,0.0,0.0,0.0,0.0,0.0,0.0,0.0,0.0,0.0,0.0,4.2791,4.2941,4.2751,4.2261,4.1583,4.1433,4.1852,4.3888,4.5065,4.5514,4.757,4.6961,4.4097,4.272,4.1523,4.0487,0.0,0.0,0.0,0.0,0.0,0.0,0.0,0.0,0.0,0.0,0.0,0.0,3.7486,3.7434,3.7084,3.6964,0.0,0.0,0.0,0.0,0.0,3.7952,3.9388,4.0127,3.8293,3.899,3.9619,3.7815,0.0,0.0,0.0,0.0,0.0,0.0,0.0,0.0,0.0,0.0,0.0,0.0,0.0,0.0,0.0,0.0,0.0,0.0,0.0,0.0,0.0,0.0,0.0,0.0,0.0,0.0,8.7706,8.6389,8.5432,8.4844,8.4305,8.3976,8.3837,8.3217,8.2937,8.2937,8.2836,8.2806,0.0,0.0,8.2806,8.2806,8.2806,8.2806,8.2747,8.2069,8.2129,8.2447,8.0734,8.0345,8.0494,0.0,0.0,0.0,0.0,0.0,0.0,0.0,0.0,0.0,0.0,0.0,0.0,0.0,0.0,0.0,0.0,0.0,0.0,0.0,0.0,0.0,4.2741,4.2462,4.2322,4.241,4.2771,4.315,4.3519,4.5793,4.7279,4.7945,4.738,4.6112,4.4187,4.1833,4.0645,4.0367,3.969,0.0,0.0,0.0,0.0,0.0,0.0,0.0,0.0,0.0,0.0,0.0,0.0,3.6985,3.6493,3.6493,0.0,0.0,0.0,0.0,0.0,3.6656,3.8033,3.9448,3.9966,4.1064,4.1594,3.9957,0.0,0.0,0.0,0.0,0.0,0.0,0.0,0.0,0.0,0.0,0.0,0.0,0.0,0.0,0.0,0.0,0.0,0.0,0.0,0.0,0.0,0.0,0.0,0.0,0.0,0.0,0.0,8.5671,8.4844,8.4186,8.3547,8.3217,8.3217,8.2907,8.2806,8.2806,8.2806,8.2806,8.2806,0.0,8.2806,8.2806,8.2806,8.2806,8.2747,8.2069,8.177,8.153,7.9866,7.9668,8.0117,0.0,0.0,0.0,0.0,0.0,0.0,0.0,0.0,0.0,0.0,0.0,0.0,0.0,0.0,0.0,0.0,0.0,0.0,0.0,0.0,4.1094,4.2131,4.2122,4.2331,4.284,4.3808,4.4785,4.5753,4.8248,4.9942,5.0817,4.7388,4.5155,4.3978,4.1135,3.9969,4.0118,3.961,3.9391,0.0,0.0,0.0,0.0,0.0,0.0,0.0,0.0,0.0,0.0,0.0,0.0,0.0,0.0,0.0,0.0,3.4795,3.4959,3.5631,3.6259,3.7614,3.9478,4.1972,0.0,4.3249,0.0,0.0,0.0,0.0,0.0,0.0,0.0,0.0,0.0,0.0,0.0,0.0,0.0,0.0,0.0,0.0,0.0,0.0,0.0,0.0,0.0,0.0,0.0,0.0,0.0,0.0,0.0,0.0,8.5043,8.4365,8.3718,8.3117,8.2806,8.2806,8.2806,8.2806,8.2806,8.2806,8.2806,8.2806,8.2806,8.2806,8.2806,8.2806,8.2806,8.2747,8.2069,8.1272,8.0464,7.9597,7.9387,7.9489,0.0,0.0,0.0,0.0,0.0,0.0,0.0,0.0,0.0,0.0,0.0,0.0,0.0,0.0,0.0,0.0,0.0,0.0,0.0,0.0,4.1373,4.1463,4.315,4.4127,4.4157,4.4247,4.5234,4.716,5.0971,5.2887,5.2887,4.8985,4.5843,4.3399,4.1903,4.0576,3.9481,3.9421,3.9391,3.9391,0.0,0.0,0.0,0.0,0.0,0.0,0.0,0.0,0.0,0.0,0.0,0.0,0.0,0.0,3.4607,3.4526,3.4959,3.602,3.8464,3.967,4.0756,4.2741,4.2851,0.0,0.0,0.0,0.0,0.0,0.0,0.0,0.0,0.0,0.0,0.0,0.0,0.0,0.0,0.0,0.0,0.0,0.0,0.0,0.0,0.0,0.0,0.0,0.0,0.0,0.0,0.0,0.0,0.0,0.0,8.4365,8.3718,8.3117,8.2806,8.2806,8.2806,8.2806,8.2806,8.2806,8.2806,8.2806,8.2806,8.2806,8.2806,8.2806,8.2806,8.2747,8.2069,8.1003,7.9937,8.0464,7.9896,7.8867,0.0,0.0,0.0,0.0,0.0,0.0,0.0,0.0,0.0,0.0,0.0,0.0,0.0,0.0,0.0,0.0,0.0,0.0,0.0,4.0038,4.0148,4.0148,4.1265,4.1883,4.1883,4.5882,4.8933,5.0971,5.2875,5.3605,5.3109,4.8308,4.4896,4.269,4.0945,3.9879,3.9391,3.9391,3.9391,3.9391,3.9391,0.0,0.0,0.0,0.0,0.0,0.0,0.0,0.0,0.0,3.3933,3.3544,3.3791,3.4158,3.4496,3.4496,3.4959,3.581,3.7225,3.9577,4.2301,4.5084,0.0,0.0,0.0,0.0,0.0,0.0,0.0,0.0,0.0,0.0,0.0,0.0,0.0,0.0,0.0,0.0,0.0,0.0,0.0,0.0,0.0,0.0,0.0,0.0,0.0,0.0,0.0,0.0,0.0,0.0,0.0,8.3767,8.3147,8.2926,8.2806,8.2806,8.2806,8.2806,8.2806,8.2806,8.2806,8.2806,8.2806,8.2806,8.2806,8.2806,8.2567,8.2099,8.1441,8.0853,8.0405,8.0237,7.9597,7.8867,0.0,0.0,0.0,0.0,0.0,0.0,0.0,0.0,0.0,0.0,0.0,0.0,0.0,0.0,0.0,0.0,0.0,0.0,3.9391,3.9391,3.9311,3.9101,3.9918,4.0786,4.1614,4.7059,5.0679,5.2247,5.3773,5.3623,5.1881,4.738,4.4267,4.2321,4.0307,3.9631,3.9999,3.9571,3.9391,3.9391,3.9161,3.8413,0.0,0.0,0.0,0.0,0.0,0.0,0.0,0.0,3.3215,3.2976,3.3612,3.3979,3.4278,3.4697,3.513,3.5639,3.6314,3.8918,4.2241,0.0,0.0,0.0,0.0,0.0,0.0,0.0,0.0,0.0,0.0,0.0,0.0,0.0,0.0,0.0,0.0,0.0,0.0,0.0,0.0,0.0,0.0,0.0,0.0,0.0,0.0,0.0,0.0,0.0,0.0,0.0,0.0,8.3408,8.2806,8.2806,8.2806,8.2806,8.2806,8.2806,8.2806,8.2806,8.2687,8.2507,8.2717,8.2567,8.2189,8.2417,8.2069,8.1441,8.0973,8.0674,8.0434,7.9967,7.9387,7.8867,0.0,0.0,0.0,0.0,0.0,0.0,0.0,0.0,0.0,0.0,0.0,0.0,0.0,0.0,0.0,0.0,0.0,0.0,3.9391,3.9391,3.9101,3.8431,3.9679,4.1584,4.4157,4.751,4.9565,5.0237,5.3521,5.3126,4.9187,4.6512,4.4247,4.2281,4.0307,4.0148,4.1274,3.9969,3.9391,3.9331,3.8661,3.8003,0.0,0.0,0.0,0.0,0.0,0.0,0.0,0.0,3.2602,3.1869,3.3851,3.4039,3.3791,3.5092,3.5511,3.5699,3.6335,3.7964,4.0259,0.0,0.0,0.0,0.0,0.0,0.0,0.0,0.0,0.0,0.0,0.0,0.0,0.0,0.0,0.0,0.0,0.0,0.0,0.0,0.0,0.0,0.0,0.0,0.0,0.0,0.0,0.0,0.0,0.0,0.0,0.0,8.3688,0.0,8.2806,8.2806,8.2806,8.2806,8.2806,8.2806,8.2806,8.2806,8.2428,8.183,8.2507,8.2039,8.0853,8.153,8.1411,8.0794,8.0794,8.0386,7.9788,7.9788,7.9387,7.8807,0.0,0.0,0.0,0.0,0.0,0.0,0.0,0.0,0.0,0.0,0.0,0.0,0.0,0.0,0.0,0.0,0.0,0.0,3.9391,3.9391,3.8883,3.7764,3.9439,3.9478,3.7443,4.1583,4.6332,5.1606,5.2115,4.9871,4.5055,4.4267,4.2871,4.0975,4.0855,4.0487,3.9969,3.9571,3.8853,3.8024,3.8281,3.7742,3.6755,0.0,0.0,0.0,0.0,0.0,0.0,0.0,0.0,0.0,3.3455,3.4629,3.5587,3.5519,3.7135,3.8901,3.8622,4.1674,0.0,0.0,0.0,0.0,0.0,0.0,0.0,0.0,0.0,0.0,0.0,0.0,0.0,0.0,0.0,0.0,0.0,0.0,0.0,0.0,0.0,0.0,0.0,0.0,0.0,0.0,0.0,0.0,0.0,0.0,0.0,0.0,8.3277,8.2967,8.2806,8.2806,8.2806,8.2806,8.2806,8.2806,8.2806,8.2806,8.2428,8.183,8.2507,8.2309,8.15,8.1212,8.0973,8.0764,8.0285,7.9967,7.9788,7.9788,7.9387,7.8867,0.0,0.0,0.0,0.0,0.0,0.0,0.0,0.0,0.0,0.0,0.0,0.0,0.0,0.0,0.0,0.0,0.0,0.0,0.0,3.9152,3.8533,3.7456,3.8563,3.873,3.767,4.1394,4.4985,4.8319,4.9224,4.7358,4.296,4.3738,4.3319,4.1983,4.2651,4.2183,4.0917,4.0417,3.926,3.7823,3.8251,3.7772,3.6874,0.0,0.0,0.0,0.0,0.0,0.0,0.0,0.0,0.0,3.3275,3.451,3.5775,3.6148,3.7494,3.9119,4.0277,4.3688,0.0,0.0,0.0,0.0,0.0,0.0,0.0,0.0,0.0,0.0,0.0,0.0,0.0,0.0,0.0,0.0,0.0,0.0,0.0,0.0,0.0,0.0,0.0,0.0,0.0,0.0,0.0,0.0,0.0,0.0,0.0,0.0,8.2997,8.2806,8.2806,8.2806,8.2806,8.2806,8.2537,8.2417,8.2417,8.2417,8.189,8.1003,8.1141,8.1141,8.0943,8.0285,8.0016,7.9956,7.9567,7.9417,7.9417,7.9417,7.9148,7.8867,0.0,0.0,0.0,0.0,0.0,0.0,0.0,0.0,0.0,0.0,0.0,0.0,0.0,0.0,0.0,0.0,0.0,0.0,0.0,0.0,3.8182,3.7516,3.7486,3.8939,4.2071,4.4466,4.4496,4.2051,4.5404,4.5304,4.2081,4.4277,4.4915,4.4247,4.4975,4.4486,4.303,4.1773,4.0047,3.823,3.8341,3.7982,3.7306,3.7246,0.0,0.0,0.0,0.0,0.0,0.0,0.0,0.0,3.3275,3.4031,3.5035,3.6716,3.7135,3.7871,4.1712,0.0,0.0,5.6137,0.0,0.0,0.0,0.0,0.0,0.0,0.0,0.0,0.0,0.0,0.0,0.0,0.0,0.0,0.0,0.0,0.0,0.0,0.0,0.0,0.0,0.0,0.0,0.0,0.0,0.0,0.0,0.0,0.0,0.0,8.2806,8.2776,8.2717,8.2717,8.2687,0.0,8.2009,8.168,8.162,8.168,8.1033,7.9848,7.9178,7.9238,7.9758,7.9148,7.8867,7.8807,7.8807,7.8807,7.8807,7.8807,7.8807,7.8807,0.0,0.0,0.0,0.0,0.0,0.0,0.0,0.0,0.0,0.0,0.0,0.0,0.0,0.0,0.0,0.0,0.0,0.0,0.0,0.0,3.8901,3.8221,3.8182,3.8781,4.0038,4.0588,4.0358,3.9248,4.309,4.3,3.9338,4.3399,4.4666,4.3579,4.4766,4.3998,4.1723,4.0388,3.8691,3.7002,3.7982,3.7712,3.6635,3.6118,3.531,0.0,0.0,0.0,0.0,0.0,0.0,0.0,3.3275,3.4689,3.6044,3.5938,3.8401,4.1772,4.4676,4.8536,0.0,0.0,7.1188,0.0,0.0,0.0,0.0,0.0,0.0,0.0,0.0,0.0,0.0,0.0,0.0,0.0,0.0,0.0,0.0,0.0,0.0,0.0,0.0,0.0,0.0,0.0,0.0,0.0,0.0,0.0,0.0,8.2806,8.2806,8.2567,8.2009,8.2009,8.174,0.0,8.1063,8.0734,8.0237,8.0764,8.0853,8.0554,7.9878,7.9668,7.9788,7.9638,7.9267,7.8807,7.8807,7.8807,7.8807,7.8807,7.8807,7.8807,0.0,0.0,0.0,0.0,0.0,0.0,0.0,0.0,0.0,0.0,0.0,0.0,0.0,0.0,0.0,0.0,0.0,0.0,0.0,0.0,3.8781,3.8409,3.8721,3.9041,3.9391,3.972,3.955,3.8871,4.0956,4.1046,3.9448,4.312,4.4606,4.4307,4.5663,4.4796,4.2241,4.0576,3.8931,3.7481,3.8131,3.7623,3.6485,3.6417,3.5438,0.0,0.0,0.0,0.0,0.0,0.0,0.0,0.0,0.0,3.6058,3.6319,3.8571,4.2013,4.6869,0.0,0.0,6.8914,0.0,0.0,0.0,0.0,0.0,0.0,0.0,0.0,0.0,0.0,0.0,0.0,0.0,0.0,0.0,0.0,0.0,0.0,0.0,0.0,0.0,0.0,0.0,0.0,0.0,0.0,0.0,8.2806,8.2806,8.2806,8.2507,8.2129,8.18,8.15,8.1153,8.0794,8.0464,7.9986,7.9327,7.9686,7.9836,7.9806,7.9477,7.9327,7.9327,7.9327,7.9118,7.8807,7.8807,7.8807,7.8807,7.8807,7.8807,7.8807,0.0,0.0,0.0,0.0,0.0,0.0,0.0,0.0,0.0,0.0,0.0,0.0,0.0,0.0,0.0,0.0,0.0,0.0,0.0,0.0,0.0,3.873,3.9281,3.9571,3.9571,4.0127,4.0058,3.9391,3.9272,3.9819,0.0,4.3359,4.4696,4.5195,4.6292,4.5334,4.2741,4.0726,3.917,3.8071,3.8071,3.7443,3.6515,3.6656,3.5459,0.0,0.0,0.0,0.0,0.0,0.0,0.0,0.0,0.0,3.5908,3.7067,3.8204,4.0528,4.7336,5.397,6.1882,7.3954,7.9986,0.0,8.4275,0.0,0.0,0.0,0.0,0.0,0.0,0.0,0.0,0.0,0.0,0.0,0.0,0.0,0.0,0.0,0.0,0.0,0.0,0.0,0.0,0.0,0.0,0.0,8.2806,8.2806,8.2806,8.2806,8.2129,8.174,8.162,8.0853,8.0464,8.0434,7.9878,7.9297,7.8627,7.8627,7.8687,7.8807,7.8567,7.8519,7.8627,7.8489,7.846,7.846,7.8579,7.8627,7.8639,7.8759,7.8807,7.8807,0.0,0.0,0.0,0.0,0.0,0.0,0.0,0.0,0.0,0.0,0.0,0.0,0.0,0.0,0.0,0.0,0.0,0.0,0.0,0.0,0.0,4.0068,4.0217,4.0277,4.0277,4.0337,4.0058,3.9391,3.8811,0.0,0.0,0.0,0.0,4.4426,4.4636,4.326,4.0666,3.8652,3.7404,3.6763,3.6763,3.6635,3.6314,3.4651,0.0,0.0,0.0,0.0,0.0,0.0,0.0,0.0,0.0,0.0,0.0,3.7195,3.7516,3.8742,4.3738,5.5598,6.8331,0.0,8.0655,8.3617,0.0,0.0,0.0,0.0,0.0,0.0,0.0,0.0,0.0,0.0,0.0,0.0,0.0,0.0,0.0,0.0,0.0,0.0,0.0,0.0,0.0,0.0,0.0,0.0,8.2806,8.2806,8.2806,8.2806,8.2129,8.153,8.0943,7.9686,7.9058,7.9058,7.8986,7.8579,7.7933,7.7933,7.825,7.8747,7.7574,7.7394,7.7891,7.7305,7.7065,7.7125,7.7694,7.7933,7.8011,7.8579,7.8807,7.8807,0.0,0.0,0.0,0.0,0.0,0.0,0.0,0.0,0.0,0.0,0.0,0.0,0.0,0.0,0.0,0.0,0.0,0.0,0.0,0.0,0.0,3.926,3.9649,3.9849,3.9849,3.9849,3.952,3.8832,0.0,0.0,0.0,4.5045,4.5753,0.0,0.0,0.0,4.1814,3.8712,3.7255,3.6956,3.6246,3.6156,3.6314,0.0,0.0,0.0,0.0,0.0,0.0,0.0,0.0,0.0,0.0,0.0,0.0,0.0,3.7366,4.0328,4.8697,5.9023,6.9019,0.0,7.9967,8.2828,8.3557,0.0,0.0,0.0,0.0,0.0,0.0,0.0,0.0,0.0,0.0,0.0,0.0,0.0,0.0,0.0,0.0,0.0,0.0,0.0,0.0,0.0,0.0,8.2627,8.2249,8.2238,8.2069,8.168,8.1033,8.0554,8.0237,7.8908,7.8041,7.7664,7.7664,7.7514,7.7245,7.6886,7.7065,7.7634,7.7065,7.6976,7.7215,7.6898,7.6779,7.6886,7.7544,7.7801,7.7861,7.813,7.846,7.8747,0.0,0.0,0.0,0.0,0.0,0.0,0.0,0.0,0.0,0.0,0.0,0.0,0.0,0.0,0.0,0.0,0.0,0.0,0.0,0.0,0.0,3.864,3.9131,3.9391,3.9391,3.9242,3.8901,3.8401,0.0,0.0,4.5813,4.5973,4.7589,0.0,4.698,0.0,0.0,0.0,0.0,0.0,3.6028,3.5737,0.0,0.0,0.0,0.0,0.0,0.0,0.0,0.0,0.0,0.0,0.0,0.0,0.0,0.0,0.0,4.1135,5.1402,5.8993,6.5742,7.2997,7.7592,8.0764,0.0,0.0,0.0,0.0,0.0,0.0,0.0,0.0,0.0,0.0,0.0,0.0,0.0,0.0,0.0,0.0,0.0,0.0,0.0,0.0,0.0,0.0,0.0,8.2069,8.159,8.156,8.1321,8.0823,8.0147,7.9728,7.9548,7.8202,7.7215,7.6587,7.6736,7.6719,7.6557,7.5946,7.5796,7.6078,7.6228,7.6407,7.6557,7.6377,7.6317,7.6407,7.7215,7.7544,7.7574,7.7921,7.837,7.8747,0.0,0.0,0.0,0.0,0.0,0.0,0.0,0.0,0.0,0.0,0.0,0.0,0.0,0.0,3.9122,3.852,3.8431,3.8401,3.8341,3.8371,3.8691,3.9331,3.9391,0.0,3.9391,3.8781,3.8431,0.0,0.0,0.0,4.7219,4.7859,5.0893,5.5593,5.1055,4.7271,4.4027,0.0,0.0,0.0,0.0,0.0,0.0,0.0,0.0,0.0,0.0,0.0,0.0,0.0,0.0,0.0,0.0,0.0,0.0,0.0,0.0,0.0,4.6661,5.2199,5.8005,6.7119,7.2834,7.7053,0.0,0.0,0.0,0.0,0.0,0.0,0.0,0.0,0.0,0.0,0.0,0.0,0.0,0.0,0.0,0.0,0.0,0.0,0.0,0.0,0.0,0.0,0.0,8.0883,8.0853,8.0853,8.0823,8.0794,8.0147,7.9489,7.8867,7.7514,7.6557,7.5929,7.6527,7.6497,7.5916,7.5275,7.4616,7.4091,7.4736,7.5365,7.5916,7.5275,7.5006,7.5125,7.6377,7.6838,7.7006,7.828,7.8759,7.8807,0.0,0.0,0.0,0.0,0.0,0.0,0.0,0.0,0.0,0.0,0.0,0.0,0.0,3.8751,3.8482,3.7823,3.7413,3.7182,3.7182,3.7554,3.8063,3.8721,3.9161,3.9391,3.9391,3.8751,0.0,0.0,0.0,3.9777,4.4825,4.5883,4.8966,5.3486,5.0145,4.7739,4.5892,4.0876,0.0,0.0,0.0,0.0,0.0,0.0,0.0,0.0,0.0,0.0,0.0,0.0,0.0,0.0,0.0,0.0,0.0,0.0,0.0,3.917,4.4317,4.8794,5.382,6.1403,6.6775,7.1038,7.4347,7.758,7.9944,0.0,0.0,0.0,0.0,0.0,0.0,0.0,0.0,0.0,0.0,0.0,0.0,0.0,0.0,0.0,0.0,0.0,0.0,0.0,0.0,0.0,8.0177,8.0147,7.9956,7.9537,7.8878,7.8011,7.6963,7.6036,7.5258,7.4629,7.4839,7.4599,7.3984,7.418,7.3881,7.3266,7.3522,7.3762,7.3984,7.418,7.4257,7.4407,7.5707,7.6467,7.6838,7.7335,7.8071,7.8747,0.0,0.0,0.0,0.0,0.0,0.0,0.0,0.0,0.0,0.0,0.0,0.0,0.0,0.0,3.7793,3.7165,3.6934,3.6725,3.6523,3.7075,3.7704,3.8371,3.8841,3.9161,3.9391,3.8512,0.0,0.0,0.0,0.0,0.0,4.4596,4.7519,5.1397,4.8566,4.7788,0.0,0.0,0.0,3.9828,0.0,0.0,3.8999,0.0,0.0,0.0,0.0,0.0,0.0,0.0,0.0,0.0,0.0,0.0,0.0,0.0,0.0,0.0,4.2641,0.0,0.0,0.0,6.1238,6.4799,7.0306,0.0,7.6514,0.0,0.0,0.0,0.0,0.0,0.0,0.0,0.0,0.0,0.0,0.0,0.0,0.0,0.0,0.0,0.0,0.0,0.0,0.0,0.0,0.0,7.916,7.892,7.8591,7.816,7.7293,7.6425,7.5557,7.4676,7.4018,7.3582,7.3791,7.3552,7.2907,7.3373,7.3193,7.2565,7.2309,7.2488,7.2937,7.3373,7.3702,7.4001,7.5138,7.6048,7.6826,7.7065,7.7861,7.8759,0.0,0.0,0.0,0.0,0.0,0.0,0.0,0.0,0.0,0.0,0.0,0.0,0.0,0.0,0.0,3.6613,3.7075,3.7157,3.6583,3.7105,3.7725,3.8371,3.8431,3.8721,3.9361,3.8084,0.0,0.0,0.0,0.0,0.0,0.0,4.685,4.9818,4.6651,4.7369,5.0649,0.0,4.4396,4.2941,0.0,3.8691,4.0876,0.0,0.0,0.0,4.664,4.5702,0.0,0.0,0.0,0.0,0.0,0.0,0.0,0.0,0.0,0.0,0.0,0.0,0.0,0.0,0.0,0.0,6.8196,0.0,7.1664,0.0,0.0,0.0,0.0,0.0,0.0,0.0,0.0,0.0,0.0,0.0,0.0,0.0,0.0,0.0,0.0,0.0,0.0,0.0,0.0,7.7753,7.7753,7.7155,7.6779,7.6719,7.5527,7.4886,7.4826,7.3522,7.2877,7.2877,7.3522,7.3492,7.2847,7.2847,7.2505,7.1833,7.1188,7.1621,7.2847,7.2847,7.3283,7.3941,7.4616,7.5647,7.6886,7.7514,7.822,7.8878,0.0,0.0,0.0,0.0,0.0,0.0,0.0,0.0,0.0,0.0,0.0,0.0,0.0,0.0,3.8071,3.7892,3.8042,3.7862,3.7195,3.7764,3.8221,3.8401,3.8862,3.8981,3.8691,3.7853,3.7195,0.0,3.6267,3.6985,3.882,4.0337,0.0,0.0,4.4117,4.3998,4.3928,4.1394,0.0,0.0,3.9879,4.0896,0.0,0.0,0.0,0.0,0.0,4.8865,0.0,0.0,4.6939,4.3439,0.0,0.0,0.0,0.0,0.0,0.0,4.0098,0.0,0.0,0.0,0.0,0.0,0.0,0.0,0.0,6.8627,0.0,0.0,0.0,0.0,0.0,0.0,0.0,0.0,0.0,0.0,0.0,0.0,0.0,0.0,0.0,0.0,0.0,0.0,7.7305,7.7095,7.7095,7.6916,7.6168,7.4749,7.4826,7.4437,7.3462,7.2595,7.2176,7.2176,7.2372,7.2086,7.1487,7.1966,7.1816,7.1158,7.0979,7.1128,7.1487,7.1966,7.2565,7.3253,7.3911,7.5258,7.6808,7.7006,7.7813,7.8837,0.0,0.0,0.0,0.0,0.0,0.0,0.0,0.0,0.0,0.0,0.0,0.0,0.0,0.0,3.832,3.7998,3.8251,3.8131,3.7456,3.7764,3.8093,3.8401,3.8781,3.8922,3.8811,3.7883,3.7216,0.0,3.5938,3.587,3.6618,3.7426,0.0,0.0,0.0,0.0,0.0,0.0,0.0,0.0,4.1893,0.0,0.0,4.7927,4.9643,0.0,0.0,0.0,5.4059,5.3935,5.1229,0.0,0.0,0.0,0.0,0.0,0.0,0.0,0.0,0.0,0.0,0.0,0.0,0.0,5.3324,5.5897,5.8552,0.0,0.0,0.0,0.0,0.0,0.0,0.0,0.0,0.0,0.0,0.0,0.0,0.0,0.0,0.0,0.0,0.0,0.0,7.6006,7.5749,7.548,7.5211,7.5181,7.4642,7.3522,7.3599,7.327,7.2505,7.1816,7.1487,7.1504,7.1773,7.1564,7.0949,7.1876,7.1787,7.0919,7.1188,7.1158,7.0949,7.1607,7.2295,7.2967,7.3642,7.5108,7.6838,7.7125,7.7891,7.8819,0.0,0.0,0.0,0.0,0.0,0.0,0.0,0.0,0.0,0.0,3.8182,3.7764,0.0,0.0,0.0,0.0,3.8302,3.8212,3.7545,3.7516,3.7823,3.8482,3.852,3.8721,3.9182,3.8024,3.7336,0.0,0.0,0.0,0.0,0.0,0.0,0.0,0.0,0.0,0.0,0.0,0.0,4.1643,4.4417,4.735,0.0,0.0,5.6149,0.0,5.88,5.9145,5.8517,5.6838,5.3773,0.0,0.0,0.0,0.0,0.0,4.0358,0.0,0.0,0.0,0.0,0.0,0.0,0.0,5.2546,5.3803,5.5023,0.0,0.0,0.0,0.0,0.0,0.0,0.0,0.0,0.0,0.0,0.0,0.0,0.0,0.0,0.0,0.0,7.4676,7.4676,7.4676,7.4138,7.3462,7.2727,7.2817,7.2817,7.2668,7.2176,7.1863,7.1803,7.1188,7.0889,7.0919,7.1487,7.1474,7.0949,7.2129,7.2009,7.0949,7.1623,7.1547,7.1068,7.1727,7.2355,7.2967,7.3732,7.5151,7.6886,7.7544,7.822,7.8878,0.0,0.0,0.0,0.0,0.0,0.0,0.0,0.0,0.0,0.0,0.0,0.0,0.0,0.0,0.0,0.0,4.0068,3.8922,3.8251,3.8191,3.8512,3.9191,3.9191,3.8772,3.7815,3.7516,3.6887,3.587,0.0,0.0,0.0,0.0,0.0,0.0,0.0,0.0,0.0,0.0,0.0,4.1733,4.5424,0.0,5.5114,5.7466,5.9428,6.0998,6.1373,6.2091,6.2241,0.0,5.5359,5.2564,0.0,0.0,0.0,0.0,0.0,0.0,0.0,0.0,0.0,0.0,0.0,0.0,4.726,4.8397,5.0485,0.0,5.4794,0.0,0.0,0.0,0.0,0.0,0.0,0.0,0.0,0.0,0.0,0.0,0.0,0.0,0.0,7.3283,7.3283,7.3283,7.3176,7.2565,7.1351,7.2309,7.2398,7.1338,7.1697,7.1653,7.1098,7.0979,7.0889,7.0889,7.1038,7.1038,7.0919,7.1188,7.1158,7.0949,7.1623,7.1833,7.1773,7.2445,7.2787,7.3027,7.421,7.5557,7.6886,7.7544,7.822,7.8819,0.0,0.0,0.0,0.0,0.0,0.0,0.0,0.0,0.0,0.0,0.0,0.0,0.0,0.0,0.0,0.0,0.0,3.8263,0.0,3.7913,3.8054,3.8374,3.8404,3.8084,3.7426,3.7105,3.6626,3.5998,0.0,0.0,0.0,0.0,0.0,0.0,0.0,0.0,0.0,0.0,4.0017,4.3788,4.8734,0.0,5.7483,6.0416,6.278,6.4485,6.4156,6.4665,6.459,5.8634,5.7094,0.0,0.0,4.8517,4.8297,0.0,4.4805,4.4007,0.0,0.0,0.0,4.4267,0.0,0.0,0.0,4.707,4.8162,5.1181,5.0909,0.0,0.0,0.0,0.0,0.0,0.0,0.0,0.0,0.0,0.0,0.0,0.0,0.0,0.0,7.1158,7.0949,7.0949,7.0949,7.0799,7.047,7.1098,7.1278,7.0919,7.1218,7.1248,7.0889,7.0889,7.0889,7.0889,7.0889,7.0889,7.0919,7.1248,7.1398,7.1427,7.2116,7.2385,7.2445,7.3133,7.3402,7.3492,7.4497,7.5677,7.6886,7.7544,7.822,7.8807,0.0,0.0,0.0,0.0,0.0,0.0,0.0,0.0,0.0,4.1706,0.0,0.0,0.0,0.0,0.0,0.0,0.0,0.0,0.0,0.0,0.0,3.7396,3.7516,3.7426,3.7037,3.6686,3.6374,3.6104,3.5699,0.0,0.0,0.0,0.0,0.0,0.0,0.0,0.0,0.0,0.0,4.692,0.0,5.6064,5.8218,6.254,6.5054,6.6266,6.634,6.6729,6.6206,5.9725,0.0,6.0206,5.2929,5.1612,0.0,0.0,0.0,0.0,0.0,0.0,0.0,0.0,0.0,4.729,0.0,0.0,0.0,4.9316,0.0,0.0,0.0,0.0,0.0,0.0,0.0,0.0,0.0,0.0,0.0,0.0,0.0,0.0,0.0,6.884,6.8525,6.8794,6.8585,6.8764,6.9558,6.9738,7.0037,7.053,7.053,7.059,7.0739,7.0693,7.0753,7.0889,7.0889,7.0889,7.0919,7.1577,7.1893,7.1953,7.2744,7.3086,7.3146,7.3821,7.4108,7.4168,7.4826,7.5707,7.6706,7.7365,7.8041,7.8609,3.5729,3.6148,0.0,0.0,0.0,0.0,0.0,0.0,3.857,3.9829,4.2726,0.0,0.0,0.0,0.0,0.0,0.0,0.0,4.3289,0.0,0.0,3.7396,3.7973,3.7473,3.575,3.6246,3.5925,3.4735,3.5258,3.5168,0.0,0.0,0.0,0.0,3.3552,0.0,0.0,0.0,4.3579,0.0,5.5722,5.7154,0.0,6.2735,6.4336,6.3901,6.6745,6.7838,6.7329,0.0,6.2569,6.2,0.0,5.5162,0.0,0.0,0.0,0.0,0.0,0.0,0.0,0.0,5.0661,0.0,0.0,0.0,4.9194,4.7197,0.0,0.0,0.0,0.0,0.0,0.0,0.0,0.0,0.0,0.0,0.0,0.0,0.0,0.0,0.0,0.0,6.6819,6.8002,6.6999,6.6879,6.8167,6.878,6.9153,6.9213,6.9213,6.9482,7.0097,7.0035,7.0304,7.0889,7.0889,7.0889,7.0919,7.1577,7.1893,7.1983,7.3223,7.3791,7.3821,7.4497,7.4796,7.4856,7.5527,7.5886,7.6078,7.6706,7.7335,7.7921,0.0,0.0,0.0,0.0,3.7695,0.0,0.0,0.0,4.165,4.122,0.0,0.0,0.0,0.0,0.0,0.0,0.0,0.0,0.0,0.0,0.0,0.0,0.0,0.0,0.0,3.7285,3.6567,3.5655,3.5946,3.5527,0.0,0.0,0.0,0.0,3.5797,0.0,4.0325,0.0,0.0,0.0,0.0,0.0,0.0,6.4186,6.6999,6.6775,6.8511,6.8676,6.7449,0.0,6.3003,0.0,0.0,0.0,0.0,0.0,0.0,0.0,0.0,0.0,0.0,0.0,0.0,0.0,0.0,0.0,4.7736,0.0,0.0,0.0,0.0,0.0,0.0,0.0,0.0,0.0,0.0,0.0,0.0,0.0,0.0,0.0,0.0,0.0,0.0,0.0,6.465,6.4889,6.6191,6.7643,6.86,6.9004,6.9004,6.9303,6.9977,6.9961,7.029,7.0889,7.0889,7.0889,7.0919,7.1188,7.1517,7.1923,7.2491,7.3163,7.3881,7.3791,7.3988,7.4347,7.4629,7.5228,7.5946,7.6168,7.6916,7.7801,0.0,0.0,0.0,0.0,0.0,0.0,3.6528,3.9542,0.0,0.0,0.0,0.0,4.9697,4.8834,0.0,0.0,0.0,4.7459,0.0,0.0,4.1445,0.0,0.0,0.0,0.0,0.0,3.7366,3.6216,3.6395,3.5925,3.4787,0.0,0.0,0.0,0.0,4.0834,4.3768,0.0,0.0,5.3204,5.6868,5.8514,5.9444,6.5577,6.8585,6.9572,6.9887,6.9379,6.8047,6.459,6.4066,0.0,6.1746,0.0,0.0,0.0,0.0,0.0,5.3264,0.0,0.0,0.0,0.0,0.0,0.0,0.0,0.0,0.0,0.0,0.0,0.0,0.0,0.0,0.0,0.0,0.0,0.0,0.0,0.0,0.0,0.0,0.0,0.0,0.0,0.0,6.1866,6.1327,6.1986,6.4351,6.5877,6.7194,6.8405,6.8435,6.8764,6.9439,6.9439,6.9858,7.0649,7.0649,7.0739,7.0919,7.1098,7.1427,7.1923,7.2102,7.2714,7.3582,7.3086,7.3193,7.3642,7.3821,7.448,7.5377,7.5557,7.6425,7.7514,0.0,3.7823,0.0,0.0,0.0,0.0,0.0,0.0,0.0,0.0,0.0,0.0,0.0,0.0,0.0,0.0,0.0,5.3216,5.379,0.0,4.2263,0.0,0.0,0.0,0.0,0.0,0.0,3.5541,3.6186,3.6156,3.5481,0.0,0.0,0.0,0.0,4.4187,4.9138,5.0511,5.626,6.4426,6.3932,6.64,6.9991,0.0,6.7522,7.0769,7.0217,0.0,0.0,6.7553,6.6864,0.0,0.0,0.0,0.0,0.0,0.0,0.0,0.0,0.0,0.0,0.0,0.0,0.0,0.0,0.0,5.0529,0.0,0.0,0.0,0.0,0.0,0.0,0.0,0.0,0.0,0.0,0.0,0.0,0.0,0.0,0.0,0.0,0.0,0.0,5.9039,5.6885,5.7706,6.2884,6.3227,6.441,6.6969,6.7074,6.7373,6.8047,6.8047,6.8736,7.0037,7.0037,7.032,7.0919,7.1577,7.1893,7.1953,7.2595,7.2877,7.2937,7.2907,7.2907,7.2997,7.3642,7.3911,7.4031,7.4676,7.5736,7.6838,0.0,0.0,0.0,0.0,0.0,0.0,0.0,3.6906,0.0,0.0,0.0,0.0,0.0,0.0,6.1906,0.0,0.0,5.9338,5.6931,5.2737,0.0,0.0,0.0,4.4574,0.0,0.0,0.0,0.0,0.0,0.0,3.7413,3.7652,0.0,0.0,0.0,4.686,0.0,0.0,0.0,0.0,0.0,6.5997,6.899,0.0,0.0,7.0889,7.0679,7.0051,0.0,6.8555,6.7448,6.6251,6.5817,6.462,6.3213,6.2271,6.1569,0.0,0.0,0.0,6.2885,5.9594,0.0,0.0,0.0,0.0,0.0,0.0,0.0,0.0,0.0,0.0,0.0,0.0,0.0,0.0,0.0,0.0,0.0,0.0,0.0,0.0,0.0,0.0,0.0,5.4341,5.2893,5.4,0.0,6.1238,6.3243,6.4964,6.6326,6.7313,6.7987,6.7987,6.8451,6.9333,6.9798,7.0097,7.0336,7.0949,7.1248,7.1248,7.1487,7.1846,7.2206,7.1757,7.1846,7.2265,7.2491,7.2834,7.3373,7.4497,7.5437,7.6317,3.6152,0.0,0.0,0.0,0.0,0.0,0.0,0.0,0.0,0.0,5.2397,0.0,6.4708,0.0,6.6672,0.0,6.7822,6.4397,5.8758,5.653,0.0,5.2543,4.9342,0.0,0.0,0.0,0.0,0.0,0.0,3.9697,3.9457,3.899,3.9469,0.0,0.0,0.0,5.1905,0.0,6.0386,0.0,0.0,6.6422,0.0,0.0,6.9611,7.062,0.0,7.038,6.9602,6.9153,6.8136,6.7089,6.7284,6.6206,6.4859,6.5039,6.4515,6.4036,6.4575,6.5353,0.0,0.0,6.1449,0.0,0.0,0.0,0.0,0.0,0.0,0.0,0.0,0.0,0.0,0.0,0.0,0.0,0.0,0.0,0.0,0.0,0.0,0.0,0.0,0.0,4.7309,4.9254,4.8574,5.023,0.0,0.0,6.1238,6.3917,6.5712,6.6984,6.7643,6.7643,6.7972,6.8645,6.9319,6.9768,7.0007,7.062,7.0889,7.0889,7.0889,7.1158,7.1517,7.1068,7.1158,7.1577,7.2056,7.2385,7.2714,7.4048,7.5258,7.6377,0.0,0.0,0.0,0.0,3.4301,0.0,0.0,0.0,4.6485,0.0,5.4256,6.0999,6.4711,6.7587,6.9969,7.1825,7.1841,0.0,5.9808,5.8425,0.0,0.0,4.9178,4.9089,4.982,0.0,0.0,0.0,0.0,0.0,4.1553,4.0148,4.0217,0.0,4.5544,0.0,5.2606,5.8577,6.3797,6.8092,6.8715,6.7889,6.626,6.5573,0.0,6.9766,7.0444,7.0718,7.062,6.9423,6.9004,6.8884,6.8241,6.8047,6.7928,6.7284,6.8016,6.8645,6.6729,6.6221,6.6056,6.5353,0.0,0.0,0.0,0.0,6.0851,0.0,0.0,0.0,0.0,0.0,0.0,0.0,0.0,0.0,0.0,0.0,0.0,0.0,0.0,0.0,0.0,4.4256,4.3389,4.4097,4.4097,4.6371,0.0,0.0,5.8454,6.3558,6.5203,6.6311,6.6984,6.7014,6.7313,6.7958,6.8645,6.9333,6.9977,7.062,7.0889,7.0889,7.0889,7.0889,7.0889,7.0889,7.0889,7.1038,7.2309,7.2445,7.2102,7.3479,7.5168,7.6916,3.4418,3.3187,3.2247,0.0,3.2436,3.3498,0.0,0.0,0.0,0.0,6.0096,6.6862,7.2124,7.3399,7.3693,7.3294,7.0879,0.0,0.0,0.0,0.0,6.0135,5.7597,5.5721,5.4651,5.1828,0.0,4.7156,0.0,0.0,4.4237,4.1962,4.1343,4.2281,0.0,0.0,5.2606,5.8577,6.4066,6.8714,6.8444,6.7753,0.0,0.0,6.5188,6.5306,6.6909,6.835,6.9453,6.9123,6.9004,6.8974,6.8794,6.8734,6.8704,6.8525,6.9064,6.9618,6.9109,6.9303,6.9363,6.824,6.6325,6.4276,0.0,0.0,0.0,0.0,0.0,0.0,0.0,0.0,0.0,0.0,0.0,0.0,0.0,0.0,0.0,0.0,0.0,0.0,0.0,4.1285,4.0896,4.2052,4.1225,0.0,0.0,0.0,0.0,5.9534,6.3752,6.6311,6.6984,6.7014,6.7104,6.7284,6.8435,6.9093,6.9303,7.041,7.0889,7.0889,7.0889,7.0889,7.0889,7.0889,7.0889,7.0949,7.1278,7.1936,7.2804,7.4138,7.5557,7.6916,3.3183,0.0,0.0,3.3158,0.0,0.0,4.025,0.0,0.0,5.6612,6.3961,0.0,7.1635,7.3957,7.4873,7.3553,7.1431,0.0,0.0,0.0,0.0,6.1993,6.0403,5.9365,5.8893,5.5398,0.0,5.1441,0.0,0.0,4.5663,4.2462,4.1463,4.253,0.0,4.8386,0.0,5.8262,6.3248,6.6448,6.586,0.0,0.0,6.3029,6.2513,6.2329,6.3429,6.575,6.8342,6.8826,6.9183,6.9439,6.9439,6.9439,6.9482,6.9752,7.0081,7.038,7.038,7.0649,7.0739,7.0021,6.8974,6.7717,6.6056,6.5727,6.5338,0.0,0.0,0.0,0.0,0.0,0.0,0.0,0.0,0.0,0.0,0.0,0.0,0.0,0.0,0.0,4.1035,3.873,3.8033,3.9966,0.0,0.0,0.0,0.0,0.0,5.759,6.2795,6.5757,6.6116,6.7298,6.7583,6.7014,6.8345,6.9004,6.9034,7.032,7.0769,7.05,7.0799,7.0889,7.0889,7.0889,7.0889,7.0889,7.0889,7.1906,7.3432,7.418,7.5467,7.6838,0.0,0.0,0.0,0.0,0.0,0.0,0.0,5.0434,0.0,5.9313,0.0,7.0099,6.8026,7.1915,7.4191,0.0,0.0,6.9869,0.0,6.6204,6.4806,6.046,6.0638,6.1215,6.197,5.8379,0.0,0.0,0.0,0.0,4.5971,4.2252,4.1194,4.25,0.0,0.0,0.0,5.7871,6.1776,0.0,6.2369,6.1219,5.9817,5.9573,5.9797,6.0281,6.0595,6.3549,6.7376,6.8124,6.8985,6.9711,6.9454,6.936,6.9478,6.9996,7.0144,7.0193,7.0452,7.0547,7.0596,7.0824,7.071,7.0284,6.9345,6.8487,6.7886,6.7971,6.5278,0.0,0.0,0.0,0.0,0.0,0.0,0.0,0.0,0.0,0.0,0.0,0.0,0.0,0.0,0.0,0.0,0.0,0.0,0.0,0.0,0.0,0.0,5.6376,6.1688,0.0,6.5263,0.0,6.8375,6.7403,6.8495,6.9064,6.9183,7.029,7.053,7.0157,7.0679,7.0889,7.0889,7.0889,7.0889,7.0919,7.1009,7.2146,7.3762,7.3851,7.5061,7.6706,0.0,0.0,0.0,0.0,0.0,4.7015,5.5482,5.6773,5.7787,6.0584,6.7633,0.0,7.1109,7.1873,7.217,7.1421,6.9669,0.0,0.0,0.0,0.0,6.435,6.3948,6.3022,6.1394,5.8222,5.5419,0.0,0.0,0.0,4.4606,4.2292,4.1652,4.25,0.0,0.0,5.3406,5.7844,0.0,6.0682,6.0907,6.0801,6.0395,5.9285,5.8667,5.8632,6.0574,6.379,6.6907,6.5508,6.6549,6.8159,6.6549,6.6034,6.6062,6.6174,6.6202,6.6551,6.8151,6.8586,6.8969,7.0501,6.9731,6.8798,6.964,6.8507,6.7385,6.79,6.7449,6.5877,6.2257,0.0,0.0,0.0,0.0,0.0,0.0,0.0,0.0,0.0,0.0,0.0,0.0,0.0,0.0,0.0,0.0,0.0,0.0,0.0,0.0,0.0,5.8726,0.0,0.0,0.0,6.86,6.9468,6.9153,6.9273,6.9828,7.0067,7.0366,7.0739,7.0859,7.0889,7.0889,7.0889,7.0889,7.0949,7.1517,7.2265,7.3146,7.3702,7.4809,7.6198,0.0,0.0,0.0,0.0,0.0,0.0,0.0,6.1403,0.0,6.4213,6.717,6.8977,6.8297,6.9644,7.0486,7.0207,6.8966,6.8224,6.8224,6.7442,6.6887,6.6614,6.553,0.0,6.3963,0.0,5.8199,5.4932,0.0,0.0,0.0,0.0,4.0726,4.1444,0.0,4.727,0.0,0.0,0.0,5.7713,5.8494,5.8764,5.8756,5.8738,5.8535,5.8492,5.99,6.2232,6.4621,6.4307,6.5074,6.6031,6.5079,6.4797,6.4797,6.4797,6.4983,6.5409,6.6353,6.6597,6.7048,6.8956,6.779,6.6612,6.8227,6.7351,6.626,6.655,6.7051,6.6296,6.2331,5.7603,0.0,0.0,0.0,0.0,0.0,0.0,0.0,0.0,0.0,0.0,0.0,0.0,0.0,0.0,0.0,0.0,0.0,0.0,0.0,0.0,0.0,0.0,0.0,0.0,0.0,6.8975,6.9349,6.9498,6.9498,7.0187,7.026,6.9961,7.062,7.0709,7.044,7.044,7.062,7.0949,7.1248,7.1787,7.2445,7.3133,7.4001,7.5048,0.0,4.1016,0.0,0.0,5.2077,0.0,0.0,6.4815,6.7873,6.754,6.7012,6.6455,6.5908,6.7993,6.9406,6.9406,6.9004,6.8901,6.9205,6.8045,6.7467,6.7794,6.6413,6.579,6.607,6.3851,6.0504,0.0,0.0,0.0,0.0,0.0,0.0,0.0,0.0,0.0,0.0,0.0,5.2817,5.5315,5.6529,5.7085,5.7305,5.8309,5.871,5.8761,5.9307,6.0418,6.1767,6.2829,6.3539,6.3895,6.3485,6.336,6.3333,6.3225,6.3487,6.3894,6.4307,6.4415,6.4906,6.6968,6.5614,6.4362,6.6557,6.5806,6.4864,6.5541,6.6249,6.5892,6.3019,6.013,0.0,0.0,0.0,0.0,0.0,0.0,0.0,0.0,0.0,0.0,0.0,0.0,0.0,0.0,0.0,0.0,0.0,0.0,0.0,0.0,0.0,6.0206,6.3767,0.0,6.9259,0.0,6.9409,6.9588,6.9243,6.9961,6.9812,6.9064,7.0051,7.0306,7.0007,7.0127,7.047,7.0889,7.0889,7.1308,7.1953,7.2505,7.3103,7.3851,0.0,0.0,0.0,0.0,0.0,0.0,0.0,6.6738,6.8508,6.8483,6.8808,6.9052,6.9002,6.9245,6.9406,6.9406,6.9356,6.913,6.8701,6.8525,6.8271,6.7819,6.7166,6.6143,6.4718,6.309,5.9026,0.0,0.0,0.0,0.0,0.0,0.0,0.0,0.0,0.0,0.0,5.0856,5.3257,5.4802,5.6374,5.733,5.7876,5.8459,5.871,5.8761,5.9307,5.9297,5.9135,5.9756,6.1125,6.227,6.0526,5.9959,5.9858,5.9376,5.9256,5.9678,6.1393,6.1861,6.2441,6.4862,6.3614,6.2534,6.5536,6.438,6.3453,6.6251,6.6443,6.5622,6.4096,6.263,6.0459,0.0,0.0,0.0,0.0,0.0,0.0,0.0,0.0,0.0,0.0,0.0,0.0,0.0,0.0,0.0,0.0,0.0,0.0,4.8547,0.0,5.8647,6.3123,6.6521,0.0,7.062,6.9602,6.9379,6.9858,6.875,6.8541,6.9004,6.9123,6.9482,7.0037,7.059,7.0859,7.0889,7.0889,7.1308,7.1923,7.1983,7.2415,7.3086,0.0,0.0,0.0,0.0,0.0,0.0,0.0,6.8221,6.908,6.908,6.9255,6.9406,6.9406,6.9406,6.9406,6.9406,6.9406,6.9306,6.908,6.8776,6.85,6.8274,6.7464,6.6359,6.5003,6.375,6.0138,0.0,0.0,0.0,0.0,0.0,0.0,0.0,0.0,4.5648,4.8105,5.0685,5.2877,5.4748,5.6351,5.7355,5.7951,5.8485,5.871,5.8761,5.9307,5.9357,5.9207,5.9433,5.9338,5.9094,5.865,5.8303,5.7957,5.7738,5.7932,5.8372,5.9148,5.9346,5.9931,6.2368,6.0854,5.9789,6.3605,6.3139,6.2588,6.4896,6.6037,6.643,6.5907,6.4395,6.272,0.0,0.0,0.0,0.0,0.0,0.0,0.0,0.0,0.0,0.0,0.0,0.0,0.0,0.0,0.0,0.0,0.0,0.0,4.9303,0.0,5.721,6.3048,6.5967,6.8211,6.9752,6.9243,6.9123,6.9379,6.8824,6.875,6.9004,6.9004,6.9379,6.9977,6.9812,7.0201,7.0889,7.0889,7.1068,7.1338,7.1743,7.2072,7.2385,5.4393,0.0,5.7179,0.0,6.3274,6.4605,6.8274,6.9155,6.9406,6.9406,6.9406,6.9406,6.9406,6.9406,6.9406,6.9406,6.9406,6.9406,6.9406,6.9029,6.8851,6.8851,6.7819,0.0,6.5559,6.4517,6.1353,5.5957,5.4182,0.0,0.0,0.0,0.0,0.0,4.4809,4.7057,4.993,5.1393,5.3399,5.5659,5.6602,5.7455,5.8177,5.856,5.8786,5.8987,5.9357,5.9408,5.9282,5.9433,5.8485,5.7405,5.8152,5.7857,5.7255,5.7255,5.743,5.765,5.765,5.765,5.8087,5.998,5.9117,5.8727,6.2288,6.2748,6.292,6.4726,6.6106,6.7014,6.7014,6.5847,6.4635,0.0,0.0,0.0,0.0,0.0,0.0,0.0,0.0,4.4885,4.1594,0.0,0.0,0.0,0.0,0.0,0.0,0.0,0.0,0.0,0.0,0.0,0.0,6.5293,6.7388,6.8704,6.8704,6.8704,6.8704,6.8704,6.8794,6.9004,6.9213,6.9453,6.9708,6.9602,6.9991,7.0649,7.0829,7.0889,7.0949,7.1427,7.1623,7.1697,5.8654,6.0763,6.3124,6.7041,6.817,6.8726,6.9306,6.9406,6.9406,6.9406,6.9406,6.9406,6.9406,6.9406,6.9406,6.9406,6.9406,6.9406,6.9406,6.9381,6.9381,0.0,0.0,6.7267,6.6137,6.5166,6.2171,5.6979,0.0,0.0,4.7027,0.0,4.5581,4.6242,4.8444,5.0415,5.2118,5.3206,5.529,5.7801,5.723,5.7663,5.8685,5.871,5.9012,5.9483,5.9483,5.9156,5.8786,5.9332,5.878,5.8077,5.9131,5.8755,5.7901,5.7901,5.7455,5.701,5.701,5.701,5.7154,5.7794,5.8815,6.0137,6.1976,6.3359,6.4774,6.657,6.6983,6.7014,6.7014,6.6984,6.6116,6.3527,0.0,0.0,0.0,0.0,0.0,0.0,4.8678,4.6961,4.3698,0.0,0.0,0.0,0.0,0.0,0.0,0.0,0.0,4.8218,5.2797,0.0,6.109,6.4381,6.67,6.8017,6.8017,6.8017,6.8017,6.8017,6.8361,6.9034,6.9708,6.9618,6.9123,7.038,7.053,7.0067,7.0679,7.0889,7.0889,7.0919,7.0919,7.1009,6.1818,6.4023,6.5911,6.7518,6.855,6.9205,6.9381,6.9406,6.9406,6.9406,6.9406,6.9406,6.9406,6.9406,6.9406,0.0,6.9406,6.9406,0.0,6.9406,6.923,6.8876,6.8196,6.7091,6.5584,6.4147,6.1861,5.8685,0.0,0.0,0.0,4.8836,4.8876,4.9197,5.182,5.3702,5.497,5.6093,5.7298,5.8434,5.8234,5.8585,5.9257,5.9257,5.9357,5.9483,5.9483,5.9382,5.9232,5.9012,5.8736,5.8485,5.8836,5.8183,5.7305,5.7305,5.7136,5.691,5.6552,5.6728,5.7035,5.7255,5.8241,5.9729,6.1884,6.4324,6.6307,6.6877,6.7014,6.7014,6.7014,6.7014,6.6296,6.4066,0.0,0.0,0.0,0.0,0.0,0.0,0.0,4.4307,0.0,4.313,0.0,0.0,0.0,0.0,0.0,0.0,0.0,0.0,5.5239,0.0,6.3049,6.5024,6.667,6.7987,6.7523,6.7313,6.7343,6.8271,6.8541,6.8361,6.9019,6.9183,6.9034,6.9453,6.9722,7.0021,7.0649,7.0889,7.0889,7.0889,7.0889,7.0919,6.3927,6.5911,6.7467,6.802,6.8826,6.9406,6.9406,6.9406,6.9406,6.9406,6.9406,6.9406,6.9406,6.9406,0.0,6.9406,6.9406,6.9406,6.9406,6.9406,6.9155,6.8625,6.8095,6.7015,6.5354,0.0,0.0,5.9809,5.732,5.4757,5.2219,5.2236,5.2485,5.2962,5.4938,5.6319,5.7179,5.7675,5.8102,5.8384,5.8384,5.8604,5.8905,5.9131,5.9332,5.9483,5.9483,5.9357,5.9156,5.8811,5.856,5.8384,5.8384,5.7757,5.7035,5.728,5.7029,5.6677,5.6552,5.6602,5.6753,5.6935,5.8471,6.0654,6.3482,6.5619,6.7014,6.7014,6.7014,6.7014,6.7014,6.7014,6.6505,6.4994,0.0,6.3348,0.0,0.0,0.0,0.0,0.0,0.0,0.0,4.5783,0.0,0.0,0.0,0.0,0.0,0.0,0.0,5.3845,5.738,0.0,6.4351,6.5473,6.655,6.7613,6.7194,6.7254,6.7777,6.8615,6.89,6.875,6.9199,6.9093,6.8645,6.9169,6.9453,6.9646,7.056,7.0889,7.0889,7.0889,7.0889,7.0889,6.5132,6.6664,0.0,0.0,6.9029,0.0,6.9406,6.9406,6.9406,6.9406,6.9406,6.9406,6.9406,6.9406,6.9406,6.9406,0.0,0.0,0.0,6.9356,6.9127,6.8575,6.8045,6.6965,6.5279,6.4228,6.2596,6.0292,5.7198,5.5917,5.6351,5.5867,5.6168,5.7136,5.775,5.8303,5.871,5.8227,5.8001,5.8001,5.8001,5.8001,5.8077,5.8579,5.9081,5.9483,5.9483,5.9182,5.8761,5.871,5.8384,5.8001,5.7976,5.7531,5.7161,5.77,5.7097,5.6351,5.6828,5.6694,5.6552,5.7013,5.9475,6.2706,6.6184,6.7014,6.7014,6.7014,6.7014,6.7014,6.7014,6.7014,6.6759,6.5981,6.4755,6.2241,5.7543,0.0,0.0,0.0,0.0,0.0,0.0,4.9662,5.0667,0.0,0.0,0.0,0.0,0.0,5.3653,5.5491,5.9325,6.2586,6.5114,6.5757,6.64,6.7074,6.7014,6.7687,6.8944,6.8974,6.9319,6.9858,6.9947,6.9259,6.8167,6.9409,6.9558,6.9123,7.032,7.0799,7.0829,7.0829,7.0859,7.0889,0.0,0.0,6.797,6.85,6.9029,6.9406,6.9406,6.9406,6.9406,6.9406,6.9406,6.9406,6.9406,6.9406,6.9406,6.9406,6.9406,6.9406,6.9406,6.9027,6.855,6.802,6.7489,6.6409,6.4726,6.4048,6.2596,6.0292,5.9106,5.8378,5.8108,5.7983,5.8058,5.8334,5.888,5.9182,5.9307,5.9182,5.9106,5.9106,5.9106,5.9106,5.9131,5.9257,5.9382,5.9483,5.9483,5.9408,5.9257,5.8836,5.8905,5.9056,5.8635,5.8133,5.7606,5.7305,5.7029,5.6734,5.6477,5.7604,5.8806,5.8529,6.108,6.4249,6.6477,6.7014,6.7014,6.7014,6.7014,6.7014,6.7014,6.7014,6.6445,6.4755,6.3378,6.0745,5.5628,5.3473,0.0,0.0,4.9033,4.977,5.044,5.1708,5.2558,0.0,0.0,0.0,0.0,5.7141,5.8979,5.8933,6.2287,6.4859,6.652,6.667,6.7104,6.7778,6.7254,6.7433,6.8241,6.8764,6.881,6.8526,6.9558,6.9528,6.8794,6.9093,6.9123,6.9034,6.9333,6.9752,7.0217,7.0217,7.05,7.0889,6.6564,6.7392,6.8045,6.8826,6.9205,6.9406,6.9406,6.9406,6.9406,6.9406,6.9406,6.9406,6.9406,6.9406,6.9406,6.9406,6.9406,6.9306,6.9029,6.8776,6.8249,6.7467,6.7163,6.6208,6.4547,6.4199,6.3073,6.109,6.0537,5.9985,5.9438,5.9438,5.9288,5.9062,5.9357,5.9483,5.9483,5.9483,5.9357,5.9156,5.9408,5.9357,5.9156,5.9408,5.9483,5.9483,5.9483,5.9332,5.9106,5.8786,5.873,5.8704,5.8428,5.8127,5.7775,5.7179,5.6985,5.6935,5.6634,5.748,5.8721,5.9856,6.1612,6.3781,6.64,6.7014,6.7014,6.7014,6.7014,6.7014,6.7014,6.6759,6.5892,6.3901,6.1238,5.7842,5.3461,5.1439,0.0,4.9273,5.0847,5.2641,5.4197,5.5299,5.5641,5.5042,0.0,0.0,5.6436,5.9967,6.1583,6.0595,6.4036,6.6251,6.6984,6.7313,6.7643,6.7987,6.7942,6.8106,6.8481,6.8824,6.863,6.8047,6.8766,6.872,6.8106,6.8421,6.8541,6.86,6.9229,6.9678,7.0037,7.0306,7.062,7.0889,6.7367,6.7744,6.812,6.9127,6.9356,6.9406,6.9406,6.9406,6.9406,6.9406,6.9406,6.9406,6.9406,6.9406,6.9406,6.9406,6.9331,6.908,6.8625,6.845,6.7945,6.7037,6.6912,6.6108,6.4526,6.4325,6.3521,6.1994,6.1441,6.0889,6.0292,6.0217,5.996,5.9483,5.9483,5.9483,5.9483,5.9483,5.9232,5.8836,5.9232,5.9106,5.8761,5.9207,5.9382,5.9382,5.9458,5.9207,5.8811,5.8811,5.8459,5.8027,5.8027,5.7976,5.7801,5.7305,5.7186,5.7186,5.6935,5.7081,5.7983,6.0886,6.1813,6.2821,6.5903,6.68,6.7014,6.7014,6.7014,6.7014,6.7014,6.637,6.5144,6.3003,5.8857,5.4713,5.1247,0.0,4.9134,5.0207,5.306,5.5884,5.8324,5.8966,5.8949,5.8215,5.8919,5.9488,0.0,6.2046,6.281,6.1569,6.5084,6.7014,6.7014,6.7643,6.8047,6.8167,6.863,6.8944,6.9153,6.9064,6.863,6.8017,6.8227,6.7852,6.7194,6.7778,6.7987,6.8107,6.9139,6.9678,6.9917,7.041,7.0739,7.0889,6.6887,6.7467,6.7995,6.8625,6.908,6.9406,6.9406,6.9406,6.9406,6.9406,6.9406,6.9406,6.9406,6.9406,6.9406,6.9406,6.9002,6.8701,6.86,6.7744,6.7188,6.7012,6.6513,6.5685,6.4547,6.355,6.2701,6.1994,6.1441,6.0889,6.0292,5.9834,5.9583,5.9483,5.9483,5.9483,5.9483,5.9483,5.9458,5.9332,5.8961,5.8761,5.871,5.8786,5.8811,5.8886,5.9332,5.9433,5.9382,5.9382,5.9031,5.8585,5.8585,5.8259,5.7876,5.7801,5.8083,5.8133,5.6702,5.7449,5.9105,6.11,6.2755,6.404,6.4599,6.5919,6.7014,6.7014,6.7014,6.7014,6.7014,6.5996,6.4141,6.1058,5.7154,5.3174,4.9284,0.0,5.0817,5.1026,5.5346,5.8936,6.0492,6.0206,6.0775,6.278,6.1613,6.1283,6.2405,6.3872,6.4351,6.3588,6.5802,6.7014,6.7014,6.7643,6.8271,6.8824,6.8391,6.8766,6.9828,6.9243,6.863,6.8047,6.9199,6.9005,6.7868,6.7958,6.7987,6.7958,6.7613,6.8166,6.9153,6.9273,6.9991,7.0889,6.6786,6.7417,6.797,6.85,6.9029,6.9406,6.9406,6.9406,6.9406,6.9406,6.9406,6.928,6.8979,6.923,6.9155,6.86,6.8575,6.8475,6.8196,6.7439,6.6861,6.6538,6.6262,6.5735,6.4953,6.3852,6.3174,6.2923,6.2345,6.1617,6.0788,6.0512,6.0105,5.9483,5.9483,5.9483,5.9483,5.9483,5.9332,5.9062,5.9112,5.8961,5.8736,5.9012,5.9131,5.9156,5.9408,5.9483,5.9458,5.9182,5.8886,5.866,5.8359,5.8102,5.7901,5.7901,5.8077,5.8102,5.7323,5.749,5.8248,5.9758,6.1511,6.31,6.4088,6.5702,6.7014,6.7014,6.7014,6.7014,6.7014,6.5622,6.3723,6.1537,5.6645,0.0,0.0,5.0858,5.1876,5.3695,5.7932,6.1359,6.3034,6.26,6.2584,6.3452,6.2674,6.2584,6.3542,6.447,6.5188,6.5592,6.6535,6.7014,6.7014,6.8032,6.869,6.9004,6.9379,6.9708,6.9977,6.9319,6.863,6.8017,6.8271,6.8032,6.7463,6.7463,6.7673,6.8017,6.8062,6.869,6.9572,6.9901,7.041,7.0889,6.6585,6.7238,6.7769,6.8324,6.8751,6.9055,6.918,6.9205,6.9205,6.9205,6.9205,6.9077,6.865,6.8876,6.8701,6.7869,6.807,6.807,6.7643,6.7113,6.6639,6.6338,6.6061,6.566,6.5128,6.4199,6.3626,6.35,6.2902,6.2174,6.1366,6.126,6.0658,5.9684,5.9684,5.9608,5.9483,5.9483,5.9257,5.8911,5.9207,5.9081,5.8736,5.9156,5.9307,5.9332,5.9458,5.9483,5.9433,5.9012,5.871,5.8434,5.8027,5.7801,5.7725,5.7851,5.8077,5.8227,5.7976,5.7556,5.7431,5.8413,6.026,6.2153,6.3557,6.5491,6.7014,6.7014,6.7014,6.7014,6.7014,6.5353,6.3438,6.1702,0.0,0.0,0.0,5.2396,5.3533,5.6731,6.031,6.3258,6.5054,6.477,6.4336,6.4021,6.3991,6.4201,6.4665,6.5188,6.5936,6.6984,6.7014,6.7014,6.7014,6.8181,6.8764,6.8764,6.9931,7.0201,6.9738,6.9243,6.863,6.7987,6.7463,6.7134,6.7014,6.7014,6.7403,6.8047,6.8571,6.9259,7.0067,7.05,7.0769,7.0889,6.6061,6.6639,6.7238,6.7769,6.7894,6.8095,6.8575,6.865,6.865,6.865,6.865,6.865,6.86,6.8173,6.7894,6.7819,6.7367,6.7113,6.7062,6.6488,6.6388,6.6912,6.5911,6.5103,6.4551,6.3998,6.3425,6.2877,6.2325,6.2019,6.1943,6.1416,6.0864,6.0242,6.0242,5.9985,5.9483,5.9483,5.9483,5.9408,5.8936,5.8736,5.871,5.8736,5.8761,5.8811,5.9332,5.9483,5.9483,5.9458,5.878,5.7951,5.7901,5.7506,5.7179,5.775,5.8604,5.9156,5.8177,5.7876,5.7863,5.7944,6.017,6.2373,6.2492,6.4842,6.7014,6.7014,6.7014,6.7014,6.7014,6.5353,6.2959,5.9847,0.0,0.0,5.3306,5.4695,5.6821,5.9502,6.2225,6.4395,6.5787,6.5877,6.6101,6.6685,6.6715,6.6745,6.6775,6.6835,6.6894,6.7014,6.7014,6.7014,6.7014,6.7703,6.8077,6.8077,6.881,6.9123,6.9064,6.9034,6.863,6.7987,6.7958,6.7553,6.7014,6.7014,6.7403,6.7987,6.8047,6.887,7.0007,7.0037,7.0426,7.0889,6.5936,6.6589,6.7062,6.7288,6.7568,6.7869,6.807,6.812,6.812,6.812,6.812,6.797,6.7643,6.7719,6.7518,6.6815,6.7216,6.7364,6.7012,6.6786,6.6589,6.6438,6.6036,6.571,6.5484,6.4957,6.4425,6.3852,6.3646,6.3019,6.1994,6.2144,6.1522,6.0292,6.0292,5.9991,5.9483,5.9483,5.9307,5.9031,5.9137,5.9006,5.8736,5.9062,5.9207,5.9232,5.9433,5.9483,5.9433,5.9131,5.8504,5.7901,5.7901,5.7481,5.7186,5.8108,5.893,5.9408,5.9006,5.8403,5.7901,5.7901,5.9336,6.0817,6.1201,6.3948,6.6461,6.6461,6.7072,6.7613,6.7613,6.5981,6.4201,6.2975,0.0,5.8364,5.8664,5.9009,6.0057,6.2241,6.4126,6.5592,6.652,6.661,6.6729,6.6984,6.7014,6.7014,6.7014,6.7014,6.7014,6.7014,6.7014,6.7014,6.7014,6.7643,6.7987,6.8017,6.869,6.9004,6.9004,6.8571,6.8241,6.7987,6.7553,6.7254,6.7014,6.7014,6.7643,6.863,6.863,6.9393,7.056,7.056,7.0709,7.0889,6.5886,6.6438,6.6786,6.6962,6.7141,6.7342,6.7518,6.7543,6.7543,6.7543,6.7543,6.7414,6.7037,6.7141,6.6965,6.6187,6.6815,6.7116,6.6739,6.6736,6.6538,6.6137,6.609,6.6036,6.586,6.5484,6.5053,6.4496,6.4496,6.3822,6.2546,6.2902,6.2174,6.0588,6.0588,6.0186,5.9483,5.9483,5.9282,5.8987,5.9357,5.9282,5.8987,5.9357,5.9483,5.9483,5.9483,5.9483,5.9433,5.9081,5.8478,5.7901,5.7901,5.7625,5.743,5.8208,5.8956,5.9458,5.9307,5.8704,5.8202,5.8353,5.9201,6.0151,6.0739,6.3453,6.5832,6.5783,6.6966,6.7928,6.7703,6.64,6.5188,6.4755,6.281,6.1597,6.2315,6.2361,6.2915,6.4455,6.5622,6.649,6.6954,6.6477,6.64,6.6968,6.6462,6.64,6.6983,6.7014,6.7014,6.7014,6.7014,6.7014,6.7014,6.7463,6.7688,6.7673,6.8361,6.8585,6.8345,6.8092,6.7898,6.7643,6.7194,6.7014,6.7014,6.7014,6.7673,6.8704,6.8914,6.9662,7.0649,7.0829,7.0889,7.0889,6.5886,6.609,6.6287,6.6887,6.6488,6.6312,6.6912,6.6987,6.6987,6.6987,6.6987,6.6987,6.6987,6.6463,6.609,6.609,6.609,6.609,6.609,6.609,6.609,6.609,6.609,6.586,6.5329,6.5329,6.5053,6.4521,6.4521,6.4224,6.3701,6.3701,6.2818,6.121,6.121,6.0582,5.9483,5.9483,5.9483,5.9483,5.9483,5.9483,5.9483,5.9483,5.9483,5.9483,5.9483,5.9483,5.9483,5.9483,5.878,5.7901,5.7901,5.7901,5.7901,5.7901,5.8654,5.9382,5.8836,5.871,5.8836,5.9357,6.0058,6.0721,6.1245,6.3408,6.5248,6.5117,6.664,6.7808,6.7134,6.646,6.5577,6.4246,6.4006,6.3797,6.3213,6.4216,6.5263,6.5936,6.6565,6.6983,6.6983,6.5326,6.5026,6.6815,6.5311,6.5089,6.6877,6.6999,6.7014,6.7014,6.7014,6.7014,6.7014,6.7014,6.7014,6.7014,6.7673,6.7643,6.7014,6.7688,6.7628,6.7014,6.7014,6.7014,6.7014,6.7014,6.7403,6.8077,6.875,6.9393,7.0067,7.0679,7.0889,7.0889,6.5333,6.5534,6.571,6.6262,6.6237,6.614,6.6338,6.6363,6.6363,6.6363,6.6363,6.6363,6.6363,6.6212,6.609,6.609,6.609,6.609,6.609,6.609,6.609,6.609,6.609,6.6036,6.586,6.586,6.5584,6.5053,6.5434,6.4957,6.3701,6.4099,6.3169,6.121,6.121,6.0582,5.9483,5.9483,5.9483,5.9483,5.9483,5.9483,5.9483,5.9483,5.9483,5.9483,5.9483,5.9483,5.9483,5.9483,5.9056,5.8459,5.8459,5.873,5.9006,5.9006,5.9232,5.9458,5.9307,5.9257,5.9307,5.9458,5.9395,5.9406,5.9941,6.238,6.4521,6.4487,6.634,6.7928,6.7748,6.7164,6.658,6.6161,6.6116,6.6041,6.5877,6.6161,6.649,6.667,6.577,6.5121,6.5121,6.346,6.2612,6.3166,6.3894,6.4551,6.5089,6.6322,6.7014,6.7014,6.7014,6.7014,6.7014,6.7014,6.7014,6.7014,6.7194,6.7194,6.7014,6.7224,6.7194,6.7014,6.7014,6.7014,6.7014,6.7014,6.7403,6.8077,6.875,6.9393,7.0067,7.0679,7.0889,7.0889,6.5082,6.5128,6.5229,6.5986,6.5936,6.586,6.6086,6.609,6.609,6.609,6.609,6.609,6.609,6.609,6.609,6.609,6.609,6.609,6.609,6.609,6.609,6.609,6.609,6.609,6.609,6.609,6.5835,6.5283,6.5835,6.5283,6.3701,6.4249,6.342,6.1512,6.1311,6.0663,5.9809,5.9583,5.9483,5.9483,5.9483,5.9483,5.9483,5.9483,5.9483,5.9483,5.9483,5.9483,5.9483,5.9483,5.9137,5.871,5.871,5.8911,5.9156,5.893,5.9156,5.9408,5.8981,5.9182,5.9483,5.9483,5.9106,5.9046,6.0367,6.2527,6.4477,6.519,6.7185,6.8646,6.8107,6.7673,6.7313,6.7044,6.7224,6.7403,6.7403,6.6786,6.6422,6.6611,6.463,6.3316,6.3522,6.1717,6.0511,6.0511,6.2197,6.3525,6.4249,6.5326,6.6276,6.6983,6.7014,6.7014,6.7014,6.7014,6.7014,6.7014,6.7014,6.7014,6.7014,6.7014,6.7014,6.7014,6.7014,6.7014,6.7014,6.7014,6.7254,6.7673,6.8331,6.9019,6.9678,7.032,7.0709,7.0889,6.4931,6.4752,6.4752,6.5785,6.5559,6.5383,6.5886,6.6011,6.599,6.5939,6.604,6.6065,6.6015,6.6086,6.609,6.609,6.609,6.609,6.609,6.609,6.609,6.609,6.609,6.609,6.609,6.609,6.586,6.5358,6.581,6.5258,6.3776,6.4224,6.3546,6.1918,6.1436,6.0839,6.0191,5.9709,5.9483,5.9483,5.9483,5.9483,5.9483,5.9483,5.9483,5.9483,5.9483,5.9483,5.9483,5.9483,5.9137,5.871,5.8761,5.8761,5.8685,5.8202,5.873,5.9282,5.8303,5.8755,5.9483,5.9483,5.9112,5.9414,6.1861,6.3434,6.4896,6.6733,6.8615,6.9528,6.8317,6.7953,6.7634,6.7022,6.7286,6.7578,6.7578,6.6112,6.522,6.5712,6.3174,6.1546,6.2045,6.0016,5.8666,5.8666,6.0504,6.2314,6.3975,6.4361,6.5295,6.6968,6.7014,6.7014,6.7014,6.7014,6.7014,6.7014,6.7014,6.7014,6.7014,6.7014,6.7014,6.7014,6.7014,6.7014,6.7014,6.7014,6.7014,6.7074,6.7748,6.8421,6.9064,6.9738,7.038,7.0889,6.3902,6.3948,6.4099,6.4726,6.4752,6.4701,6.4827,6.5204,6.5308,6.4902,6.5584,6.5936,6.5509,6.586,6.609,6.609,6.609,6.609,6.609,6.609,6.609,6.609,6.609,6.609,6.609,6.609,6.604,6.5936,6.5609,6.5078,6.4325,6.4023,6.2993,6.1386,6.126,6.0613,5.9659,5.9533,5.9483,5.9483,5.9483,5.9483,5.9483,5.9483,5.9483,5.9483,5.9483,5.9483,5.9483,5.9483,5.9137,5.8761,5.9187,5.9332,5.9307,5.9182,5.9307,5.9433,5.9207,5.9307,5.9483,5.9483,5.9408,5.987,6.1921,6.3362,6.4791,6.6717,6.8217,6.9123,6.8824,6.7533,6.646,6.6315,6.517,6.4313,6.4313,6.356,6.3072,6.3183,6.1007,5.9523,5.9639,5.7919,5.6787,5.6787,5.9782,6.1763,6.2147,6.4854,6.657,6.6999,6.7014,6.7014,6.7014,6.7014,6.7014,6.7014,6.7014,6.7014,6.7014,6.7014,6.7014,6.7014,6.7014,6.7014,6.7014,6.7014,6.7014,6.7074,6.7748,6.8421,6.9064,6.9738,7.038,7.0889,6.3576,6.3475,6.3525,6.435,6.4274,6.43,6.4802,6.4902,6.4902,6.4877,6.5153,6.5229,6.4953,6.5383,6.5835,6.6086,6.609,6.609,6.609,6.609,6.609,6.609,6.609,6.609,6.609,6.609,6.586,6.5333,6.5308,6.4626,6.332,6.3274,6.2521,6.1185,6.0889,6.0437,5.984,5.9608,5.9483,5.9483,5.9483,5.9357,5.9156,5.9408,5.9332,5.9131,5.9131,5.9131,5.9156,5.9408,5.9307,5.9131,5.9408,5.9483,5.9433,5.9187,5.9307,5.9433,5.9207,5.9131,5.9182,5.9433,5.9307,5.9916,6.3019,6.4217,6.5482,6.8332,6.8723,6.8478,6.8155,6.6497,6.5091,6.4792,6.4186,6.3628,6.3387,6.2328,6.1596,6.1596,5.9236,5.7618,5.7618,5.675,5.62,5.62,5.7948,5.9782,6.1511,6.3395,6.5216,6.6968,6.7014,6.7014,6.7014,6.7014,6.7014,6.7014,6.7014,6.7014,6.7014,6.7014,6.7014,6.7014,6.7014,6.7014,6.7014,6.7014,6.7014,6.7029,6.7373,6.8122,6.9034,6.9393,7.0111,7.0859,6.3425,6.3128,6.3103,6.4048,6.3948,6.3952,6.4756,6.4651,6.4576,6.4831,6.4651,6.4471,6.4375,6.4852,6.5383,6.5936,6.5939,6.5939,6.5939,6.604,6.604,6.5986,6.604,6.609,6.609,6.599,6.5534,6.4647,6.5003,6.4178,6.2295,6.2551,6.2144,6.1185,6.0588,6.0242,6.0116,5.9684,5.9483,5.9483,5.9408,5.9106,5.8736,5.9106,5.8956,5.856,5.856,5.851,5.8535,5.9257,5.9382,5.9257,5.9433,5.9483,5.9408,5.8961,5.9156,5.9408,5.8961,5.8761,5.8836,5.9357,5.9106,5.9748,6.3786,6.4714,6.5788,6.9534,6.8794,6.7267,6.6609,6.4912,6.3465,6.3074,6.3074,6.3005,6.266,6.1131,6.0079,6.0079,5.7772,5.62,5.62,5.62,5.62,5.62,5.6503,5.8108,6.141,6.188,6.3574,6.6892,6.7014,6.7014,6.7014,6.7014,6.7014,6.7014,6.7014,6.7014,6.7014,6.7014,6.7014,6.7014,6.7014,6.7014,6.7014,6.7014,6.7014,6.7014,6.7014,6.7762,6.8824,6.8944,6.9602,7.035,6.2802,6.2852,6.2852,6.3003,6.34,6.3576,6.3203,6.3902,6.4174,6.3254,6.3927,6.4325,6.3873,6.43,6.4827,6.5358,6.5409,6.5409,6.5409,6.5835,6.5886,6.5434,6.586,6.609,6.609,6.5634,6.5333,6.5204,6.4802,6.4224,6.345,6.2546,6.1793,6.1185,6.0588,6.0041,5.9608,5.9533,5.9483,5.9458,5.8987,5.8761,5.866,5.8278,5.8077,5.8001,5.8001,5.7656,5.7462,5.9006,5.888,5.8278,5.9207,5.9483,5.9483,5.9408,5.9433,5.9483,5.9408,5.9037,5.8836,5.9357,5.9106,5.9421,6.217,6.2794,6.3722,6.7076,6.6253,6.4718,6.4169,6.2491,6.1316,6.1687,6.005,5.891,5.9298,5.8286,5.7512,5.7512,5.6717,5.62,5.62,5.62,5.62,5.62,5.7653,5.9444,6.1478,6.3084,6.487,6.6953,6.7014,6.7014,6.7014,6.7014,6.7014,6.7014,6.7014,6.7014,6.7014,6.7014,6.7014,6.7014,6.7014,6.7014,6.7014,6.7014,6.7014,6.7014,6.7014,6.7463,6.8227,6.8794,6.875,6.8451,6.2752,6.2802,6.2902,6.3229,6.3229,6.3324,6.3676,6.3626,6.35,6.3324,6.345,6.3475,6.3203,6.3973,6.4701,6.5254,6.5283,6.5283,6.5283,6.5509,6.5409,6.4877,6.538,6.5509,6.5229,6.4978,6.4701,6.4404,6.4174,6.3621,6.2747,6.2245,6.1542,6.0688,6.0417,5.9991,5.9483,5.9483,5.9483,5.9458,5.8911,5.871,5.8635,5.8102,5.7901,5.7901,5.7901,5.7725,5.7656,5.8685,5.8956,5.888,5.9332,5.9483,5.9483,5.9483,5.9483,5.9483,5.9483,5.9106,5.8836,5.9357,5.9106,5.9345,6.1816,6.1579,6.1812,6.5394,6.4615,6.3217,6.2974,6.1109,5.9765,6.0286,5.9243,5.8309,5.8278,5.7807,5.7255,5.6627,5.6351,5.62,5.62,5.62,5.62,5.62,5.695,5.8197,6.0006,6.1813,6.3606,6.5421,6.6462,6.7014,6.7014,6.7014,6.7014,6.7014,6.7014,6.7014,6.7014,6.7014,6.7014,6.7014,6.7014,6.7014,6.7014,6.7014,6.7014,6.7014,6.7014,6.7403,6.8047,6.8331,6.8481,6.8541]},{"header":{"parameterUnit":"m.s-1","parameterCategory":1,"la1":30.6,"la2":28.766,"lo1":-90.7593,"lo2":-88.6598,"dy":0.0162,"dx":0.0183,"nx":116,"ny":114,"refTime":"2023-03-28T06:00:00:Z","depth":0,"parameterNumber":3,"parameterNumberName":"V-component_of_WINDS"},"data":[0.0,0.0,0.0,0.0,0.0,0.0,0.0,0.0,0.0,0.0,0.0,0.0,0.0,0.0,0.0,0.0,0.0,0.0,0.0,0.0,0.0,0.0,0.0,0.0,0.0,0.0,0.0,0.0,0.0,0.0,0.0,0.0,0.0,0.0,0.0,0.0,0.0,0.0,0.0,0.0,0.0,0.0,0.0,0.0,0.0,0.0,0.0,0.0,0.0,0.0,0.0,0.0,0.0,0.0,0.0,0.0,0.0,0.0,0.0,0.0,0.0,0.0,0.0,0.0,0.0,0.0,0.0,0.0,0.0,0.0,0.0,0.0,0.0,0.0,0.0,0.0,0.0,0.0,0.0,0.0,0.0,0.0,0.0,0.0,0.0,0.0,0.0,0.0,0.0,0.0,0.0,0.0,0.0,0.0,0.0,0.0,0.0,0.0,0.0,0.0,0.0,0.0,0.0,0.0,0.0,0.0,0.0,0.0,0.0,0.0,0.0,0.0,0.0,0.0,0.0,0.0,0.0,0.0,0.0,0.0,0.0,0.0,0.0,0.0,0.0,0.0,0.0,0.0,0.0,0.0,0.0,0.0,0.0,0.0,0.0,0.0,0.0,0.0,0.0,0.0,0.0,0.0,0.0,0.0,0.0,0.0,0.0,0.0,0.0,0.0,0.0,0.0,0.0,0.0,0.0,0.0,0.0,0.0,0.0,0.0,0.0,0.0,0.0,0.0,0.0,0.0,0.0,0.0,0.0,0.0,0.0,0.0,0.0,0.0,0.0,0.0,0.0,0.0,0.0,0.0,0.0,0.0,0.0,0.0,0.0,0.0,0.0,0.0,0.0,0.0,0.0,0.0,0.0,0.0,0.0,0.0,0.0,0.0,0.0,0.0,0.0,0.0,0.0,0.0,0.0,0.0,0.0,0.0,0.0,0.0,0.0,0.0,0.0,0.0,0.0,0.0,0.0,0.0,0.0,0.0,0.0,0.0,0.0,0.0,0.0,0.0,0.0,0.0,0.0,0.0,0.0,0.0,0.0,0.0,0.0,0.0,0.0,0.0,0.0,0.0,0.0,0.0,0.0,0.0,0.0,0.0,0.0,0.0,0.0,0.0,0.0,0.0,0.0,0.0,0.0,0.0,0.0,0.0,0.0,0.0,0.0,0.0,0.0,0.0,0.0,0.0,0.0,0.0,0.0,0.0,0.0,0.0,0.0,0.0,0.0,0.0,0.0,0.0,0.0,0.0,0.0,0.0,0.0,0.0,0.0,0.0,0.0,0.0,0.0,0.0,0.0,0.0,0.0,0.0,0.0,0.0,0.0,0.0,0.0,0.0,0.0,0.0,0.0,0.0,0.0,0.0,0.0,0.0,0.0,0.0,0.0,0.0,0.0,0.0,0.0,0.0,0.0,0.0,0.0,0.0,0.0,0.0,0.0,0.0,0.0,0.0,0.0,0.0,0.0,0.0,0.0,0.0,0.0,0.0,0.0,0.0,0.0,0.0,0.0,0.0,0.0,0.0,0.0,0.0,0.0,0.0,0.0,0.0,0.0,0.0,0.0,0.0,0.0,0.0,0.0,0.0,0.0,0.0,0.0,0.0,0.0,0.0,0.0,0.0,0.0,0.0,0.0,0.0,0.0,0.0,0.0,0.0,0.0,0.0,0.0,0.0,0.0,0.0,0.0,0.0,0.0,0.0,0.0,0.0,0.0,0.0,0.0,0.0,0.0,0.0,0.0,0.0,0.0,0.0,0.0,0.0,0.0,0.0,0.0,0.0,0.0,0.0,0.0,0.0,0.0,0.0,0.0,0.0,0.0,0.0,0.0,0.0,0.0,0.0,0.0,0.0,0.0,0.0,0.0,0.0,0.0,0.0,0.0,0.0,0.0,0.0,0.0,0.0,0.0,0.0,0.0,0.0,0.0,0.0,0.0,0.0,0.0,0.0,0.0,0.0,0.0,0.0,0.0,0.0,0.0,0.0,0.0,0.0,0.0,0.0,0.0,0.0,0.0,0.0,0.0,0.0,0.0,0.0,0.0,0.0,0.0,0.0,0.0,0.0,0.0,0.0,0.0,0.0,0.0,0.0,0.0,0.0,0.0,0.0,0.0,0.0,0.0,0.0,0.0,0.0,0.0,0.0,0.0,0.0,0.0,0.0,0.0,0.0,0.0,0.0,0.0,0.0,0.0,0.0,0.0,0.0,0.0,0.0,0.0,0.0,0.0,0.0,0.0,0.0,0.0,0.0,0.0,0.0,0.0,0.0,0.0,0.0,0.0,0.0,0.0,0.0,0.0,0.0,0.0,0.0,0.0,0.0,0.0,0.0,0.0,0.0,0.0,0.0,0.0,0.0,0.0,0.0,0.0,0.0,0.0,0.0,0.0,0.0,0.0,0.0,0.0,0.0,0.0,0.0,0.0,0.0,0.0,0.0,0.0,0.0,0.0,0.0,0.0,0.0,0.0,0.0,0.0,0.0,0.0,0.0,0.0,0.0,0.0,0.0,0.0,0.0,0.0,0.0,0.0,0.0,0.0,0.0,0.0,0.0,0.0,0.0,0.0,0.0,0.0,0.0,0.0,0.0,0.0,0.0,0.0,0.0,0.0,0.0,0.0,0.0,0.0,0.0,0.0,0.0,0.0,0.0,0.0,0.0,0.0,0.0,0.0,0.0,0.0,0.0,0.0,0.0,0.0,0.0,0.0,0.0,0.0,0.0,0.0,0.0,0.0,0.0,0.0,0.0,0.0,0.0,0.0,0.0,0.0,0.0,0.0,0.0,0.0,0.0,0.0,0.0,0.0,0.0,0.0,0.0,0.0,0.0,0.0,0.0,0.0,0.0,0.0,0.0,0.0,0.0,0.0,0.0,0.0,0.0,0.0,0.0,0.0,0.0,0.0,0.0,0.0,0.0,0.0,0.0,0.0,0.0,0.0,0.0,0.0,0.0,0.0,0.0,0.0,0.0,0.0,0.0,0.0,0.0,0.0,0.0,0.0,0.0,0.0,0.0,0.0,0.0,0.0,0.0,0.0,0.0,0.0,0.0,0.0,0.0,0.0,0.0,0.0,0.0,0.0,0.0,0.0,0.0,0.0,0.0,0.0,0.0,0.0,0.0,0.0,0.0,0.0,0.0,0.0,0.0,0.0,0.0,0.0,0.0,0.0,0.0,0.0,0.0,0.0,0.0,0.0,0.0,0.0,0.0,0.0,0.0,0.0,0.0,0.0,0.0,0.0,0.0,0.0,0.0,0.0,0.0,0.0,0.0,0.0,0.0,0.0,0.0,0.0,0.0,0.0,0.0,0.0,0.0,0.0,0.0,0.0,0.0,0.0,0.0,0.0,0.0,0.0,0.0,0.0,0.0,0.0,0.0,0.0,0.0,0.0,0.0,0.0,0.0,0.0,0.0,0.0,0.0,0.0,0.0,0.0,0.0,0.0,0.0,0.0,0.0,0.0,0.0,0.0,0.0,0.0,0.0,0.0,0.0,0.0,0.0,0.0,0.0,0.0,0.0,0.0,0.0,0.0,0.0,0.0,0.0,0.0,0.0,0.0,0.0,0.0,0.0,0.0,0.0,0.0,0.0,0.0,0.0,0.0,0.0,0.0,0.0,0.0,0.0,0.0,0.0,0.0,0.0,0.0,0.0,0.0,0.0,0.0,0.0,0.0,0.0,0.0,0.0,0.0,0.0,0.0,0.0,0.0,0.0,0.0,0.0,0.0,0.0,0.0,0.0,0.0,0.0,0.0,0.0,0.0,0.0,0.0,0.0,0.0,0.0,0.0,0.0,0.0,0.0,0.0,0.0,0.0,0.0,0.0,0.0,0.0,0.0,0.0,0.0,0.0,0.0,0.0,0.0,0.0,0.0,0.0,0.0,0.0,0.0,0.0,0.0,0.0,0.0,0.0,0.0,0.0,0.0,0.0,0.0,0.0,0.0,0.0,0.0,0.0,0.0,0.0,0.0,0.0,0.0,0.0,0.0,0.0,0.0,0.0,0.0,0.0,0.0,0.0,0.0,0.0,0.0,0.0,0.0,0.0,0.0,0.0,0.0,0.0,0.0,0.0,0.0,0.0,0.0,0.0,0.0,0.0,0.0,0.0,0.0,0.0,0.0,0.0,0.0,0.0,0.0,0.0,0.0,0.0,0.0,0.0,0.0,0.0,0.0,0.0,0.0,0.0,0.0,0.0,0.0,0.0,0.0,0.0,0.0,0.0,0.0,0.0,0.0,0.0,0.0,0.0,0.0,0.0,0.0,0.0,0.0,0.0,0.0,0.0,0.0,0.0,0.0,0.0,0.0,0.0,0.0,0.0,0.0,0.0,0.0,0.0,0.0,0.0,0.0,0.0,0.0,0.0,0.0,0.0,0.0,0.0,0.0,0.0,0.0,0.0,0.0,0.0,0.0,0.0,0.0,0.0,0.0,0.0,0.0,0.0,0.0,0.0,0.0,0.0,0.0,0.0,0.0,0.0,0.0,0.0,0.0,0.0,0.0,0.0,0.0,0.0,0.0,0.0,0.0,0.0,0.0,0.0,0.0,0.0,0.0,0.0,0.0,0.0,0.0,0.0,0.0,0.0,0.0,0.0,0.0,0.0,0.0,0.0,0.0,0.0,0.0,0.0,0.0,0.0,0.0,0.0,0.0,0.0,0.0,0.0,0.0,0.0,0.0,0.0,0.0,0.0,0.0,0.0,0.0,0.0,0.0,0.0,0.0,0.0,0.0,0.0,0.0,0.0,0.0,0.0,0.0,0.0,0.0,0.0,0.0,0.0,0.0,0.0,0.0,0.0,0.0,0.0,0.0,0.0,0.0,0.0,0.0,0.0,0.0,0.0,0.0,0.0,0.0,0.0,0.0,0.0,0.0,0.0,0.0,0.0,0.0,0.0,0.0,0.0,0.0,0.0,0.0,0.0,0.0,0.0,0.0,0.0,0.0,0.0,0.0,0.0,0.0,0.0,0.0,0.0,0.0,0.0,0.0,0.0,0.0,0.0,0.0,0.0,0.0,0.0,0.0,0.0,0.0,0.0,0.0,0.0,0.0,0.0,0.0,0.0,0.0,0.0,0.0,0.0,0.0,0.0,0.0,0.0,0.0,0.0,0.0,0.0,0.0,0.0,0.0,0.0,0.0,0.0,0.0,0.0,0.0,0.0,0.0,0.0,0.0,0.0,0.0,0.0,0.0,0.0,0.0,0.0,0.0,0.0,0.0,0.0,0.0,0.0,0.0,0.0,0.0,0.0,0.0,0.0,0.0,0.0,0.0,0.0,0.0,0.0,0.0,0.0,0.0,0.0,0.0,0.0,0.0,0.0,0.0,0.0,0.0,0.0,0.0,0.0,0.0,0.0,0.0,0.0,0.0,0.0,0.0,0.0,0.0,0.0,0.0,0.0,0.0,0.0,0.0,0.0,0.0,0.0,0.0,0.0,0.0,0.0,0.0,0.0,0.0,0.0,0.0,0.0,0.0,0.0,0.0,0.0,0.0,0.0,0.0,0.0,0.0,0.0,0.0,0.0,0.0,0.0,0.0,0.0,0.0,0.0,0.0,0.0,0.0,0.0,0.0,0.0,0.0,0.0,0.0,0.0,0.0,0.0,0.0,0.0,0.0,0.0,0.0,0.0,0.0,0.0,0.0,0.0,0.0,0.0,0.0,0.0,0.0,0.0,0.0,0.0,0.0,0.0,0.0,0.0,0.0,0.0,0.0,0.0,0.0,0.0,0.0,0.0,0.0,0.0,0.0,0.0,0.0,0.0,0.0,0.0,0.0,0.0,0.0,0.0,0.0,0.0,0.0,0.0,0.0,0.0,0.0,0.0,0.0,0.0,0.0,0.0,0.0,0.0,0.0,0.0,0.0,0.0,0.0,0.0,0.0,0.0,0.0,0.0,0.0,0.0,0.0,0.0,0.0,0.0,0.0,0.0,0.0,0.0,0.0,0.0,0.0,0.0,0.0,0.0,0.0,0.0,0.0,0.0,0.0,0.0,0.0,0.0,0.0,0.0,0.0,0.0,0.0,0.0,0.0,0.0,0.0,0.0,0.0,0.0,0.0,0.0,0.0,0.0,0.0,0.0,0.0,0.0,0.0,0.0,0.0,0.0,0.0,0.0,0.0,2.8164,0.0,0.0,0.0,0.0,0.0,0.0,0.0,0.0,0.0,0.0,0.0,0.0,0.0,0.0,0.0,0.0,0.0,0.0,0.0,0.0,0.0,0.0,0.0,0.0,0.0,0.0,0.0,0.0,0.0,0.0,0.0,0.0,0.0,0.0,0.0,0.0,0.0,0.0,0.0,0.0,0.0,0.0,0.0,0.0,0.0,0.0,0.0,0.0,0.0,0.0,0.0,0.0,0.0,0.0,0.0,0.0,0.0,0.0,0.0,0.0,0.0,0.0,0.0,0.0,0.0,0.0,0.0,0.0,0.0,0.0,0.0,0.0,0.0,0.0,0.0,0.0,0.0,0.0,0.0,0.0,0.0,0.0,0.0,0.0,0.0,0.0,0.0,0.0,0.0,0.0,0.0,0.0,0.0,0.0,0.0,0.0,0.0,0.0,0.0,0.0,0.0,0.0,0.0,0.0,0.0,0.0,0.0,0.0,0.0,0.0,0.0,0.0,0.0,0.0,0.0,0.0,2.9311,0.0,0.0,0.0,0.0,0.0,0.0,0.0,0.0,0.0,0.0,0.0,0.0,0.0,0.0,0.0,0.0,0.0,0.0,0.0,0.0,0.0,0.0,0.0,0.0,0.0,0.0,0.0,0.0,0.0,0.0,0.0,0.0,0.0,0.0,0.0,0.0,0.0,0.0,0.0,0.0,0.0,0.0,0.0,0.0,0.0,0.0,0.0,0.0,0.0,0.0,0.0,0.0,0.0,0.0,0.0,0.0,0.0,0.0,0.0,0.0,0.0,0.0,0.0,0.0,0.0,0.0,0.0,0.0,0.0,0.0,0.0,0.0,0.0,0.0,0.0,0.0,0.0,0.0,0.0,0.0,0.0,0.0,0.0,0.0,0.0,0.0,0.0,0.0,0.0,0.0,0.0,0.0,0.0,0.0,0.0,0.0,0.0,0.0,0.0,0.0,0.0,0.0,0.0,0.0,0.0,0.0,0.0,0.0,0.0,3.2285,3.3617,3.3281,3.3437,3.3926,3.2656,3.1382,3.0282,0.0,0.0,0.0,0.0,0.0,0.0,0.0,0.0,0.0,0.0,0.0,0.0,0.0,0.0,0.0,0.0,0.0,0.0,0.0,0.0,0.0,0.0,0.0,0.0,0.0,0.0,0.0,0.0,0.0,0.0,0.0,0.0,0.0,0.0,0.0,0.0,0.0,0.0,0.0,3.4746,3.6092,3.6648,3.6386,3.3305,0.0,0.0,0.0,0.0,0.0,0.0,0.0,0.0,0.0,0.0,0.0,0.0,0.0,0.0,0.0,0.0,0.0,0.0,0.0,0.0,0.0,0.0,0.0,0.0,0.0,0.0,0.0,0.0,0.0,0.0,0.0,0.0,0.0,0.0,0.0,0.0,0.0,0.0,0.0,0.0,0.0,0.0,0.0,2.9626,3.0144,0.0,0.0,0.0,0.0,0.0,0.0,0.0,0.0,0.0,0.0,0.0,0.0,0.0,0.0,3.167,3.2383,3.3047,3.3684,3.4039,3.4316,3.4531,3.4473,3.5098,3.6287,3.6777,0.0,3.2305,3.1499,0.0,0.0,0.0,0.0,0.0,0.0,0.0,0.0,0.0,0.0,0.0,0.0,0.0,0.0,0.0,0.0,0.0,0.0,0.0,0.0,0.0,0.0,0.0,0.0,0.0,0.0,0.0,0.0,0.0,0.0,0.0,0.0,0.0,0.0,0.0,0.0,3.4645,3.657,3.8189,3.8875,3.934,3.9558,3.8051,3.5985,3.3609,3.2354,0.0,0.0,0.0,0.0,0.0,0.0,0.0,0.0,0.0,0.0,0.0,0.0,0.0,0.0,0.0,0.0,0.0,0.0,0.0,0.0,0.0,0.0,0.0,0.0,0.0,0.0,0.0,0.0,0.0,0.0,0.0,0.0,0.0,0.0,0.0,0.0,0.0,0.0,0.0,2.9753,3.12,3.0355,3.1633,3.193,0.0,0.0,0.0,0.0,0.0,0.0,0.0,0.0,0.0,3.3194,3.4672,3.6102,3.7465,3.8322,3.8505,3.8051,4.021,4.0738,3.988,4.1368,4.1932,4.1746,4.1641,4.0052,3.7342,3.5095,3.3391,3.212,0.0,0.0,0.0,0.0,0.0,3.2543,0.0,0.0,0.0,0.0,0.0,0.0,0.0,0.0,0.0,0.0,0.0,0.0,0.0,0.0,0.0,3.4005,0.0,0.0,0.0,0.0,0.0,0.0,0.0,0.0,0.0,0.0,0.0,0.0,3.7558,3.9387,4.1341,4.1642,4.1993,4.2356,4.208,3.9822,3.6123,3.4607,3.3669,0.0,0.0,0.0,0.0,0.0,0.0,0.0,0.0,0.0,0.0,0.0,0.0,0.0,0.0,0.0,0.0,0.0,0.0,0.0,0.0,0.0,0.0,0.0,0.0,0.0,0.0,0.0,0.0,0.0,0.0,0.0,0.0,0.0,0.0,0.0,0.0,0.0,0.0,3.0911,3.2814,3.1255,3.3126,3.3888,0.0,0.0,0.0,0.0,0.0,0.0,3.2202,3.5143,3.7349,3.8557,4.0342,4.1948,4.3333,4.4105,4.414,4.3486,4.6333,4.7035,4.5877,4.8018,4.804,4.6329,4.5733,4.4031,4.1426,3.8299,3.5681,3.3551,3.2476,3.2261,3.2554,3.2621,3.3402,3.4437,0.0,0.0,0.0,0.0,0.0,0.0,0.0,0.0,0.0,0.0,0.0,0.0,0.0,0.0,3.5247,3.753,3.6621,3.6433,0.0,0.0,0.0,0.0,0.0,0.0,0.0,0.0,0.0,3.7581,4.1013,4.3006,4.3664,4.4744,4.5261,4.5236,4.4166,4.1829,3.8615,3.721,3.5431,3.3654,0.0,0.0,0.0,0.0,0.0,0.0,0.0,0.0,0.0,0.0,0.0,0.0,0.0,0.0,0.0,0.0,0.0,0.0,0.0,0.0,0.0,0.0,0.0,0.0,0.0,0.0,0.0,0.0,0.0,0.0,0.0,0.0,0.0,0.0,0.0,0.0,0.0,0.0,0.0,3.425,3.7237,0.0,0.0,0.0,0.0,3.4606,3.5954,3.7551,3.9384,4.1029,4.2557,4.3964,4.449,4.5804,4.8031,4.8539,4.9137,4.984,5.0993,5.141,5.1233,5.193,5.0781,4.8167,4.8125,4.6168,4.2735,3.9277,3.7756,3.7443,3.582,3.5898,3.6875,3.6077,3.6348,3.7051,0.0,0.0,0.0,0.0,0.0,0.0,0.0,0.0,0.0,0.0,0.0,0.0,0.0,3.722,3.7915,3.947,3.8537,3.8077,3.8555,0.0,0.0,0.0,0.0,0.0,0.0,0.0,3.8768,4.162,4.4311,4.6125,4.7019,4.7044,4.7255,4.7572,4.6411,4.4887,4.2978,4.0303,3.8328,3.6976,3.664,3.6382,0.0,0.0,0.0,0.0,0.0,0.0,0.0,0.0,0.0,0.0,0.0,0.0,0.0,0.0,0.0,0.0,0.0,0.0,0.0,0.0,0.0,0.0,0.0,0.0,0.0,0.0,0.0,0.0,0.0,0.0,0.0,0.0,0.0,0.0,0.0,0.0,0.0,3.9625,4.2045,0.0,0.0,3.9395,3.8806,3.9647,4.0744,4.2075,4.3657,4.6505,4.8764,5.0256,5.2574,5.4357,5.5535,5.6051,5.562,5.4248,5.6286,5.6542,5.5282,5.7217,5.6563,5.3876,5.3617,5.1792,4.889,4.7068,4.3321,3.8614,3.7463,3.7129,3.7324,3.7578,3.8027,3.8574,0.0,0.0,0.0,0.0,0.0,0.0,0.0,0.0,0.0,0.0,0.0,3.6745,3.7638,3.9095,4.0376,4.1279,4.0527,3.9848,3.9459,0.0,0.0,0.0,0.0,0.0,0.0,3.9051,4.2378,4.5487,4.7516,4.8912,4.9631,4.9414,4.9314,4.9305,4.8545,4.7616,4.6441,4.4041,4.1717,3.9597,3.8504,3.8379,3.8768,0.0,0.0,0.0,0.0,0.0,0.0,0.0,0.0,0.0,0.0,0.0,0.0,0.0,0.0,0.0,0.0,0.0,0.0,0.0,0.0,0.0,0.0,0.0,0.0,0.0,0.0,0.0,0.0,0.0,0.0,0.0,0.0,0.0,0.0,0.0,4.3,4.3912,4.6211,4.7286,4.6195,4.45,4.4054,4.5498,4.6856,4.8369,5.005,5.3004,5.5195,5.6408,5.8627,6.0066,6.0613,6.097,6.0263,5.8584,6.0502,6.0636,5.9163,6.1134,6.0415,5.7557,5.7285,5.5521,5.2794,5.22,4.8818,4.3747,4.1603,4.024,3.9624,4.0944,4.1135,4.0762,0.0,0.0,0.0,0.0,0.0,0.0,0.0,0.0,0.0,0.0,3.5111,3.672,3.7248,4.0276,4.25,4.3065,4.2537,4.1708,4.0588,3.7902,0.0,0.0,0.0,0.0,3.8006,4.302,4.6692,4.8894,5.0561,5.1364,5.1389,5.19,5.1532,5.0503,5.0477,4.9866,4.8868,4.8234,4.5493,4.1464,4.03,4.0753,4.1897,0.0,0.0,0.0,0.0,0.0,0.0,0.0,0.0,0.0,0.0,0.0,0.0,0.0,0.0,0.0,0.0,0.0,0.0,0.0,0.0,0.0,0.0,0.0,0.0,0.0,0.0,0.0,0.0,0.0,0.0,0.0,0.0,0.0,3.6182,4.1844,4.6311,4.6996,4.9694,5.1088,5.0017,4.9378,4.9976,5.2208,5.4328,5.6497,5.8734,6.0412,6.1562,6.2094,6.2144,6.24,6.2902,6.2927,6.2927,6.2927,6.3475,6.345,6.2902,6.3475,6.1931,5.8867,5.8867,5.7064,5.4185,5.4163,5.3869,5.3009,4.8424,4.5552,4.4245,4.6406,4.5759,4.3716,0.0,0.0,0.0,0.0,0.0,0.0,0.0,0.0,0.0,0.0,3.6671,3.9007,3.9534,4.2194,4.4342,4.5321,4.3023,4.1403,4.1088,0.0,0.0,0.0,0.0,0.0,4.3294,4.635,4.8978,5.1197,5.2427,5.303,5.303,5.2787,5.2711,5.2779,5.1975,5.1473,5.1122,5.0126,4.9022,4.7591,4.4077,4.1982,4.0852,0.0,0.0,0.0,0.0,0.0,0.0,0.0,0.0,0.0,0.0,0.0,0.0,0.0,0.0,0.0,0.0,0.0,0.0,0.0,0.0,0.0,0.0,0.0,0.0,0.0,0.0,0.0,0.0,0.0,0.0,0.0,0.0,4.2694,4.2186,4.6553,5.0754,5.3324,5.5092,5.6269,5.6721,5.6632,5.713,5.8585,5.96,6.0786,6.225,6.3144,6.3847,6.4379,6.5183,6.5484,6.5186,6.5634,6.5634,6.5186,6.4957,6.4756,6.4605,6.4375,6.3561,6.2328,6.2328,6.1577,6.0306,5.9915,5.8769,5.6825,5.2912,5.1086,5.0703,5.0923,4.9293,4.6948,0.0,0.0,0.0,0.0,0.0,0.0,0.0,0.0,0.0,0.0,3.8018,4.1081,4.1389,4.4843,4.7074,4.6883,4.4253,4.2023,4.0728,0.0,0.0,0.0,0.0,4.4074,4.7935,5.1136,5.3759,5.5735,5.6374,5.6655,5.6655,5.5805,5.5339,5.5142,5.3998,5.3206,5.2729,5.2059,5.1507,5.0879,4.8294,4.61,4.4127,4.2409,4.1856,4.1825,4.0485,3.9805,3.9339,3.7959,0.0,0.0,0.0,0.0,0.0,0.0,0.0,0.0,0.0,0.0,0.0,0.0,0.0,0.0,0.0,0.0,0.0,0.0,0.0,0.0,0.0,0.0,0.0,0.0,4.5291,4.8526,4.9921,5.2174,5.4737,5.7581,5.8911,6.0035,6.114,6.1461,6.1964,6.2843,6.3646,6.4379,6.5053,6.558,6.6033,6.6338,6.6987,6.7166,6.6815,6.7141,6.7141,6.6815,6.6262,6.6133,6.6312,6.5781,6.5229,0.0,6.4705,6.4254,6.35,6.3174,6.2274,0.0,0.0,0.0,0.0,0.0,5.1768,4.9803,0.0,0.0,0.0,0.0,0.0,0.0,0.0,0.0,0.0,0.0,0.0,4.2764,4.2875,4.7363,4.9647,4.7841,4.5404,4.2697,0.0,0.0,0.0,3.9095,4.539,4.9935,5.2307,5.644,5.9346,6.0877,6.0877,6.0877,6.0872,5.973,5.8695,5.7739,5.6399,5.5226,5.4274,5.3996,5.3331,5.2477,5.2327,5.1197,4.9264,4.616,4.5533,4.616,4.5081,4.3435,4.1704,4.1165,0.0,0.0,0.0,0.0,0.0,0.0,0.0,0.0,0.0,0.0,0.0,0.0,0.0,0.0,0.0,0.0,0.0,0.0,0.0,0.0,0.0,0.0,0.0,0.0,5.0368,5.4135,5.7851,5.8058,5.8585,6.0543,6.1667,6.2747,6.3973,6.45,6.5003,6.5534,6.6535,6.7113,6.7188,0.0,0.0,0.0,0.0,6.7995,6.7995,6.7995,6.7995,6.797,6.7417,6.7417,6.7869,6.7317,6.6789,6.6291,6.6291,6.571,6.4798,6.4701,6.4601,6.4107,6.0192,5.7407,5.5574,5.507,5.3923,0.0,0.0,0.0,0.0,0.0,0.0,0.0,0.0,0.0,0.0,3.5314,3.9665,4.3063,4.4062,4.6624,4.8078,4.7563,4.3697,4.0424,0.0,0.0,4.1815,4.6054,5.0495,5.4361,5.7555,5.9391,6.07,6.1447,6.1447,6.1447,6.1447,6.1187,6.098,6.0693,5.8988,5.8096,5.7773,5.585,5.4938,5.4662,5.3758,5.1875,4.9414,4.7857,4.6863,4.621,4.5547,4.5045,4.4593,4.4001,4.3976,4.3761,4.1092,0.0,0.0,0.0,0.0,0.0,0.0,0.0,0.0,0.0,0.0,0.0,0.0,0.0,0.0,0.0,0.0,0.0,0.0,0.0,0.0,5.143,5.5171,5.8309,6.0864,6.227,6.3219,6.3646,6.3873,6.4626,6.6208,6.646,6.6736,6.7267,6.7518,6.7819,6.8271,6.8374,0.0,6.908,6.908,6.908,6.908,6.908,6.908,6.908,0.0,0.0,6.8424,6.7894,6.7593,6.7467,6.7467,6.7091,6.6485,6.5986,6.5283,6.4429,6.3581,6.2696,6.1852,6.1285,5.8349,5.4465,0.0,0.0,0.0,0.0,0.0,0.0,0.0,0.0,0.0,0.0,3.8077,4.0891,4.1474,4.4154,4.5343,4.3976,4.1017,0.0,3.9308,4.2213,4.6085,5.088,5.548,5.9132,6.1754,6.3504,6.4679,6.5309,6.5309,6.5309,6.5277,6.4377,6.3951,6.3834,6.1051,5.9809,5.9658,5.7539,5.6646,5.6589,5.5698,5.4519,5.3088,5.113,4.99,4.9163,4.8887,4.8099,4.7069,4.6436,4.5924,4.5146,4.3173,4.2169,4.153,0.0,0.0,0.0,0.0,0.0,0.0,0.0,0.0,0.0,0.0,0.0,0.0,0.0,0.0,3.9964,0.0,0.0,5.1872,5.5608,5.9031,6.1868,6.3802,6.5032,6.553,6.4978,6.5405,6.6284,6.7668,6.7794,6.802,6.855,6.86,6.8726,6.9002,6.8979,6.9253,6.9828,6.9579,6.9554,6.9853,6.9554,6.9406,6.9381,6.8876,6.8751,6.8979,6.845,6.8221,6.8221,6.8221,6.7744,6.6987,6.6664,6.6212,6.5731,6.5731,6.4902,6.3651,6.3375,6.0581,5.6878,0.0,0.0,0.0,0.0,0.0,0.0,0.0,0.0,0.0,0.0,3.6359,3.8608,3.9063,4.1759,4.2434,0.0,0.0,0.0,4.1441,4.5803,5.0459,5.5285,6.0207,6.3543,6.5153,6.7152,6.8451,6.9004,6.9004,6.9004,6.8972,6.751,6.6816,6.6685,6.328,6.1559,6.1104,5.9227,5.8251,5.7851,5.738,5.7085,5.6759,5.4526,5.3289,5.2729,5.2628,5.0962,4.8793,4.8611,4.733,4.5673,4.4844,4.4306,4.3678,4.2331,4.1478,0.0,0.0,0.0,0.0,0.0,0.0,0.0,0.0,0.0,3.8214,3.956,4.2643,4.5864,4.8478,5.3102,5.7248,5.9483,6.237,6.4831,6.6237,6.694,6.6965,6.6036,6.6739,6.7693,6.8675,6.8851,6.9102,6.9554,6.9657,6.973,6.973,6.973,6.993,7.0428,6.9878,6.9828,7.03,6.9705,6.9406,6.9381,6.8977,6.8979,6.9381,6.8929,6.8751,6.8751,6.865,6.812,6.7314,6.7213,6.7163,6.7138,6.7037,6.5907,6.4304,6.4078,6.2022,5.9266,0.0,0.0,0.0,0.0,0.0,0.0,0.0,0.0,0.0,0.0,0.0,0.0,0.0,0.0,0.0,0.0,0.0,4.0593,4.4859,4.9322,5.4544,6.0654,6.446,6.6798,6.7603,6.8446,6.8914,6.9004,6.9004,6.9004,6.9004,6.8784,6.8705,6.8625,6.6586,6.4713,6.2975,6.1157,5.9429,5.7901,5.7826,5.7481,5.696,5.6659,5.5899,5.4981,5.4479,5.1934,4.9019,5.0435,4.9138,4.6973,4.7315,4.7405,4.6938,4.484,0.0,4.2171,3.9673,3.6911,3.4916,3.5701,3.561,3.6073,0.0,0.0,4.3337,4.6174,4.9117,5.183,5.4098,5.7807,6.1285,6.3496,6.5405,6.6861,6.7518,6.8095,6.8374,6.8249,6.8324,6.865,6.9255,6.9803,7.0127,7.0177,7.0654,7.0907,7.0907,7.0907,7.0932,7.1006,7.0478,7.0227,7.03,6.9705,6.9406,6.9406,6.9331,6.9331,6.9406,6.9331,6.9306,6.928,6.8826,6.8525,6.8374,6.7919,6.7719,6.7668,6.7188,6.6836,6.651,6.5484,6.3574,6.1318,0.0,0.0,0.0,0.0,0.0,0.0,0.0,0.0,0.0,0.0,0.0,0.0,0.0,0.0,0.0,0.0,3.7767,4.2292,4.7282,5.2666,5.8408,6.4565,6.6587,6.8062,6.9139,6.9439,6.9752,7.0111,7.0111,7.0111,7.0111,7.0111,7.0111,7.0031,6.8152,6.6888,6.6008,6.4133,6.2224,6.0478,6.0142,5.8999,5.7481,5.7136,5.5924,5.4391,5.4295,5.2747,0.0,0.0,4.9908,4.8584,4.8469,4.7546,4.6326,4.5397,4.3187,0.0,3.8492,3.7941,0.0,0.0,4.0696,4.2462,4.5041,4.7562,4.9818,5.1473,5.4511,5.7455,5.9357,6.2094,6.458,0.0,6.7267,6.812,6.865,6.8904,6.8826,6.8221,6.8701,6.9303,6.9878,7.0428,7.0755,7.0755,7.0981,7.1106,7.1106,7.1106,7.1234,7.156,7.1056,7.093,7.1232,7.0681,7.0405,7.0405,7.0079,6.9928,6.9903,6.9579,6.9406,6.9356,6.8826,6.8776,6.9004,6.8475,6.8271,6.8224,6.802,6.7543,6.6861,6.5731,6.4683,6.3694,0.0,0.0,0.0,0.0,0.0,0.0,0.0,0.0,0.0,0.0,0.0,0.0,0.0,0.0,0.0,3.2866,3.7239,4.268,4.9026,5.4264,6.0004,6.6429,6.7732,6.872,6.9708,7.0067,7.044,7.0889,7.0889,7.0889,7.0889,7.0889,7.0889,7.0824,6.947,6.8586,6.7998,6.6597,6.4893,6.3119,6.2486,6.1118,5.9253,5.7677,5.5898,5.4181,5.363,5.2085,0.0,0.0,4.8613,4.7802,4.7678,4.6667,4.5412,4.4959,4.2171,3.9157,3.8693,0.0,0.0,4.3266,4.5738,4.8335,5.0845,5.3557,5.5817,5.689,5.9659,6.2325,6.3706,6.5513,0.0,6.8073,6.8723,6.9275,6.9805,6.9582,6.8979,6.7919,6.8199,6.8776,6.9524,7.0503,7.1182,7.1332,7.146,7.1535,7.1535,7.1535,7.1711,7.2113,7.161,7.151,7.1912,7.1359,7.1031,7.088,7.0501,7.0202,7.0051,6.9604,6.9406,6.9381,6.8979,6.9029,6.9356,6.8979,6.8826,6.8826,6.865,6.8145,6.7314,6.6162,6.566,6.5383,0.0,0.0,0.0,0.0,0.0,0.0,0.0,0.0,0.0,0.0,0.0,0.0,0.0,0.0,0.0,3.4484,3.6226,4.1004,4.9981,5.3334,5.8311,6.5712,6.7926,6.9004,6.9034,7.0231,7.0889,7.0889,7.0889,7.0889,7.0889,7.0889,7.0889,7.0889,7.0824,6.9798,6.8112,6.8032,6.6875,6.507,6.4392,6.3769,6.2797,5.8817,5.6597,5.5321,5.2933,0.0,0.0,0.0,4.4485,4.3308,4.4383,4.5081,0.0,4.3553,4.0676,0.0,0.0,0.0,4.2317,4.6652,4.9439,5.2017,5.5265,5.8133,6.0719,6.2948,6.4756,6.6137,6.6761,6.7769,6.8726,6.9255,6.9853,7.0428,7.0981,7.0106,6.8979,6.7919,6.6865,6.6639,0.0,6.9828,7.1332,7.1836,7.2365,7.2666,7.2666,7.2666,7.2666,7.2692,7.2163,7.1887,7.1912,7.1359,7.083,7.0325,7.0325,6.9978,6.9431,6.9406,6.9406,6.9406,6.9381,6.9381,6.9406,6.9381,6.9381,6.9331,6.8801,6.8575,6.8424,6.7339,6.6564,6.6011,0.0,0.0,0.0,0.0,0.0,0.0,0.0,0.0,0.0,0.0,0.0,0.0,0.0,0.0,0.0,0.0,3.6792,4.0812,4.6321,5.1966,5.7185,6.1868,6.5652,6.7882,6.8331,6.9183,6.9632,6.9632,6.9632,6.9871,7.0306,7.0306,7.05,7.0889,7.0889,7.0563,6.9946,6.9946,6.9105,6.7692,6.6571,6.5032,6.3001,5.9442,5.5667,5.1871,0.0,0.0,0.0,0.0,0.0,0.0,4.1349,0.0,0.0,3.9961,0.0,0.0,0.0,0.0,4.8143,5.1515,5.4813,5.7851,6.0066,6.2425,6.4379,6.5132,6.5157,6.5103,6.5304,6.4752,6.4885,6.6893,6.7719,6.867,7.0328,7.0252,6.9024,6.6438,6.6789,0.0,0.0,0.0,0.0,7.1761,7.2087,7.2315,7.2692,7.3068,7.3093,7.2717,7.2916,7.2841,7.2441,7.1912,7.1535,7.1334,7.0629,6.9978,6.9406,6.9406,6.9406,6.9406,6.9406,6.9406,6.9406,6.9406,6.9406,6.9356,6.8826,6.8374,6.7995,6.7263,6.6614,6.6036,0.0,0.0,0.0,0.0,0.0,0.0,0.0,0.0,0.0,0.0,0.0,0.0,0.0,0.0,0.0,0.0,0.0,0.0,4.3737,4.8809,5.3456,5.7466,6.0489,6.2614,6.3766,6.3961,6.4425,6.5099,6.5817,6.6879,6.8226,6.896,6.9618,7.0231,7.0231,7.0231,7.0231,7.0231,6.9228,6.7493,6.5943,6.3523,6.0446,5.6402,5.2342,0.0,0.0,0.0,0.0,0.0,0.0,0.0,0.0,0.0,0.0,0.0,0.0,0.0,0.0,4.9264,5.3005,5.6413,5.9684,6.2496,6.3957,6.5688,6.6642,6.5463,6.453,6.3546,6.2365,6.0783,6.0864,6.463,6.5383,6.6689,7.0102,6.9901,6.8544,6.6183,6.6162,0.0,0.0,0.0,0.0,7.1131,7.1686,7.2114,7.2666,7.3068,7.3217,7.3018,7.3192,7.3093,7.2717,7.2164,7.1711,7.1332,7.0405,6.9777,6.9406,6.9406,6.9406,6.9406,6.9406,6.9406,6.9406,6.9406,6.9406,6.9356,6.9004,6.8675,6.8274,6.7543,6.7041,6.6589,0.0,0.0,0.0,0.0,0.0,0.0,0.0,0.0,0.0,0.0,0.0,0.0,0.0,0.0,0.0,0.0,0.0,0.0,4.2179,4.4147,4.7385,5.2528,5.2947,5.3947,5.5863,5.5311,5.5927,5.7799,5.9714,6.1957,6.4486,6.6416,6.7643,6.8286,6.8345,6.8345,6.8345,6.8375,6.6924,6.4486,6.2498,5.9526,5.5708,5.0334,0.0,0.0,0.0,0.0,0.0,0.0,0.0,0.0,0.0,0.0,0.0,0.0,0.0,4.3983,5.0049,5.3725,5.6846,6.114,6.3852,6.5735,6.6836,6.7769,6.7521,6.4304,6.2927,6.1321,0.0,0.0,5.7022,6.2546,6.3178,6.4885,7.0378,6.93,6.7719,0.0,0.0,0.0,0.0,0.0,0.0,7.0074,0.0,7.2113,7.2666,7.2767,7.3018,7.3544,7.3018,7.2742,7.2717,7.2139,7.1309,7.025,6.9679,6.9406,6.9406,6.9406,6.9406,6.9406,6.9406,6.9406,6.9406,6.9406,6.9406,6.9406,6.9356,6.9356,6.923,6.8196,6.7769,6.7518,0.0,0.0,0.0,0.0,0.0,0.0,0.0,0.0,0.0,0.0,0.0,0.0,0.0,0.0,0.0,0.0,0.0,0.0,3.884,4.1339,4.3851,4.6469,4.9381,5.1206,5.1714,5.2055,5.2713,5.3713,5.4221,5.5316,5.6961,5.7483,5.8082,5.874,5.9232,5.9455,5.9472,5.9951,6.0027,5.9661,0.0,5.5785,5.4378,0.0,0.0,0.0,0.0,0.0,0.0,0.0,0.0,0.0,0.0,0.0,4.1076,0.0,0.0,5.0125,5.5383,5.9151,6.2144,6.4479,6.6416,6.7822,6.8145,6.7141,6.5559,6.3454,5.8987,5.4795,0.0,0.0,0.0,5.9212,6.2952,0.0,7.1083,7.0857,0.0,0.0,0.0,6.7216,6.6811,6.7367,0.0,0.0,7.093,7.1711,7.2666,7.352,7.3645,7.2943,7.3217,7.3143,7.2717,7.1786,7.0732,6.9629,6.9456,6.9406,6.9406,6.9406,6.9406,6.9406,6.9406,6.9406,6.9406,6.9406,6.9406,6.9356,6.8977,6.8801,6.8726,6.8045,6.7565,6.7087,0.0,0.0,0.0,0.0,0.0,0.0,0.0,0.0,0.0,0.0,0.0,0.0,0.0,0.0,0.0,0.0,0.0,0.0,0.0,3.7853,3.9624,4.1131,4.3188,4.4733,4.561,4.5879,4.6779,4.8286,4.8895,5.0301,5.2462,5.3042,5.3683,5.4354,5.4725,5.4875,5.4905,5.5251,0.0,0.0,0.0,0.0,0.0,0.0,0.0,0.0,0.0,0.0,0.0,0.0,0.0,4.0087,4.1542,4.3198,4.5457,4.9891,0.0,5.4838,5.9603,6.2993,6.5534,6.7144,6.8274,6.845,6.6492,6.4731,6.2215,5.76,5.3113,0.0,0.0,0.0,0.0,0.0,0.0,0.0,7.0857,7.0857,7.0003,0.0,6.8949,0.0,6.8469,6.8996,6.9903,0.0,7.141,7.1937,7.3018,7.372,7.3846,7.347,7.3269,7.2816,7.2012,7.1636,7.0882,6.9803,7.0031,7.0006,6.9803,6.9803,6.9654,6.9406,0.0,6.9406,6.9406,6.9406,6.9406,6.9356,6.9055,6.8929,6.8876,6.8073,6.7593,6.7216,0.0,0.0,0.0,0.0,0.0,0.0,0.0,0.0,0.0,0.0,0.0,0.0,0.0,0.0,0.0,0.0,0.0,0.0,0.0,0.0,0.0,3.6895,3.6655,3.7281,3.903,3.885,3.9878,0.0,0.0,0.0,4.836,0.0,0.0,0.0,0.0,0.0,0.0,0.0,0.0,0.0,0.0,0.0,0.0,0.0,0.0,0.0,0.0,0.0,0.0,0.0,4.2827,4.3617,4.6763,4.8686,5.0652,5.5006,5.6979,5.8736,6.3073,6.5735,6.7668,6.9152,6.928,6.7951,6.368,6.1341,5.787,4.9983,0.0,4.4694,4.2324,4.4231,4.8394,5.5096,0.0,6.4228,7.0353,7.0282,6.9855,7.0428,7.0054,6.993,7.0453,7.0579,7.1232,7.2717,7.2441,7.264,7.3544,7.3669,7.3845,7.4147,7.3219,7.2215,7.1232,7.1661,7.1384,7.0426,7.088,7.0855,7.0378,7.035,7.0026,6.9506,0.0,0.0,6.9406,6.9406,6.9406,6.9406,6.9406,6.9406,6.928,6.8296,6.7869,6.7643,0.0,0.0,0.0,0.0,0.0,0.0,0.0,0.0,0.0,0.0,3.1336,3.1446,0.0,0.0,0.0,0.0,0.0,0.0,0.0,0.0,0.0,3.5591,3.5045,3.4899,3.526,0.0,0.0,0.0,0.0,0.0,3.8639,0.0,0.0,0.0,0.0,0.0,0.0,0.0,0.0,0.0,0.0,0.0,0.0,0.0,0.0,0.0,0.0,0.0,0.0,0.0,4.6155,4.809,5.0469,5.2929,5.5717,5.9684,6.1296,6.2576,6.6137,6.8023,6.9177,6.9951,6.877,6.6488,6.2948,5.8083,0.0,0.0,0.0,4.0715,4.0212,4.3151,4.7973,5.5064,0.0,0.0,0.0,0.0,7.1008,0.0,0.0,0.0,0.0,0.0,0.0,0.0,0.0,7.387,7.3619,7.4021,7.3871,7.3018,7.2817,7.239,7.1761,7.1861,7.1585,7.0956,7.1056,7.1056,7.0956,7.0478,7.0227,7.0127,0.0,0.0,6.9406,6.9406,6.9406,6.9406,6.9406,6.9406,6.9306,6.8701,6.8173,6.7719,0.0,0.0,0.0,0.0,0.0,0.0,0.0,3.0643,3.1019,3.2135,3.2527,3.2376,3.1497,3.1376,3.1476,0.0,0.0,0.0,0.0,0.0,0.0,0.0,0.0,0.0,0.0,0.0,0.0,0.0,0.0,0.0,0.0,0.0,0.0,0.0,0.0,0.0,0.0,0.0,0.0,0.0,0.0,0.0,0.0,0.0,0.0,0.0,0.0,0.0,0.0,0.0,4.6416,4.9958,5.4202,5.7223,5.9759,6.2516,6.4103,6.5459,6.7643,6.9024,7.0003,7.0579,6.862,6.4906,5.8685,0.0,0.0,0.0,0.0,3.7099,3.7099,4.1455,0.0,0.0,0.0,0.0,0.0,0.0,0.0,0.0,0.0,0.0,0.0,0.0,0.0,0.0,0.0,0.0,7.4046,7.3996,7.3594,7.2742,7.2717,7.2441,7.1912,7.2164,7.2062,7.151,7.1811,7.1786,7.1485,7.0956,7.0554,7.0275,6.9654,0.0,6.9406,6.9406,6.9406,6.9406,6.9406,6.9406,6.9331,6.8801,6.8249,6.7719,0.0,0.0,0.0,0.0,0.0,0.0,0.0,3.1637,3.2064,3.342,3.3771,3.3294,3.1738,3.1311,3.116,0.0,0.0,0.0,0.0,0.0,0.0,0.0,0.0,0.0,0.0,0.0,0.0,0.0,0.0,0.0,0.0,0.0,0.0,0.0,0.0,0.0,0.0,0.0,0.0,0.0,0.0,0.0,0.0,0.0,0.0,0.0,0.0,0.0,0.0,0.0,4.501,4.9204,5.5082,5.9257,6.232,6.3873,6.558,6.7288,6.8622,6.97,7.0554,7.1006,6.8221,6.3203,5.482,4.9432,0.0,0.0,3.4338,3.4803,3.5166,0.0,4.4278,0.0,5.1783,0.0,0.0,0.0,0.0,0.0,0.0,0.0,0.0,0.0,0.0,0.0,0.0,0.0,7.4373,7.377,7.3192,7.2717,7.2717,7.2491,7.2087,7.2491,7.2491,7.2087,7.2491,7.2466,7.2039,7.151,7.0981,7.0428,6.9853,0.0,0.0,6.9406,6.9406,6.9406,6.9406,6.9406,6.9331,6.8801,6.8324,6.7869,0.0,0.0,0.0,0.0,0.0,0.0,0.0,3.2466,3.2896,3.4993,3.4477,3.3445,3.2254,3.2577,3.2275,0.0,0.0,0.0,0.0,0.0,0.0,0.0,0.0,0.0,0.0,0.0,0.0,0.0,0.0,0.0,0.0,0.0,0.0,0.0,0.0,0.0,0.0,0.0,0.0,0.0,0.0,0.0,0.0,0.0,0.0,0.0,0.0,0.0,0.0,0.0,0.0,4.4482,4.9565,5.615,6.2245,6.3425,0.0,0.0,6.9574,7.0579,7.1031,7.1081,6.7066,6.1321,5.4451,0.0,0.0,3.5203,3.4338,3.5166,3.6696,0.0,0.0,0.0,0.0,5.4579,0.0,0.0,0.0,0.0,0.0,0.0,0.0,0.0,0.0,0.0,0.0,0.0,0.0,7.3369,7.2767,7.2717,7.2717,7.2692,7.2641,7.2692,7.2692,7.2641,7.2692,7.2666,7.2616,7.2087,7.1535,7.1006,0.0,0.0,0.0,6.9406,6.9406,6.9406,6.9406,6.9406,6.9331,6.8801,6.8575,6.8374,0.0,0.0,0.0,0.0,0.0,0.0,3.1798,3.1024,3.1265,3.4162,3.4762,3.4602,3.3776,3.4246,3.3389,3.0365,0.0,0.0,0.0,0.0,0.0,0.0,0.0,0.0,0.0,0.0,0.0,0.0,0.0,0.0,0.0,0.0,0.0,0.0,0.0,0.0,0.0,0.0,0.0,0.0,0.0,0.0,0.0,0.0,0.0,0.0,0.0,0.0,0.0,0.0,0.0,0.0,4.285,4.8083,0.0,0.0,6.2747,6.5258,6.8798,7.0656,7.151,7.1182,6.6413,6.001,5.2988,0.0,3.9383,3.3581,3.3093,3.3933,3.4622,3.6457,3.8969,4.2286,0.0,0.0,5.5189,0.0,0.0,0.0,0.0,0.0,0.0,0.0,0.0,0.0,0.0,0.0,0.0,7.3143,7.2717,7.2717,7.2717,7.2717,7.2717,7.2717,7.2717,7.2717,7.2717,7.2717,7.2666,7.1811,7.1284,7.1056,0.0,0.0,0.0,6.9406,6.9406,6.9406,6.9406,6.9406,6.9381,6.9155,6.8675,6.807,0.0,0.0,0.0,0.0,0.0,2.9509,3.1361,3.0497,3.0723,3.3735,3.4691,3.5001,3.4729,3.4508,3.3328,3.0738,3.0768,0.0,0.0,0.0,0.0,0.0,0.0,0.0,0.0,0.0,0.0,0.0,0.0,0.0,0.0,0.0,0.0,0.0,0.0,0.0,0.0,0.0,0.0,0.0,0.0,0.0,0.0,0.0,0.0,0.0,0.0,0.0,0.0,0.0,0.0,0.0,0.0,0.0,0.0,0.0,5.9332,6.2827,6.7446,7.0029,7.1359,7.1133,6.5857,5.895,0.0,0.0,3.8027,3.2953,3.2537,3.319,3.3506,3.5278,3.7186,3.8668,4.04,4.3865,5.0385,5.3934,5.8278,0.0,0.0,0.0,0.0,0.0,0.0,0.0,0.0,0.0,0.0,7.352,7.3043,7.2717,7.2867,7.2867,7.2717,7.2717,7.2717,7.2717,7.2717,7.2717,7.2666,7.1761,7.1234,7.1056,0.0,0.0,0.0,6.9406,6.9406,6.9406,6.9406,6.9406,6.9406,6.9406,6.8826,6.802,0.0,0.0,0.0,0.0,0.0,0.0,3.1842,3.1738,3.2164,3.4402,3.4248,3.4109,3.4653,3.2753,3.1633,3.2129,3.0733,0.0,0.0,0.0,0.0,0.0,0.0,0.0,0.0,0.0,3.3355,3.3897,3.3366,0.0,0.0,0.0,0.0,0.0,0.0,0.0,0.0,0.0,0.0,0.0,0.0,0.0,0.0,0.0,0.0,0.0,0.0,0.0,0.0,0.0,0.0,0.0,0.0,0.0,0.0,0.0,5.5239,6.0613,6.5656,6.8642,7.0428,7.0981,6.5279,5.8052,0.0,0.0,3.7788,3.3894,3.309,3.3431,3.4488,3.5143,3.6259,3.8542,4.0741,4.4335,5.0435,5.4569,5.824,0.0,0.0,0.0,0.0,0.0,0.0,0.0,0.0,0.0,0.0,7.4674,7.3871,7.2742,7.3293,7.3318,7.2717,7.2717,7.2717,7.2717,7.2717,7.2717,7.2692,7.2139,7.161,0.0,0.0,0.0,0.0,6.9406,6.9406,6.9406,6.9406,6.9406,6.9406,6.9406,6.9077,6.8525,0.0,0.0,0.0,0.0,0.0,0.0,0.0,2.9176,2.9387,3.1602,3.2782,3.3597,3.4111,3.3579,3.2915,3.2252,3.105,0.0,0.0,0.0,0.0,0.0,0.0,0.0,0.0,0.0,3.319,3.3355,3.3556,3.3897,0.0,0.0,0.0,0.0,0.0,0.0,0.0,0.0,0.0,0.0,0.0,0.0,0.0,0.0,0.0,0.0,0.0,0.0,0.0,0.0,0.0,0.0,0.0,0.0,0.0,4.1003,0.0,0.0,5.802,6.1215,6.2973,6.0909,5.652,5.149,4.6718,0.0,3.5794,3.3058,3.248,3.2932,3.4427,3.5143,3.6623,3.9972,4.1468,4.3668,0.0,0.0,0.0,0.0,0.0,0.0,0.0,0.0,0.0,0.0,0.0,0.0,0.0,7.4499,7.4047,7.3343,7.3494,7.3318,7.2717,7.2717,7.2717,7.2717,7.2717,7.2516,7.2138,7.1585,0.0,0.0,0.0,0.0,0.0,6.9406,6.9406,6.9406,6.9406,6.9406,6.9406,6.9406,6.9055,6.8525,0.0,0.0,0.0,0.0,0.0,0.0,0.0,2.8163,2.8247,3.0046,3.1237,3.2409,3.3758,3.3362,3.2895,3.2565,3.1351,0.0,0.0,0.0,0.0,0.0,0.0,0.0,0.0,3.3215,3.3503,3.4357,3.4449,3.484,3.5454,3.5919,3.6033,0.0,0.0,0.0,0.0,0.0,0.0,0.0,0.0,0.0,3.3294,0.0,0.0,0.0,0.0,0.0,0.0,0.0,0.0,0.0,0.0,0.0,0.0,0.0,0.0,0.0,0.0,5.5465,5.7323,5.5265,5.1373,0.0,0.0,0.0,3.4137,3.252,3.2028,3.2365,3.3811,3.4703,3.6071,3.868,0.0,0.0,0.0,0.0,0.0,0.0,0.0,0.0,0.0,0.0,0.0,0.0,0.0,0.0,0.0,0.0,7.4449,7.392,7.3694,7.3318,7.2717,7.2717,7.2717,7.2717,7.2491,7.2215,7.1887,7.1131,0.0,0.0,0.0,0.0,0.0,6.9406,6.9406,6.9406,6.9406,6.9406,6.9406,6.9406,6.8929,6.8249,0.0,0.0,0.0,0.0,0.0,0.0,0.0,2.848,2.8549,2.9603,2.9839,3.0859,3.3395,3.23,3.1798,3.2839,0.0,0.0,0.0,0.0,0.0,0.0,0.0,0.0,0.0,3.3431,3.417,3.6267,3.5718,3.6247,3.7802,3.7349,3.6884,3.6393,3.6393,0.0,0.0,0.0,0.0,0.0,0.0,0.0,0.0,0.0,0.0,0.0,0.0,0.0,0.0,0.0,0.0,0.0,0.0,0.0,0.0,0.0,0.0,0.0,0.0,0.0,0.0,0.0,0.0,0.0,0.0,0.0,0.0,3.2254,3.1738,3.1773,3.304,3.4048,3.4942,0.0,0.0,0.0,0.0,0.0,0.0,0.0,0.0,0.0,0.0,0.0,0.0,0.0,0.0,0.0,0.0,0.0,7.4875,7.4398,7.3845,7.3268,7.2717,7.2666,7.2641,7.2641,7.2089,7.1836,7.1761,7.0755,0.0,0.0,0.0,0.0,0.0,6.9406,6.9406,6.9406,6.9406,6.9406,6.9406,6.9356,6.8726,6.7844,0.0,0.0,0.0,0.0,0.0,0.0,0.0,0.0,0.0,0.0,3.0231,3.111,3.1351,3.1386,3.1336,0.0,0.0,0.0,0.0,0.0,0.0,0.0,0.0,0.0,3.4527,3.3997,3.4173,3.5091,3.4954,3.5294,3.6096,3.642,3.6519,3.6393,3.6393,3.5778,0.0,0.0,0.0,0.0,0.0,0.0,0.0,0.0,0.0,0.0,3.309,3.3266,0.0,0.0,0.0,0.0,0.0,0.0,0.0,0.0,3.3861,3.5177,3.6595,0.0,0.0,0.0,3.9144,0.0,0.0,0.0,0.0,0.0,0.0,3.2114,3.4502,3.4803,3.5707,0.0,0.0,0.0,0.0,0.0,0.0,0.0,0.0,0.0,0.0,0.0,0.0,0.0,0.0,0.0,0.0,0.0,7.4121,7.4373,7.3419,7.2842,7.2717,7.229,7.2089,7.2064,7.1535,7.1081,7.0654,7.0426,0.0,0.0,0.0,0.0,6.9406,6.9406,6.9406,6.9406,6.9406,6.9406,6.9356,6.8952,6.8625,6.8274,0.0,0.0,0.0,0.0,0.0,0.0,0.0,0.0,0.0,0.0,0.0,3.1009,3.0974,3.1461,0.0,0.0,0.0,0.0,0.0,0.0,0.0,0.0,0.0,3.4993,3.4703,3.4162,3.455,3.5855,3.533,3.5757,3.7049,3.6859,3.6644,3.638,3.5602,3.5052,0.0,0.0,0.0,0.0,0.0,0.0,0.0,0.0,0.0,0.0,3.2411,3.2476,0.0,3.3355,3.3707,3.3847,0.0,0.0,0.0,0.0,3.2265,3.2702,3.2411,3.5027,3.7338,3.528,3.4614,3.4011,0.0,0.0,0.0,0.0,0.0,3.1938,3.3674,0.0,0.0,0.0,0.0,0.0,0.0,0.0,0.0,0.0,0.0,0.0,0.0,0.0,0.0,0.0,0.0,0.0,0.0,0.0,7.3996,7.4046,7.2917,7.2315,7.2315,7.2062,7.1786,7.151,7.0981,7.0579,7.03,7.0026,0.0,0.0,0.0,0.0,6.9406,6.9406,6.9406,6.9381,6.913,6.9029,6.8979,6.8701,6.8274,6.7819,0.0,0.0,0.0,0.0,0.0,0.0,0.0,0.0,0.0,0.0,0.0,0.0,0.0,0.0,0.0,0.0,0.0,0.0,0.0,0.0,0.0,0.0,0.0,3.4915,3.4828,3.4288,3.4951,3.6822,3.6183,3.6861,3.8743,3.8128,3.7349,3.6443,3.4862,3.4313,0.0,0.0,0.0,0.0,0.0,0.0,0.0,0.0,0.0,0.0,0.0,0.0,0.0,3.2627,3.3079,3.3319,3.2853,0.0,0.0,0.0,0.0,0.0,3.1472,3.3018,3.4413,3.3696,3.2982,3.2279,3.1572,0.0,0.0,0.0,0.0,0.0,0.0,0.0,0.0,0.0,0.0,0.0,0.0,0.0,0.0,0.0,0.0,0.0,0.0,0.0,0.0,0.0,0.0,0.0,0.0,0.0,0.0,7.3594,7.2489,7.1861,7.1786,7.1711,7.141,7.0981,7.0428,7.0152,7.0152,6.9629,6.9406,0.0,0.0,0.0,6.9406,6.9406,6.9406,6.9356,6.8826,6.865,6.8701,6.845,6.7819,6.7163,0.0,0.0,0.0,0.0,0.0,0.0,0.0,0.0,0.0,0.0,0.0,0.0,0.0,0.0,0.0,0.0,0.0,0.0,0.0,0.0,0.0,3.5966,3.6091,3.5892,3.5382,3.4853,3.4728,3.5079,3.6786,3.7814,3.8191,3.9872,3.9383,3.7022,3.5807,3.4803,3.3972,0.0,0.0,0.0,0.0,0.0,0.0,0.0,0.0,0.0,0.0,0.0,0.0,3.1472,3.1411,3.11,3.0999,0.0,0.0,0.0,0.0,0.0,3.1828,3.3032,3.3671,3.215,3.2717,3.3244,3.1748,0.0,0.0,0.0,0.0,0.0,0.0,0.0,0.0,0.0,0.0,0.0,0.0,0.0,0.0,0.0,0.0,0.0,0.0,0.0,0.0,0.0,0.0,0.0,0.0,0.0,0.0,7.3594,7.2489,7.1686,7.1232,7.078,7.0503,7.0426,6.9828,6.9554,6.9554,6.9431,6.9406,0.0,0.0,6.9406,6.9406,6.9406,6.9406,6.9356,6.8826,6.8876,6.9105,6.7744,6.7417,6.7543,0.0,0.0,0.0,0.0,0.0,0.0,0.0,0.0,0.0,0.0,0.0,0.0,0.0,0.0,0.0,0.0,0.0,0.0,0.0,0.0,0.0,3.5844,3.5629,3.5492,3.5508,3.5869,3.6207,3.6496,3.8404,3.9672,4.0276,3.9734,3.8693,3.7098,3.5102,3.4087,3.3872,3.3341,0.0,0.0,0.0,0.0,0.0,0.0,0.0,0.0,0.0,0.0,0.0,0.0,3.1035,3.0588,3.0588,0.0,0.0,0.0,0.0,0.0,3.0758,3.1913,3.3083,3.3498,3.4438,3.4901,3.3509,0.0,0.0,0.0,0.0,0.0,0.0,0.0,0.0,0.0,0.0,0.0,0.0,0.0,0.0,0.0,0.0,0.0,0.0,0.0,0.0,0.0,0.0,0.0,0.0,0.0,0.0,0.0,7.1887,7.1232,7.0679,7.0104,6.9828,6.9828,6.9529,6.9406,6.9406,6.9406,6.9406,6.9406,0.0,6.9406,6.9406,6.9406,6.9406,6.9356,6.8826,6.8575,6.8374,6.7015,6.6887,6.7263,0.0,0.0,0.0,0.0,0.0,0.0,0.0,0.0,0.0,0.0,0.0,0.0,0.0,0.0,0.0,0.0,0.0,0.0,0.0,0.0,3.4463,3.5294,3.5305,3.5481,3.5907,3.6759,3.76,3.8391,4.0462,4.1907,4.2688,3.9785,3.7889,3.6922,3.4536,3.3556,3.3682,3.3255,3.309,0.0,0.0,0.0,0.0,0.0,0.0,0.0,0.0,0.0,0.0,0.0,0.0,0.0,0.0,0.0,0.0,2.9148,2.9318,2.9914,3.0442,3.1562,3.3108,3.518,0.0,3.627,0.0,0.0,0.0,0.0,0.0,0.0,0.0,0.0,0.0,0.0,0.0,0.0,0.0,0.0,0.0,0.0,0.0,0.0,0.0,0.0,0.0,0.0,0.0,0.0,0.0,0.0,0.0,0.0,7.1359,7.083,7.0325,6.9705,6.9406,6.9406,6.9406,6.9406,6.9406,6.9406,6.9406,6.9406,6.9406,6.9406,6.9406,6.9406,6.9406,6.9356,6.8826,6.8196,6.7518,6.6789,6.6614,6.6736,0.0,0.0,0.0,0.0,0.0,0.0,0.0,0.0,0.0,0.0,0.0,0.0,0.0,0.0,0.0,0.0,0.0,0.0,0.0,0.0,3.4678,3.4753,3.6207,3.7048,3.7073,3.7148,3.7977,3.9572,4.2746,4.4353,4.4353,4.1103,3.8467,3.6396,3.5141,3.4048,3.3165,3.3115,3.309,3.309,0.0,0.0,0.0,0.0,0.0,0.0,0.0,0.0,0.0,0.0,0.0,0.0,0.0,0.0,2.9007,2.8922,2.9318,3.0241,3.2311,3.3305,3.4198,3.5904,3.5956,0.0,0.0,0.0,0.0,0.0,0.0,0.0,0.0,0.0,0.0,0.0,0.0,0.0,0.0,0.0,0.0,0.0,0.0,0.0,0.0,0.0,0.0,0.0,0.0,0.0,0.0,0.0,0.0,0.0,0.0,7.083,7.0325,6.9705,6.9406,6.9406,6.9406,6.9406,6.9406,6.9406,6.9406,6.9406,6.9406,6.9406,6.9406,6.9406,6.9406,6.9356,6.8826,6.797,6.7113,6.7518,6.7041,6.614,0.0,0.0,0.0,0.0,0.0,0.0,0.0,0.0,0.0,0.0,0.0,0.0,0.0,0.0,0.0,0.0,0.0,0.0,0.0,3.3596,3.3707,3.3707,3.4625,3.5164,3.5164,3.8542,4.1105,4.2746,4.4367,4.4955,4.4514,4.0512,3.7651,3.5782,3.4338,3.3481,3.309,3.309,3.309,3.309,3.309,0.0,0.0,0.0,0.0,0.0,0.0,0.0,0.0,0.0,2.8473,2.8147,2.8339,2.8631,2.8897,2.8897,2.9318,3.0065,3.1235,3.3172,3.5456,3.7851,0.0,0.0,0.0,0.0,0.0,0.0,0.0,0.0,0.0,0.0,0.0,0.0,0.0,0.0,0.0,0.0,0.0,0.0,0.0,0.0,0.0,0.0,0.0,0.0,0.0,0.0,0.0,0.0,0.0,0.0,0.0,7.0328,6.973,6.9506,6.9406,6.9406,6.9406,6.9406,6.9406,6.9406,6.9406,6.9406,6.9406,6.9406,6.9406,6.9406,6.9205,6.8851,6.8299,6.7844,6.7467,6.7364,6.6789,6.614,0.0,0.0,0.0,0.0,0.0,0.0,0.0,0.0,0.0,0.0,0.0,0.0,0.0,0.0,0.0,0.0,0.0,0.0,3.309,3.309,3.3004,3.2828,3.3495,3.4223,3.4938,3.9509,4.2548,4.384,4.5121,4.4995,4.3485,3.9734,3.7124,3.5433,3.3822,3.3291,3.3581,3.3241,3.309,3.309,3.2878,3.225,0.0,0.0,0.0,0.0,0.0,0.0,0.0,0.0,2.7871,2.767,2.8188,2.848,2.8731,2.9082,2.9478,2.9905,3.0437,3.262,3.5406,0.0,0.0,0.0,0.0,0.0,0.0,0.0,0.0,0.0,0.0,0.0,0.0,0.0,0.0,0.0,0.0,0.0,0.0,0.0,0.0,0.0,0.0,0.0,0.0,0.0,0.0,0.0,0.0,0.0,0.0,0.0,0.0,7.0026,6.9406,6.9406,6.9406,6.9406,6.9406,6.9406,6.9406,6.9406,6.9306,6.9155,6.9331,6.9205,6.8926,6.908,6.8826,6.8299,6.7945,6.7693,6.7493,6.7138,6.6614,6.614,0.0,0.0,0.0,0.0,0.0,0.0,0.0,0.0,0.0,0.0,0.0,0.0,0.0,0.0,0.0,0.0,0.0,0.0,3.309,3.309,3.2828,3.2229,3.3294,3.4913,3.7073,3.9822,4.1567,4.2224,4.4934,4.4554,4.1227,3.9006,3.7087,3.5419,3.3822,3.3707,3.4614,3.3556,3.309,3.304,3.2441,3.1888,0.0,0.0,0.0,0.0,0.0,0.0,0.0,0.0,2.7386,2.6801,2.8389,2.853,2.8339,2.9462,2.9814,2.9955,3.0472,3.1873,3.3818,0.0,0.0,0.0,0.0,0.0,0.0,0.0,0.0,0.0,0.0,0.0,0.0,0.0,0.0,0.0,0.0,0.0,0.0,0.0,0.0,0.0,0.0,0.0,0.0,0.0,0.0,0.0,0.0,0.0,0.0,0.0,7.03,0.0,6.9406,6.9406,6.9406,6.9406,6.9406,6.9406,6.9406,6.9406,6.9127,6.8625,6.9155,6.8801,6.7844,6.8374,6.8274,6.7794,6.7794,6.7489,6.6987,6.6987,6.6614,6.609,0.0,0.0,0.0,0.0,0.0,0.0,0.0,0.0,0.0,0.0,0.0,0.0,0.0,0.0,0.0,0.0,0.0,0.0,3.309,3.309,3.2663,3.1687,3.3093,3.3108,3.1401,3.4853,3.8856,4.3327,4.3754,4.187,3.7826,3.7185,3.5993,3.4363,3.4262,3.3972,3.3556,3.3241,3.2638,3.1924,3.2104,3.1652,3.0824,0.0,0.0,0.0,0.0,0.0,0.0,0.0,0.0,0.0,2.8072,2.9041,2.9845,2.9804,3.116,3.2641,3.2426,3.4988,0.0,0.0,0.0,0.0,0.0,0.0,0.0,0.0,0.0,0.0,0.0,0.0,0.0,0.0,0.0,0.0,0.0,0.0,0.0,0.0,0.0,0.0,0.0,0.0,0.0,0.0,0.0,0.0,0.0,0.0,0.0,0.0,6.9878,6.9579,6.9406,6.9406,6.9406,6.9406,6.9406,6.9406,6.9406,6.9406,6.9127,6.8625,6.9155,6.9027,6.8349,6.8145,6.7945,6.7769,6.7367,6.7138,6.6987,6.6987,6.6614,6.614,0.0,0.0,0.0,0.0,0.0,0.0,0.0,0.0,0.0,0.0,0.0,0.0,0.0,0.0,0.0,0.0,0.0,0.0,0.0,3.2889,3.2351,3.1446,3.2376,3.248,3.1556,3.4714,3.7726,4.0499,4.1304,3.976,3.6068,3.6721,3.6369,3.5228,3.5768,3.5415,3.4371,3.3933,3.2943,3.1738,3.2079,3.1677,3.0924,0.0,0.0,0.0,0.0,0.0,0.0,0.0,0.0,0.0,2.7921,2.8941,2.9986,3.0331,3.1461,3.2807,3.3796,3.6659,0.0,0.0,0.0,0.0,0.0,0.0,0.0,0.0,0.0,0.0,0.0,0.0,0.0,0.0,0.0,0.0,0.0,0.0,0.0,0.0,0.0,0.0,0.0,0.0,0.0,0.0,0.0,0.0,0.0,0.0,0.0,0.0,6.9604,6.9406,6.9406,6.9406,6.9406,6.9406,6.918,6.908,6.908,6.908,6.8675,6.797,6.8048,6.8048,6.7919,6.7367,6.7141,6.7091,6.6764,6.6639,6.6639,6.6639,6.6413,6.614,0.0,0.0,0.0,0.0,0.0,0.0,0.0,0.0,0.0,0.0,0.0,0.0,0.0,0.0,0.0,0.0,0.0,0.0,0.0,0.0,3.2039,3.1497,3.1472,3.2656,3.5244,3.7312,3.7337,3.5207,3.8078,3.8015,3.5232,3.7112,3.7688,3.7148,3.7739,3.7349,3.6167,3.5052,3.3585,3.2043,3.2154,3.1853,3.1321,3.1271,0.0,0.0,0.0,0.0,0.0,0.0,0.0,0.0,2.7921,2.8539,2.9349,3.0809,3.116,3.1742,3.4942,0.0,0.0,4.7104,0.0,0.0,0.0,0.0,0.0,0.0,0.0,0.0,0.0,0.0,0.0,0.0,0.0,0.0,0.0,0.0,0.0,0.0,0.0,0.0,0.0,0.0,0.0,0.0,0.0,0.0,0.0,0.0,0.0,0.0,6.9406,6.9381,6.9331,6.9331,6.9306,0.0,6.8776,6.85,6.845,6.85,6.7995,6.7037,6.6438,6.6488,6.6962,6.6413,6.614,6.609,6.609,6.609,6.609,6.609,6.609,6.609,0.0,0.0,0.0,0.0,0.0,0.0,0.0,0.0,0.0,0.0,0.0,0.0,0.0,0.0,0.0,0.0,0.0,0.0,0.0,0.0,3.2641,3.2054,3.2039,3.2541,3.3596,3.4095,3.3883,3.2896,3.6157,3.6081,3.2972,3.6396,3.75,3.6607,3.7563,3.6898,3.499,3.3908,3.2466,3.1014,3.1853,3.1627,3.0723,3.0306,2.9628,0.0,0.0,0.0,0.0,0.0,0.0,0.0,2.7921,2.9092,3.0211,3.0156,3.2204,3.4993,3.7487,4.0727,0.0,0.0,5.9734,0.0,0.0,0.0,0.0,0.0,0.0,0.0,0.0,0.0,0.0,0.0,0.0,0.0,0.0,0.0,0.0,0.0,0.0,0.0,0.0,0.0,0.0,0.0,0.0,0.0,0.0,0.0,0.0,6.9406,6.9406,6.9205,6.8776,6.8776,6.855,0.0,6.802,6.7744,6.7364,6.7769,6.7844,6.7593,6.7062,6.6887,6.6987,6.6861,6.6513,6.609,6.609,6.609,6.609,6.609,6.609,6.609,0.0,0.0,0.0,0.0,0.0,0.0,0.0,0.0,0.0,0.0,0.0,0.0,0.0,0.0,0.0,0.0,0.0,0.0,0.0,0.0,3.2541,3.2194,3.2491,3.2778,3.309,3.3366,3.3205,3.2616,3.4385,3.4461,3.3083,3.6182,3.7449,3.7198,3.8316,3.7588,3.5406,3.4048,3.2667,3.1416,3.1978,3.1552,3.0598,3.0557,2.9719,0.0,0.0,0.0,0.0,0.0,0.0,0.0,0.0,0.0,3.0256,3.0492,3.2365,3.5253,3.9371,0.0,0.0,5.7826,0.0,0.0,0.0,0.0,0.0,0.0,0.0,0.0,0.0,0.0,0.0,0.0,0.0,0.0,0.0,0.0,0.0,0.0,0.0,0.0,0.0,0.0,0.0,0.0,0.0,0.0,0.0,6.9406,6.9406,6.9406,6.9155,6.8876,6.86,6.8349,6.8095,6.7794,6.7518,6.7116,6.6564,6.6865,6.699,6.6965,6.6689,6.6564,6.6564,6.6564,6.6388,6.609,6.609,6.609,6.609,6.609,6.609,6.609,0.0,0.0,0.0,0.0,0.0,0.0,0.0,0.0,0.0,0.0,0.0,0.0,0.0,0.0,0.0,0.0,0.0,0.0,0.0,0.0,0.0,3.248,3.2979,3.3241,3.3241,3.3671,3.3632,3.309,3.2989,3.3431,0.0,3.6383,3.7525,3.7902,3.8843,3.804,3.5844,3.4173,3.2867,3.1928,3.1928,3.1401,3.0623,3.0758,2.9754,0.0,0.0,0.0,0.0,0.0,0.0,0.0,0.0,0.0,3.0131,3.112,3.2074,3.4045,3.9786,4.5311,5.1925,6.2089,6.7116,0.0,7.0755,0.0,0.0,0.0,0.0,0.0,0.0,0.0,0.0,0.0,0.0,0.0,0.0,0.0,0.0,0.0,0.0,0.0,0.0,0.0,0.0,0.0,0.0,0.0,6.9406,6.9406,6.9406,6.9406,6.8876,6.855,6.845,6.7844,6.7518,6.7493,6.7062,6.6538,6.5939,6.5939,6.599,6.609,6.5889,6.5886,6.5939,6.586,6.5835,6.5835,6.5936,6.5939,6.5986,6.6086,6.609,6.609,0.0,0.0,0.0,0.0,0.0,0.0,0.0,0.0,0.0,0.0,0.0,0.0,0.0,0.0,0.0,0.0,0.0,0.0,0.0,0.0,0.0,3.3621,3.3746,3.3796,3.3796,3.3847,3.3632,3.309,3.2566,0.0,0.0,0.0,0.0,3.7299,3.7475,3.6319,3.4123,3.2451,3.1386,3.0814,3.0814,3.0723,3.0437,2.9076,0.0,0.0,0.0,0.0,0.0,0.0,0.0,0.0,0.0,0.0,0.0,3.121,3.1497,3.2527,3.6721,4.6652,5.7305,0.0,6.7715,7.0202,0.0,0.0,0.0,0.0,0.0,0.0,0.0,0.0,0.0,0.0,0.0,0.0,0.0,0.0,0.0,0.0,0.0,0.0,0.0,0.0,0.0,0.0,0.0,0.0,6.9406,6.9406,6.9406,6.9406,6.8876,6.8374,6.7919,6.6865,6.6338,6.6338,6.6241,6.5936,6.543,6.543,6.566,6.604,6.5128,6.4978,6.5358,6.4902,6.4701,6.4752,6.5229,6.543,6.5459,6.5936,6.609,6.609,0.0,0.0,0.0,0.0,0.0,0.0,0.0,0.0,0.0,0.0,0.0,0.0,0.0,0.0,0.0,0.0,0.0,0.0,0.0,0.0,0.0,3.2943,3.3269,3.3456,3.3456,3.3456,3.318,3.2602,0.0,0.0,0.0,3.7777,3.8391,0.0,0.0,0.0,3.5125,3.2501,3.126,3.1009,3.0397,3.0322,3.0437,0.0,0.0,0.0,0.0,0.0,0.0,0.0,0.0,0.0,0.0,0.0,0.0,0.0,3.1371,3.3858,4.0839,4.9499,5.7882,0.0,6.7138,6.9501,7.0152,0.0,0.0,0.0,0.0,0.0,0.0,0.0,0.0,0.0,0.0,0.0,0.0,0.0,0.0,0.0,0.0,0.0,0.0,0.0,0.0,0.0,0.0,6.9255,6.8977,6.8929,6.8826,6.85,6.7995,6.7593,6.7364,6.6212,6.5484,6.5204,6.5204,6.5078,6.4852,6.4551,6.4701,6.5179,6.4701,6.4626,6.4827,6.4597,6.4496,6.4551,6.5103,6.5283,6.5333,6.5559,6.5835,6.604,0.0,0.0,0.0,0.0,0.0,0.0,0.0,0.0,0.0,0.0,0.0,0.0,0.0,0.0,0.0,0.0,0.0,0.0,0.0,0.0,0.0,3.2405,3.2853,3.309,3.309,3.2964,3.2641,3.2204,0.0,0.0,3.8442,3.8555,3.991,0.0,3.9421,0.0,0.0,0.0,0.0,0.0,3.0231,2.997,0.0,0.0,0.0,0.0,0.0,0.0,0.0,0.0,0.0,0.0,0.0,0.0,0.0,0.0,0.0,3.4536,4.3084,4.9473,5.5164,6.1285,6.5107,6.7769,0.0,0.0,0.0,0.0,0.0,0.0,0.0,0.0,0.0,0.0,0.0,0.0,0.0,0.0,0.0,0.0,0.0,0.0,0.0,0.0,0.0,0.0,0.0,6.8826,6.8424,6.8399,6.8199,6.7819,6.7288,6.6937,6.6786,6.5656,6.4827,6.43,6.4425,6.4446,6.4274,6.3726,6.3601,6.3873,6.3998,6.4149,6.4274,6.4124,6.4073,6.4149,6.4827,6.5103,6.5128,6.5383,6.576,6.604,0.0,0.0,0.0,0.0,0.0,0.0,0.0,0.0,0.0,0.0,0.0,0.0,0.0,0.0,3.2864,3.2305,3.2229,3.2204,3.2154,3.2179,3.2466,3.304,3.309,0.0,3.309,3.2541,3.2229,0.0,0.0,0.0,3.9622,4.0136,4.2657,4.6597,4.2769,3.9621,3.6984,0.0,0.0,0.0,0.0,0.0,0.0,0.0,0.0,0.0,0.0,0.0,0.0,0.0,0.0,0.0,0.0,0.0,0.0,0.0,0.0,0.0,3.9132,4.3776,4.8645,5.6319,6.1115,6.4655,0.0,0.0,0.0,0.0,0.0,0.0,0.0,0.0,0.0,0.0,0.0,0.0,0.0,0.0,0.0,0.0,0.0,0.0,0.0,0.0,0.0,0.0,0.0,6.7869,6.7844,6.7844,6.7819,6.7794,6.7288,6.6736,6.614,6.5078,6.4274,6.3747,6.4249,6.4224,6.3701,6.3128,6.2576,6.2169,6.2676,6.3203,6.3701,6.3128,6.2902,6.3003,6.4124,6.4547,6.4651,6.5685,6.6086,6.609,0.0,0.0,0.0,0.0,0.0,0.0,0.0,0.0,0.0,0.0,0.0,0.0,0.0,3.2516,3.229,3.1738,3.1376,3.1165,3.1165,3.1512,3.1938,3.2491,3.2878,3.309,3.309,3.2516,0.0,0.0,0.0,3.3359,3.7613,3.8479,4.1065,4.4855,4.203,4.0036,3.8529,3.4299,0.0,0.0,0.0,0.0,0.0,0.0,0.0,0.0,0.0,0.0,0.0,0.0,0.0,0.0,0.0,0.0,0.0,0.0,0.0,3.2867,3.7186,4.0966,4.5185,5.1523,5.6,5.9608,6.235,6.5061,6.7044,0.0,0.0,0.0,0.0,0.0,0.0,0.0,0.0,0.0,0.0,0.0,0.0,0.0,0.0,0.0,0.0,0.0,0.0,0.0,0.0,0.0,6.7314,6.7288,6.7091,6.6739,6.6187,6.5459,6.458,6.3802,6.3149,6.2621,6.2797,6.2596,6.2114,6.2245,6.1994,6.1512,6.1692,6.1893,6.2114,6.2245,6.2275,6.24,6.3525,6.4199,6.4547,6.4927,6.5509,6.604,0.0,0.0,0.0,0.0,0.0,0.0,0.0,0.0,0.0,0.0,0.0,0.0,0.0,0.0,3.1712,3.1185,3.0974,3.0799,3.0613,3.111,3.1637,3.2179,3.2591,3.2878,3.309,3.2315,0.0,0.0,0.0,0.0,0.0,3.74,3.9873,4.3151,4.0752,4.0099,0.0,0.0,0.0,3.342,0.0,0.0,3.2706,0.0,0.0,0.0,0.0,0.0,0.0,0.0,0.0,0.0,0.0,0.0,0.0,0.0,0.0,0.0,3.578,0.0,0.0,0.0,5.1356,5.4343,5.8961,0.0,6.4203,0.0,0.0,0.0,0.0,0.0,0.0,0.0,0.0,0.0,0.0,0.0,0.0,0.0,0.0,0.0,0.0,0.0,0.0,0.0,0.0,0.0,6.646,6.6259,6.5982,6.5584,6.4856,6.4128,6.34,6.2626,6.2074,6.1743,6.1918,6.1718,6.121,6.1567,6.1416,6.0889,6.0708,6.0858,6.1235,6.1567,6.1843,6.2094,6.3048,6.3847,6.45,6.4701,6.5333,6.6086,0.0,0.0,0.0,0.0,0.0,0.0,0.0,0.0,0.0,0.0,0.0,0.0,0.0,0.0,0.0,3.0688,3.111,3.1195,3.0663,3.1135,3.1673,3.2179,3.2229,3.2491,3.3065,3.1974,0.0,0.0,0.0,0.0,0.0,0.0,3.9333,4.1872,3.9145,3.9747,4.2523,0.0,3.7274,3.6091,0.0,3.2466,3.4299,0.0,0.0,0.0,3.9157,3.8391,0.0,0.0,0.0,0.0,0.0,0.0,0.0,0.0,0.0,0.0,0.0,0.0,0.0,0.0,0.0,0.0,5.7223,0.0,6.02,0.0,0.0,0.0,0.0,0.0,0.0,0.0,0.0,0.0,0.0,0.0,0.0,0.0,0.0,0.0,0.0,0.0,0.0,0.0,0.0,6.5279,6.5279,6.4777,6.4496,6.4446,6.3375,6.2802,6.2752,6.1692,6.1185,6.1185,6.1692,6.1667,6.116,6.116,6.0839,6.0242,5.9734,6.013,6.116,6.116,6.1492,6.2044,6.2576,6.3475,6.4551,6.5078,6.5634,6.6187,0.0,0.0,0.0,0.0,0.0,0.0,0.0,0.0,0.0,0.0,0.0,0.0,0.0,0.0,3.1928,3.1777,3.1903,3.1752,3.121,3.1687,3.2054,3.2204,3.2627,3.2727,3.2466,3.1763,3.121,0.0,3.0432,3.1035,3.2556,3.3847,0.0,0.0,3.6998,3.6898,3.686,3.4714,0.0,0.0,3.3481,3.4335,0.0,0.0,0.0,0.0,0.0,4.1003,0.0,0.0,3.9409,3.647,0.0,0.0,0.0,0.0,0.0,0.0,3.3646,0.0,0.0,0.0,0.0,0.0,0.0,0.0,0.0,6.1084,0.0,0.0,0.0,0.0,0.0,0.0,0.0,0.0,0.0,0.0,0.0,0.0,0.0,0.0,0.0,0.0,0.0,0.0,6.4902,6.4726,6.4726,6.4576,6.3948,6.2722,6.2752,6.2425,6.1642,6.0914,6.0563,6.0563,6.0693,6.0487,5.9985,6.0387,6.0261,5.9709,5.9558,5.9684,5.9985,6.0387,6.0889,6.1466,6.2019,6.3149,6.4521,6.4651,6.5329,6.6115,0.0,0.0,0.0,0.0,0.0,0.0,0.0,0.0,0.0,0.0,0.0,0.0,0.0,0.0,3.3202,3.1955,3.2079,3.1978,3.1446,3.1687,3.1964,3.2204,3.2541,3.2677,3.2566,3.1788,3.1246,0.0,3.0156,3.0115,3.0743,3.1421,0.0,0.0,0.0,0.0,0.0,0.0,0.0,0.0,3.5152,0.0,0.0,4.0237,4.1656,0.0,0.0,0.0,4.5386,4.5231,4.2986,0.0,0.0,0.0,0.0,0.0,0.0,0.0,0.0,0.0,0.0,0.0,0.0,0.0,4.4744,4.6903,5.0174,0.0,0.0,0.0,0.0,0.0,0.0,0.0,0.0,0.0,0.0,0.0,0.0,0.0,0.0,0.0,0.0,0.0,0.0,6.3776,6.3596,6.337,6.3144,6.3119,6.2667,6.1692,6.1723,6.1446,6.0839,6.0261,5.9985,5.9966,6.0191,6.0016,5.9533,6.0311,6.0236,5.9508,5.9734,5.9709,5.9533,6.0085,6.0663,6.126,6.1793,6.3023,6.4547,6.4752,6.5358,6.6137,0.0,0.0,0.0,0.0,0.0,0.0,0.0,0.0,0.0,0.0,3.2039,3.1687,0.0,0.0,0.0,0.0,3.2139,3.2064,3.1522,3.1497,3.1738,3.229,3.2305,3.2491,3.2914,3.1924,3.1346,0.0,0.0,0.0,0.0,0.0,0.0,0.0,0.0,0.0,0.0,0.0,0.0,3.4904,3.7249,3.9709,0.0,0.0,4.7089,0.0,4.9339,4.9656,4.9129,4.7666,4.5121,0.0,0.0,0.0,0.0,0.0,3.3883,0.0,0.0,0.0,0.0,0.0,0.0,0.0,4.4091,4.5146,4.715,0.0,0.0,0.0,0.0,0.0,0.0,0.0,0.0,0.0,0.0,0.0,0.0,0.0,0.0,0.0,0.0,6.2626,6.2626,6.2626,6.2174,6.1642,6.1059,6.1135,6.1135,6.1009,6.0563,6.0267,6.0217,5.9734,5.9483,5.9508,5.9985,5.994,5.9533,6.0557,6.0457,5.9533,6.0066,6.0035,5.9633,6.0186,6.0713,6.126,6.1868,6.3094,6.4551,6.5103,6.5634,6.6187,0.0,0.0,0.0,0.0,0.0,0.0,0.0,0.0,0.0,0.0,0.0,0.0,0.0,0.0,0.0,0.0,3.3621,3.2677,3.2079,3.2028,3.2315,3.2903,3.2903,3.2552,3.1748,3.1497,3.0969,3.0115,0.0,0.0,0.0,0.0,0.0,0.0,0.0,0.0,0.0,0.0,0.0,3.4979,3.8115,0.0,4.6195,4.8193,4.9866,5.1155,5.1498,5.2101,5.2226,0.0,4.6451,4.4131,0.0,0.0,0.0,0.0,0.0,0.0,0.0,0.0,0.0,0.0,0.0,0.0,3.9634,4.0588,4.338,0.0,5.104,0.0,0.0,0.0,0.0,0.0,0.0,0.0,0.0,0.0,0.0,0.0,0.0,0.0,0.0,6.1492,6.1492,6.1492,6.1436,6.0889,5.9904,6.0708,6.0783,5.9859,6.0161,6.0091,5.9659,5.9558,5.9483,5.9483,5.9608,5.9608,5.9508,5.9734,5.9709,5.9533,6.0066,6.0242,6.0191,6.0788,6.111,6.1311,6.227,6.34,6.4551,6.5103,6.5634,6.6137,0.0,0.0,0.0,0.0,0.0,0.0,0.0,0.0,0.0,0.0,0.0,0.0,0.0,0.0,0.0,0.0,0.0,3.2125,0.0,3.1813,3.1949,3.2236,3.2261,3.1974,3.1421,3.1135,3.0733,3.0206,0.0,0.0,0.0,0.0,0.0,0.0,0.0,0.0,0.0,0.0,3.356,3.6722,4.0916,0.0,4.8234,5.0695,5.2678,5.411,5.3833,5.426,5.4167,4.9172,4.7908,0.0,0.0,4.0688,4.0526,0.0,3.7637,3.6947,0.0,0.0,0.0,3.7124,0.0,0.0,0.0,3.9496,4.1408,4.7467,4.6726,0.0,0.0,0.0,0.0,0.0,0.0,0.0,0.0,0.0,0.0,0.0,0.0,0.0,0.0,5.9709,5.9533,5.9533,5.9533,5.9408,5.9131,5.9659,5.9809,5.9508,5.9759,5.9784,5.9483,5.9483,5.9483,5.9483,5.9483,5.9483,5.9508,5.9784,5.991,5.9935,6.0512,6.0738,6.0788,6.1366,6.1592,6.1667,6.2476,6.35,6.4551,6.5103,6.5634,6.609,0.0,0.0,0.0,0.0,0.0,0.0,0.0,0.0,0.0,3.6154,0.0,0.0,0.0,0.0,0.0,0.0,0.0,0.0,0.0,0.0,0.0,3.1396,3.1497,3.1421,3.1095,3.0783,3.0487,3.0262,2.9955,0.0,0.0,0.0,0.0,0.0,0.0,0.0,0.0,0.0,0.0,3.9371,0.0,4.7069,4.8878,5.2477,5.4587,5.5573,5.5666,5.5993,5.5523,5.006,0.0,5.0519,4.4364,4.3259,0.0,0.0,0.0,0.0,0.0,0.0,0.0,0.0,0.0,3.9659,0.0,0.0,0.0,4.482,0.0,0.0,0.0,0.0,0.0,0.0,0.0,0.0,0.0,0.0,0.0,0.0,0.0,0.0,0.0,5.7732,5.7499,5.7725,5.7549,5.77,5.8334,5.8485,5.8736,5.9182,5.9182,5.9232,5.9357,5.9351,5.9402,5.9483,5.9483,5.9483,5.9508,6.006,6.0292,6.0342,6.104,6.1361,6.1411,6.1943,6.2149,6.2199,6.2752,6.3525,6.44,6.4953,6.5484,6.5961,2.998,3.0331,0.0,0.0,0.0,0.0,0.0,0.0,3.579,3.9054,4.0039,0.0,0.0,0.0,0.0,0.0,0.0,0.0,3.6344,0.0,0.0,3.1396,3.1863,3.1426,3.0015,3.0397,3.0111,2.9098,2.9569,2.9493,0.0,0.0,0.0,0.0,2.8138,0.0,0.0,0.0,3.6607,0.0,4.6808,4.7958,0.0,5.267,5.3984,5.359,5.5974,5.686,5.6433,0.0,5.2443,5.1967,0.0,4.6261,0.0,0.0,0.0,0.0,0.0,0.0,0.0,0.0,4.2509,0.0,0.0,0.0,4.1462,4.0132,0.0,0.0,0.0,0.0,0.0,0.0,0.0,0.0,0.0,0.0,0.0,0.0,0.0,0.0,0.0,0.0,5.6068,5.7029,5.6219,5.6118,5.7136,5.7681,5.8027,5.8077,5.8077,5.8303,5.8786,5.8799,5.9025,5.9483,5.9483,5.9483,5.9508,6.006,6.0292,6.0367,6.1441,6.1918,6.1943,6.2476,6.2727,6.2777,6.3375,6.3676,6.3873,6.44,6.4927,6.5383,0.0,0.0,0.0,0.0,3.1647,0.0,0.0,0.0,3.8903,4.1423,0.0,0.0,0.0,0.0,0.0,0.0,0.0,0.0,0.0,0.0,0.0,0.0,0.0,0.0,0.0,3.1286,3.0683,2.9885,3.0146,2.9794,0.0,0.0,0.0,0.0,3.002,0.0,3.38,0.0,0.0,0.0,0.0,0.0,0.0,5.3858,5.6219,5.6,5.7455,5.7562,5.6533,0.0,5.2837,0.0,0.0,0.0,0.0,0.0,0.0,0.0,0.0,0.0,0.0,0.0,0.0,0.0,0.0,0.0,4.01,0.0,0.0,0.0,0.0,0.0,0.0,0.0,0.0,0.0,0.0,0.0,0.0,0.0,0.0,0.0,0.0,0.0,0.0,0.0,5.4217,5.4418,5.5541,5.6728,5.7531,5.7901,5.7901,5.8152,5.8685,5.8704,5.8981,5.9483,5.9483,5.9483,5.9508,5.9734,6.001,6.0317,6.0794,6.1391,6.1994,6.1918,6.2049,6.235,6.2621,6.3124,6.3726,6.3948,6.4576,6.5283,0.0,0.0,0.0,0.0,0.0,0.0,3.397,3.7381,0.0,0.0,0.0,0.0,4.9131,4.6316,0.0,0.0,0.0,3.9823,0.0,0.0,3.5319,0.0,0.0,0.0,0.0,0.0,3.1371,3.0372,3.0522,3.0111,2.9157,0.0,0.0,0.0,0.0,3.4226,3.6685,0.0,0.0,4.4644,4.7691,4.9072,4.9907,5.5056,5.7549,5.8378,5.861,5.8183,5.7035,5.4167,5.3758,0.0,5.1783,0.0,0.0,0.0,0.0,0.0,4.4694,0.0,0.0,0.0,0.0,0.0,0.0,0.0,0.0,0.0,0.0,0.0,0.0,0.0,0.0,0.0,0.0,0.0,0.0,0.0,0.0,0.0,0.0,0.0,0.0,0.0,0.0,5.1883,5.1431,5.1983,5.4027,5.5247,5.6351,5.7399,5.7424,5.77,5.8234,5.8234,5.8585,5.9282,5.9282,5.9357,5.9508,5.9659,5.9935,6.0317,6.0468,6.1014,6.1743,6.1361,6.1416,6.1793,6.1943,6.2496,6.3249,6.34,6.4128,6.5078,0.0,3.1738,0.0,0.0,0.0,0.0,0.0,0.0,0.0,0.0,0.0,0.0,0.0,0.0,0.0,0.0,0.0,4.4629,4.516,0.0,3.7474,0.0,0.0,0.0,0.0,0.0,0.0,2.9839,3.0347,3.0322,2.9789,0.0,0.0,0.0,0.0,3.7037,4.1163,4.2384,4.726,5.412,5.3675,5.5717,5.873,0.0,5.6689,5.9382,5.8886,0.0,0.0,5.6652,5.6075,0.0,0.0,0.0,0.0,0.0,0.0,0.0,0.0,0.0,0.0,0.0,0.0,0.0,0.0,0.0,4.2423,0.0,0.0,0.0,0.0,0.0,0.0,0.0,0.0,0.0,0.0,0.0,0.0,0.0,0.0,0.0,0.0,0.0,0.0,4.954,4.7732,4.8394,5.2737,5.2995,5.4017,5.6194,5.6251,5.6502,5.7035,5.7035,5.7612,5.8736,5.8736,5.9006,5.9508,6.006,6.0292,6.0342,6.0914,6.1185,6.1235,6.121,6.121,6.1285,6.1793,6.2019,6.2119,6.2626,6.355,6.4547,0.0,0.0,0.0,0.0,0.0,0.0,0.0,3.87,0.0,0.0,0.0,0.0,0.0,0.0,5.471,0.0,0.0,4.9791,4.7798,4.4893,0.0,0.0,0.0,3.8091,0.0,0.0,0.0,0.0,0.0,0.0,3.1376,3.1577,0.0,0.0,0.0,3.932,0.0,0.0,0.0,0.0,0.0,5.5347,5.7857,0.0,0.0,5.9483,5.9307,5.878,0.0,5.7524,5.6595,5.5591,5.5196,5.4192,5.3013,5.2251,5.1691,0.0,0.0,0.0,5.2796,5.0033,0.0,0.0,0.0,0.0,0.0,0.0,0.0,0.0,0.0,0.0,0.0,0.0,0.0,0.0,0.0,0.0,0.0,0.0,0.0,0.0,0.0,0.0,0.0,4.5598,4.4407,4.5336,0.0,5.1356,5.3038,5.4511,5.5623,5.6451,5.6985,5.6985,5.7405,5.8177,5.8535,5.8786,5.8987,5.9533,5.9784,5.9784,5.9985,6.0286,6.0588,6.0211,6.0286,6.0638,6.0794,6.1115,6.1567,6.2476,6.3299,6.4073,3.2587,0.0,0.0,0.0,0.0,0.0,0.0,0.0,0.0,0.0,5.2454,0.0,6.0341,0.0,5.8696,0.0,5.6878,5.4456,5.0713,4.9822,0.0,4.731,4.5487,0.0,0.0,0.0,0.0,0.0,0.0,3.3273,3.3072,3.2717,3.3119,0.0,0.0,0.0,4.3578,0.0,5.067,0.0,0.0,5.6417,0.0,0.0,5.9421,5.9257,0.0,5.9056,5.8403,5.8027,5.7173,5.6294,5.6426,5.5523,5.4393,5.4544,5.4135,5.3733,5.4185,5.4838,0.0,0.0,5.159,0.0,0.0,0.0,0.0,0.0,0.0,0.0,0.0,0.0,0.0,0.0,0.0,0.0,0.0,0.0,0.0,0.0,0.0,0.0,0.0,0.0,3.9697,4.1329,4.0803,4.2171,0.0,0.0,5.1356,5.3632,5.5139,5.6175,5.6728,5.6728,5.7004,5.76,5.8133,5.851,5.871,5.9257,5.9483,5.9483,5.9483,5.9709,6.001,5.9633,5.9709,6.006,6.0462,6.0738,6.1014,6.2099,6.3149,6.4124,0.0,0.0,0.0,0.0,3.4696,0.0,0.0,0.0,4.8294,0.0,5.6429,5.8971,6.3835,6.2923,6.1632,6.0737,6.0717,0.0,5.4475,5.5899,0.0,0.0,5.2737,5.1588,4.7149,0.0,0.0,0.0,0.0,0.0,3.4828,3.3707,3.3746,0.0,3.8216,0.0,4.4141,4.9179,5.3532,5.7104,5.7819,5.9145,6.0617,6.0153,0.0,5.8996,5.9405,5.9504,5.9257,5.8252,5.7901,5.7801,5.723,5.7035,5.6935,5.6426,5.7072,5.76,5.5993,5.5566,5.5458,5.4898,0.0,0.0,0.0,0.0,5.1088,0.0,0.0,0.0,0.0,0.0,0.0,0.0,0.0,0.0,0.0,0.0,0.0,0.0,0.0,0.0,0.0,3.7197,3.6468,3.7022,3.7022,3.8931,0.0,0.0,4.9022,5.3331,5.4712,5.5641,5.6175,5.62,5.6451,5.696,5.76,5.8177,5.8685,5.9257,5.9483,5.9483,5.9483,5.9483,5.9483,5.9483,5.9483,5.9608,6.0708,6.0788,6.0468,6.1622,6.3073,6.4576,3.3075,3.4743,3.609,0.0,3.571,3.6697,0.0,0.0,0.0,0.0,6.1321,6.4427,6.7737,6.7627,6.6901,6.5886,6.6494,0.0,0.0,0.0,0.0,6.1228,5.9611,5.7512,5.495,4.9967,0.0,4.3305,0.0,0.0,3.7099,3.5191,3.4653,3.5419,0.0,0.0,4.4141,4.9179,5.3758,5.7882,6.0289,6.124,0.0,0.0,6.3124,6.2041,6.0776,5.9448,5.8278,5.8001,5.7901,5.7876,5.7725,5.7675,5.765,5.7499,5.7951,5.8384,5.7957,5.8152,5.8202,5.7292,5.5684,5.3934,0.0,0.0,0.0,0.0,0.0,0.0,0.0,0.0,0.0,0.0,0.0,0.0,0.0,0.0,0.0,0.0,0.0,0.0,0.0,3.4661,3.4335,3.5266,3.4611,0.0,0.0,0.0,0.0,4.9983,5.3524,5.5641,5.6175,5.62,5.6276,5.6426,5.7424,5.7976,5.8152,5.9081,5.9483,5.9483,5.9483,5.9483,5.9483,5.9483,5.9483,5.9533,5.9809,6.0362,6.109,6.2174,6.34,6.4576,3.3823,0.0,0.0,3.9538,0.0,0.0,4.5022,0.0,0.0,5.9041,6.3094,0.0,6.8875,7.0799,7.148,7.0374,7.054,0.0,0.0,0.0,0.0,6.7543,6.6244,6.3801,6.0094,5.4976,0.0,4.5963,0.0,0.0,3.8316,3.5629,3.4753,3.5608,0.0,4.0601,0.0,5.0451,5.5254,5.8241,6.1281,0.0,0.0,6.4736,6.5017,6.4544,6.3463,6.1514,5.9278,5.8233,5.8052,5.8234,5.8234,5.8234,5.8303,5.8529,5.8805,5.9056,5.9056,5.9282,5.9357,5.8755,5.7876,5.6821,5.5397,5.5121,5.4795,0.0,0.0,0.0,0.0,0.0,0.0,0.0,0.0,0.0,0.0,0.0,0.0,0.0,0.0,0.0,3.4413,3.248,3.1913,3.3498,0.0,0.0,0.0,0.0,0.0,4.835,5.2721,5.5207,5.5509,5.647,5.6677,5.62,5.7349,5.7901,5.7926,5.9006,5.9382,5.9156,5.9408,5.9483,5.9483,5.9483,5.9483,5.9483,5.9483,6.0337,6.1617,6.2245,6.3324,6.4547,0.0,0.0,0.0,0.0,0.0,0.0,0.0,5.1154,0.0,6.0721,0.0,6.7879,6.9793,7.3421,7.5292,0.0,0.0,7.3225,0.0,7.3165,7.321,7.1854,7.2265,6.9918,6.4347,6.0321,0.0,0.0,0.0,0.0,3.8617,3.5454,3.4527,3.5583,0.0,0.0,0.0,5.225,5.7011,0.0,6.176,6.3985,6.5457,6.5837,6.6266,6.6619,6.6492,6.4281,6.1133,5.935,5.8951,5.9243,5.9484,5.9534,5.9636,6.0113,6.024,6.0183,5.9939,5.9888,5.983,5.956,5.9695,5.9533,5.8284,5.7787,5.747,5.7066,5.4745,0.0,0.0,0.0,0.0,0.0,0.0,0.0,0.0,0.0,0.0,0.0,0.0,0.0,0.0,0.0,0.0,0.0,0.0,0.0,0.0,0.0,0.0,4.7305,5.1791,0.0,5.4823,0.0,5.7374,5.6527,5.7474,5.7951,5.8052,5.8981,5.9182,5.8836,5.9307,5.9483,5.9483,5.9483,5.9483,5.9508,5.9583,6.0537,6.1893,6.1969,6.3019,6.44,0.0,0.0,0.0,0.0,0.0,5.364,5.649,6.1889,6.6843,7.0157,7.4295,0.0,7.6884,7.7454,7.7605,7.6967,7.8401,0.0,0.0,0.0,0.0,7.6647,7.6168,7.4445,7.1212,6.5161,5.9041,0.0,0.0,0.0,3.7449,3.5467,3.4892,3.5583,0.0,0.0,4.8219,5.3034,0.0,5.9632,6.3798,6.5666,6.6199,6.8388,6.8919,6.8384,6.7459,6.4701,6.1645,6.2848,6.2603,6.2013,6.3568,6.4047,6.4074,6.4183,6.421,6.3848,6.2312,6.1891,6.1523,5.9882,6.0717,6.1304,5.9085,5.9684,6.0012,5.7513,5.6533,5.5247,5.2268,0.0,0.0,0.0,0.0,0.0,0.0,0.0,0.0,0.0,0.0,0.0,0.0,0.0,0.0,0.0,0.0,0.0,0.0,0.0,0.0,0.0,4.9305,0.0,0.0,0.0,5.7531,5.8259,5.8027,5.8127,5.856,5.8761,5.9012,5.9357,5.9458,5.9483,5.9483,5.9483,5.9483,5.9533,6.001,6.0638,6.1411,6.1843,6.2772,6.3973,0.0,0.0,0.0,0.0,0.0,0.0,0.0,7.0791,0.0,7.1121,7.4029,7.6188,7.5644,7.8631,8.0596,8.0321,8.0928,8.1351,8.1351,8.0375,7.9668,7.9387,7.8053,0.0,7.3016,0.0,6.0333,5.3835,0.0,0.0,0.0,0.0,3.4173,3.4776,0.0,4.219,0.0,0.0,0.0,6.042,6.5179,6.7081,6.7295,6.9269,6.9798,6.9477,6.925,6.7322,6.4868,6.4518,6.3913,6.3488,6.4408,6.4691,6.4691,6.4691,6.4948,6.5018,6.4111,6.3857,6.3383,6.1478,6.2186,6.2765,6.0594,6.0344,6.0153,5.8717,5.7425,5.5598,5.2302,4.8335,0.0,0.0,0.0,0.0,0.0,0.0,0.0,0.0,0.0,0.0,0.0,0.0,0.0,0.0,0.0,0.0,0.0,0.0,0.0,0.0,0.0,0.0,0.0,0.0,0.0,5.7813,5.8158,5.8284,5.8284,5.8861,5.8956,5.8704,5.9257,5.9332,5.9106,5.9106,5.9257,5.9533,5.9784,6.0236,6.0788,6.1366,6.2094,6.2973,0.0,4.8854,0.0,0.0,6.1652,0.0,0.0,7.6817,7.8727,7.2309,7.3856,7.5403,7.4947,7.9653,8.2806,8.2806,8.2327,8.2159,8.2567,8.1093,8.0405,8.0794,7.9148,7.686,7.3863,6.795,6.1468,0.0,0.0,0.0,0.0,0.0,0.0,0.0,0.0,0.0,0.0,0.0,5.8306,6.1839,6.6224,6.8107,6.8331,6.9528,7.0007,7.0067,7.0679,6.9887,6.8224,6.6389,6.5438,6.5091,6.549,6.5612,6.5583,6.5471,6.5815,6.6128,6.5726,6.5621,6.519,6.3411,6.3919,6.4187,6.1794,6.0764,6.0058,5.9143,5.7399,5.529,5.2879,5.0427,0.0,0.0,0.0,0.0,0.0,0.0,0.0,0.0,0.0,0.0,0.0,0.0,0.0,0.0,0.0,0.0,0.0,0.0,0.0,0.0,0.0,5.0519,5.3507,0.0,5.8083,0.0,5.8208,5.8359,5.8102,5.8704,5.8579,5.7951,5.878,5.8961,5.871,5.8811,5.9131,5.9483,5.9483,5.9834,6.0342,6.0839,6.1341,6.1969,0.0,0.0,0.0,0.0,0.0,0.0,0.0,7.7796,8.1418,8.0672,8.1369,8.193,8.187,8.2432,8.2806,8.2806,8.2747,8.2477,8.1919,8.171,8.1362,8.0823,8.0045,7.8609,7.649,7.0764,6.4592,0.0,0.0,0.0,0.0,0.0,0.0,0.0,0.0,0.0,0.0,5.5866,6.0428,6.477,6.7072,6.8361,6.8974,6.9708,7.0007,7.0067,7.0679,7.0433,6.9853,7.0198,6.9165,6.803,6.9742,7.0281,7.0162,6.9597,6.9495,6.9184,6.7403,6.6921,6.6594,6.5288,6.591,6.5754,6.1684,6.1597,6.1209,5.7338,5.5969,5.5064,5.3783,5.2553,5.0703,0.0,0.0,0.0,0.0,0.0,0.0,0.0,0.0,0.0,0.0,0.0,0.0,0.0,0.0,0.0,0.0,0.0,0.0,4.0713,0.0,4.9156,5.2937,5.5756,0.0,5.9257,5.8403,5.8183,5.8585,5.7656,5.7481,5.7901,5.8001,5.8303,5.8736,5.9232,5.9458,5.9483,5.9483,5.9834,6.0317,6.0367,6.0763,6.1361,0.0,0.0,0.0,0.0,0.0,0.0,0.0,8.0586,8.2417,8.2417,8.2627,8.2806,8.2806,8.2806,8.2806,8.2806,8.2806,8.2687,8.2417,8.2009,8.168,8.1411,8.0356,7.904,7.7424,7.2215,6.6643,0.0,0.0,0.0,0.0,0.0,0.0,0.0,0.0,4.8658,5.3456,5.7955,6.1843,6.5174,6.7194,6.8391,6.9064,6.9738,7.0007,7.0067,7.0679,7.0739,7.056,7.0829,6.963,6.8243,6.9395,6.9482,6.9109,6.8886,6.9079,6.922,6.8455,6.8232,6.7926,6.6662,6.6995,6.6694,6.3121,6.2148,6.1203,5.84,5.6807,5.5742,5.5272,5.4034,5.2628,0.0,0.0,0.0,0.0,0.0,0.0,0.0,0.0,0.0,0.0,0.0,0.0,0.0,0.0,0.0,0.0,0.0,0.0,4.1393,0.0,4.7952,5.2845,5.5322,5.7204,5.8529,5.8102,5.8001,5.8183,5.775,5.7656,5.7901,5.7901,5.8183,5.8685,5.8579,5.8905,5.9483,5.9483,5.9633,5.9859,6.0166,6.0442,6.0738,6.4859,0.0,6.8181,0.0,7.5407,7.6993,8.1411,8.2507,8.2806,8.2806,8.2806,8.2806,8.2806,8.2806,8.2806,8.2806,8.2806,8.2806,8.2806,8.2357,8.2099,8.2099,8.0823,0.0,7.813,7.3205,6.8439,6.3983,5.5467,0.0,0.0,0.0,0.0,0.0,4.9168,5.2926,5.6903,6.044,6.3603,6.6295,6.7493,6.8511,6.9333,6.9828,7.0097,7.0336,7.0739,7.0799,7.0649,7.0829,6.9738,6.8451,6.9303,6.899,6.8271,6.8271,6.8481,6.8704,6.8704,6.8704,6.854,6.7832,6.7447,6.6488,6.3767,6.1932,6.0298,5.8472,5.7086,5.62,5.62,5.5221,5.4235,0.0,0.0,0.0,0.0,0.0,0.0,0.0,0.0,3.7663,3.4901,0.0,0.0,0.0,0.0,0.0,0.0,0.0,0.0,0.0,0.0,0.0,0.0,5.4787,5.6545,5.765,5.765,5.765,5.765,5.765,5.7725,5.7901,5.8077,5.8278,5.8459,5.8403,5.873,5.9282,5.9433,5.9483,5.9533,5.9935,6.0066,6.0161,6.9901,7.2415,7.5228,7.9896,8.1242,8.1949,8.2687,8.2806,8.2806,8.2806,8.2806,8.2806,8.2806,8.2806,8.2806,8.2806,8.2806,8.2806,8.2806,8.2776,8.2776,0.0,0.0,8.0165,7.8819,7.3778,7.0117,6.7942,0.0,0.0,5.2429,0.0,4.8614,5.1611,5.4306,5.7932,6.2077,6.3408,6.5892,6.8884,6.8241,6.8796,6.9977,7.0007,7.0366,7.0889,7.0889,7.05,7.0097,7.0709,7.0051,6.9213,7.047,7.0021,6.9004,6.9004,6.8511,6.8017,6.8017,6.8017,6.8151,6.8838,6.714,6.4843,6.3033,6.0687,5.8419,5.6605,5.6237,5.62,5.62,5.6175,5.5447,5.3246,0.0,0.0,0.0,0.0,0.0,0.0,4.08,3.9383,3.6647,0.0,0.0,0.0,0.0,0.0,0.0,0.0,0.0,4.0437,4.4278,0.0,5.1289,5.4052,5.5968,5.701,5.701,5.701,5.701,5.701,5.733,5.7926,5.8459,5.8384,5.8001,5.9056,5.9182,5.8761,5.9307,5.9483,5.9483,5.9508,5.9508,5.9583,7.3672,7.6258,7.8549,8.0464,8.174,8.2567,8.2776,8.2806,8.2806,8.2806,8.2806,8.2806,8.2806,8.2806,8.2806,0.0,8.2806,8.2806,0.0,8.2806,8.2597,8.2129,8.1272,7.9956,7.816,7.5232,7.251,6.9977,0.0,0.0,0.0,5.5472,5.6474,5.7538,6.064,6.3296,6.5548,6.6849,6.8286,6.9678,6.9439,6.9858,7.062,7.062,7.0739,7.0889,7.0889,7.0769,7.059,7.0366,7.0037,6.9738,7.0157,6.9379,6.8331,6.8331,6.8167,6.7898,6.7433,6.7643,6.8047,6.8271,6.6448,6.4263,6.2905,5.9721,5.6913,5.6303,5.62,5.62,5.62,5.62,5.5598,5.3758,0.0,0.0,0.0,0.0,0.0,0.0,0.0,3.7198,0.0,3.617,0.0,0.0,0.0,0.0,0.0,0.0,0.0,0.0,4.6351,0.0,5.2904,5.4561,5.5942,5.6985,5.6627,5.6451,5.6477,5.7255,5.7481,5.733,5.7882,5.8052,5.7926,5.8278,5.8504,5.8755,5.9282,5.9483,5.9483,5.9483,5.9483,5.9508,7.6185,7.8549,8.0405,8.1063,8.2069,8.2806,8.2806,8.2806,8.2806,8.2806,8.2806,8.2806,8.2806,8.2806,0.0,8.2806,8.2806,8.2806,8.2806,8.2806,8.2507,8.183,8.1153,7.9866,7.7843,0.0,0.0,7.1278,6.6524,6.2645,5.9675,6.1466,6.2584,6.3153,6.5473,6.7119,6.8181,6.8734,6.9243,6.9618,6.9618,6.9842,7.0201,7.047,7.0709,7.0889,7.0889,7.0739,7.05,7.0127,6.9828,6.9618,6.9618,6.887,6.8047,6.8301,6.8002,6.7583,6.7433,6.7493,6.7673,6.7928,6.5619,6.274,6.0671,5.8118,5.62,5.62,5.62,5.62,5.62,5.62,5.5774,5.4536,0.0,5.3155,0.0,0.0,0.0,0.0,0.0,0.0,0.0,3.8417,0.0,0.0,0.0,0.0,0.0,0.0,0.0,4.5156,4.8174,0.0,5.4027,5.4938,5.5842,5.6702,5.6351,5.6401,5.6872,5.7575,5.7782,5.7656,5.8033,5.7976,5.76,5.8008,5.8278,5.8472,5.9207,5.9483,5.9483,5.9483,5.9483,5.9483,7.7622,7.9447,0.0,0.0,8.2357,0.0,8.2806,8.2806,8.2806,8.2806,8.2806,8.2806,8.2806,8.2806,8.2806,8.2806,0.0,0.0,0.0,8.2747,8.2428,8.177,8.1093,7.9806,7.7753,7.6544,7.4599,7.1893,6.8166,6.664,6.7194,6.658,6.6939,6.8167,6.8824,6.9482,7.0007,6.9393,6.9123,6.9123,6.9123,6.9123,6.9213,6.9812,7.041,7.0889,7.0889,7.053,7.0067,7.0007,6.9618,6.9123,6.9093,6.86,6.8197,6.8764,6.8046,6.7194,6.7762,6.7416,6.7024,6.7607,6.4551,6.0521,5.6996,5.62,5.62,5.62,5.62,5.62,5.62,5.62,5.6018,5.5365,5.4336,5.2226,4.8284,0.0,0.0,0.0,0.0,0.0,0.0,4.1694,4.2562,0.0,0.0,0.0,0.0,0.0,4.502,4.6537,4.9807,5.2545,5.4697,5.5207,5.5717,5.6251,5.62,5.6796,5.7851,5.7876,5.8133,5.8585,5.866,5.8083,5.7136,5.8208,5.8334,5.8001,5.9006,5.9408,5.9433,5.9433,5.9458,5.9483,0.0,0.0,8.1003,8.168,8.2357,8.2806,8.2806,8.2806,8.2806,8.2806,8.2806,8.2806,8.2806,8.2806,8.2806,8.2806,8.2806,8.2806,8.2806,8.2309,8.174,8.1063,8.0386,7.91,7.7095,7.6288,7.4599,7.1893,7.044,6.9572,6.9289,6.9139,6.9229,6.9558,7.0171,7.053,7.0679,7.053,7.044,7.044,7.044,7.044,7.047,7.062,7.0769,7.0889,7.0889,7.0799,7.062,7.0157,7.0201,7.038,6.9917,6.9319,6.869,6.8331,6.8002,6.7688,6.7343,6.6485,6.5634,6.5253,6.2325,5.8938,5.6714,5.62,5.62,5.62,5.62,5.62,5.62,5.62,5.5723,5.4336,5.3181,5.0971,4.6677,4.4869,0.0,0.0,4.1167,4.1808,4.2347,4.3388,4.4077,0.0,0.0,0.0,0.0,4.7973,4.949,4.9423,5.2294,5.4454,5.5817,5.5942,5.6276,5.6809,5.6401,5.6552,5.723,5.77,5.7706,5.7437,5.8334,5.8309,5.7725,5.7976,5.8001,5.7926,5.8177,5.8529,5.8886,5.8886,5.9156,5.9483,7.9327,8.0315,8.1093,8.2069,8.2567,8.2806,8.2806,8.2806,8.2806,8.2806,8.2806,8.2806,8.2806,8.2806,8.2806,8.2806,8.2806,8.2687,8.2357,8.2009,8.1381,8.0405,7.9997,7.886,7.6838,7.6467,7.5168,7.2804,7.2146,7.1487,7.0875,7.0875,7.0696,7.0426,7.0739,7.0889,7.0889,7.0889,7.0739,7.05,7.0799,7.0739,7.05,7.0799,7.0889,7.0889,7.0889,7.0709,7.044,7.0097,6.9991,6.9961,6.9632,6.9273,6.8854,6.8181,6.7987,6.7928,6.7568,6.7004,6.5972,6.3663,6.1579,5.9444,5.6805,5.62,5.62,5.62,5.62,5.62,5.62,5.6018,5.529,5.359,5.1356,4.8535,4.4884,4.3162,0.0,4.1368,4.2713,4.422,4.5527,4.6401,4.6662,4.616,0.0,0.0,4.7355,5.0318,5.1674,5.0845,5.3733,5.5591,5.6175,5.6451,5.6728,5.6985,5.6979,5.7148,5.743,5.775,5.7556,5.7035,5.7637,5.7631,5.7148,5.738,5.7481,5.7531,5.8058,5.8434,5.8736,5.8961,5.9257,5.9483,8.0285,8.0734,8.1183,8.2428,8.2747,8.2806,8.2806,8.2806,8.2806,8.2806,8.2806,8.2806,8.2806,8.2806,8.2806,8.2806,8.2717,8.2417,8.183,8.162,8.0973,7.9848,7.9698,7.8741,7.6856,7.6617,7.5659,7.3881,7.3223,7.2565,7.1893,7.1803,7.1457,7.0889,7.0889,7.0889,7.0889,7.0889,7.059,7.0157,7.059,7.044,7.0067,7.056,7.0769,7.0769,7.0859,7.056,7.0127,7.0127,6.9708,6.9153,6.9153,6.9093,6.8884,6.8331,6.8227,6.8227,6.7928,6.7651,6.6518,6.257,6.1377,6.0401,5.732,5.6394,5.62,5.62,5.62,5.62,5.62,5.5691,5.4662,5.2837,4.9332,4.5884,4.3025,0.0,4.1229,4.2199,4.4572,4.6919,4.8994,4.9506,4.9464,4.8821,4.9439,4.9916,0.0,5.2034,5.2703,5.1691,5.4612,5.62,5.62,5.6728,5.7035,5.7136,5.7556,5.7851,5.8027,5.7951,5.7556,5.701,5.7186,5.6903,5.6351,5.6809,5.6985,5.7085,5.7983,5.8434,5.8635,5.9081,5.9357,5.9483,7.9668,8.0405,8.1033,8.183,8.2417,8.2806,8.2806,8.2806,8.2806,8.2806,8.2806,8.2806,8.2806,8.2806,8.2806,8.2806,8.2279,8.1919,8.18,8.0734,8.0027,7.9818,7.9267,7.828,7.6838,7.5736,7.4766,7.3881,7.3223,7.2565,7.1893,7.1308,7.1009,7.0889,7.0889,7.0889,7.0889,7.0889,7.0859,7.0709,7.0306,7.0067,7.0007,7.0097,7.0127,7.0217,7.0709,7.0829,7.0769,7.0769,7.035,6.9858,6.9858,6.9468,6.8974,6.8884,6.9259,6.9319,6.7613,6.6051,6.4361,6.2142,6.047,5.9165,5.8613,5.7303,5.62,5.62,5.62,5.62,5.62,5.5408,5.3851,5.1205,4.7958,4.4618,4.1354,0.0,4.2688,4.2864,4.6466,4.948,5.0787,5.0519,5.0996,5.2678,5.1699,5.1423,5.2335,5.3625,5.4027,5.3356,5.5214,5.62,5.62,5.6728,5.7255,5.775,5.7355,5.7637,5.856,5.8102,5.7556,5.7035,5.8033,5.7838,5.6885,5.696,5.6985,5.696,5.6702,5.7198,5.8027,5.8127,5.873,5.9483,7.9548,8.0345,8.1003,8.168,8.2357,8.2806,8.2806,8.2806,8.2806,8.2806,8.2806,8.2657,8.2297,8.2597,8.2507,8.18,8.177,8.165,8.1272,8.0326,7.9638,7.9297,7.8968,7.834,7.7365,7.6096,7.5288,7.4988,7.43,7.3432,7.2445,7.2116,7.1591,7.0889,7.0889,7.0889,7.0889,7.0889,7.0709,7.0426,7.0486,7.0306,7.0037,7.0366,7.047,7.05,7.0799,7.0889,7.0859,7.053,7.0217,6.9947,6.9588,6.9243,6.9004,6.9004,6.9213,6.9243,6.8315,6.7201,6.5765,6.3594,6.1679,6.0109,5.9113,5.7492,5.62,5.62,5.62,5.62,5.62,5.5064,5.3499,5.1607,4.7531,0.0,0.0,4.2699,4.3553,4.5031,4.8611,5.1515,5.2922,5.2528,5.2485,5.3213,5.2561,5.2485,5.3289,5.4127,5.473,5.5039,5.5799,5.62,5.62,5.7054,5.7606,5.7901,5.8183,5.8459,5.8685,5.8133,5.7556,5.701,5.7255,5.7054,5.6577,5.6577,5.6753,5.701,5.7079,5.7606,5.8378,5.8654,5.9081,5.9483,7.9309,8.0087,8.0764,8.1471,8.1979,8.2387,8.2537,8.2567,8.2567,8.2567,8.2567,8.2368,8.186,8.2129,8.1919,8.0883,8.1123,8.1123,8.0614,7.9937,7.9417,7.9058,7.8729,7.825,7.7574,7.6467,7.5826,7.5677,7.5006,7.4138,7.3133,7.2967,7.2249,7.1128,7.1128,7.1038,7.0889,7.0889,7.062,7.0247,7.056,7.041,7.0037,7.05,7.0679,7.0709,7.0859,7.0889,7.0829,7.0366,7.0007,6.9678,6.9153,6.8884,6.8794,6.8944,6.9213,6.9393,6.9093,6.863,6.7765,6.5879,6.3604,6.1478,6.0083,5.7909,5.62,5.62,5.62,5.62,5.62,5.4838,5.3231,5.1774,0.0,0.0,0.0,4.3966,4.492,4.755,5.0578,5.308,5.4647,5.4378,5.3984,5.369,5.3665,5.3841,5.426,5.473,5.5358,5.6175,5.62,5.62,5.62,5.7179,5.77,5.77,5.8679,5.8905,5.8485,5.8102,5.7556,5.6985,5.6577,5.6301,5.62,5.62,5.6527,5.7035,5.7506,5.8083,5.8761,5.9156,5.9382,5.9483,7.8729,7.9417,8.0087,8.0764,8.0913,8.1153,8.177,8.186,8.186,8.186,8.186,8.186,8.18,8.1291,8.0913,8.0823,8.0285,7.9937,7.9878,7.9238,7.9118,7.9698,7.8549,7.7544,7.6886,7.6228,7.5587,7.4976,7.4317,7.3911,7.3821,7.3193,7.2535,7.1833,7.1833,7.1487,7.0889,7.0889,7.0889,7.0799,7.0277,7.0037,7.0007,7.0037,7.0067,7.0127,7.0709,7.0889,7.0889,7.0859,7.0051,6.9064,6.9004,6.8571,6.8181,6.8824,6.9842,7.05,6.9333,6.8974,6.8882,6.8712,6.5557,6.2475,6.2356,5.9157,5.62,5.62,5.62,5.62,5.62,5.4838,5.2829,5.0218,0.0,0.0,4.4704,4.5844,4.7626,4.99,5.2184,5.4034,5.5232,5.5308,5.5465,5.5924,5.5949,5.5974,5.6,5.605,5.61,5.62,5.62,5.62,5.62,5.6778,5.706,5.706,5.7706,5.8001,5.7951,5.7926,5.7556,5.6985,5.696,5.6652,5.62,5.62,5.6527,5.6985,5.7035,5.7757,5.871,5.8736,5.9062,5.9483,7.8579,7.9357,7.9878,8.0147,8.0524,8.0883,8.1123,8.1183,8.1183,8.1183,8.1183,8.1003,8.0614,8.0704,8.0464,7.9627,8.0105,8.0237,7.9818,7.9548,7.9357,7.9178,7.8699,7.831,7.8041,7.7412,7.6736,7.6096,7.5809,7.5061,7.3881,7.4061,7.3359,7.1893,7.1893,7.1534,7.0889,7.0889,7.0679,7.035,7.0516,7.032,7.0037,7.0426,7.056,7.059,7.0829,7.0889,7.0829,7.047,6.9722,6.9004,6.9004,6.8541,6.8227,6.9289,7.0231,7.0799,7.032,6.9602,6.9004,6.9004,6.6627,6.4368,6.4811,6.1821,5.8994,5.8994,5.7761,5.6702,5.6702,5.5365,5.3901,5.2871,0.0,4.8946,4.9197,4.9515,5.0393,5.2226,5.3808,5.5039,5.5817,5.5892,5.5993,5.6175,5.62,5.62,5.62,5.62,5.62,5.62,5.62,5.62,5.62,5.6728,5.6985,5.701,5.7606,5.7901,5.7901,5.7506,5.723,5.6985,5.6652,5.6401,5.62,5.62,5.6728,5.7556,5.7556,5.8227,5.9207,5.9207,5.9332,5.9483,7.8519,7.9178,7.9548,7.9758,8.0016,8.0255,8.0464,8.0494,8.0494,8.0494,8.0494,8.0296,7.9848,8.0016,7.9806,7.8878,7.9627,7.9986,7.9537,7.9489,7.9297,7.8819,7.8807,7.8699,7.8489,7.8041,7.7484,7.6779,7.6779,7.6018,7.454,7.5006,7.4138,7.2206,7.2206,7.1727,7.0889,7.0889,7.0649,7.0336,7.0739,7.0649,7.0336,7.0739,7.0889,7.0889,7.0889,7.0889,7.0829,7.041,6.9692,6.9004,6.9004,6.8675,6.8481,6.9409,7.026,7.0859,7.0679,6.9961,6.9363,6.9542,6.758,6.5787,6.6466,6.3384,6.039,6.0444,5.8598,5.6935,5.6778,5.5717,5.473,5.4396,5.2703,5.1657,5.226,5.2327,5.2821,5.4084,5.5064,5.5792,5.615,5.6714,5.6805,5.6255,5.6732,5.6805,5.6237,5.62,5.62,5.62,5.62,5.62,5.62,5.6577,5.6734,5.6753,5.733,5.7549,5.7349,5.7104,5.691,5.6728,5.6351,5.62,5.62,5.62,5.6753,5.765,5.7826,5.8453,5.9282,5.9433,5.9483,5.9483,7.8519,7.8807,7.8998,7.9668,7.9238,7.9028,7.9698,7.9788,7.9788,7.9788,7.9788,7.9788,7.9788,7.9208,7.8807,7.8807,7.8807,7.8807,7.8807,7.8807,7.8807,7.8807,7.8807,7.8489,7.7813,7.7813,7.7484,7.6808,7.6808,7.6497,7.5916,7.5916,7.4822,7.2907,7.2907,7.2159,7.0889,7.0889,7.0889,7.0889,7.0889,7.0889,7.0889,7.0889,7.0889,7.0889,7.0889,7.0889,7.0889,7.0889,7.0051,6.9004,6.9004,6.9004,6.9004,6.9004,6.9901,7.0769,7.0157,7.0007,7.0157,7.0739,6.8596,6.6483,6.7168,6.3374,5.9756,5.9898,5.8377,5.6835,5.6301,5.5767,5.5056,5.3909,5.3708,5.3532,5.3013,5.3884,5.4823,5.5358,5.5885,5.6237,5.6237,5.7859,5.8197,5.6376,5.7877,5.8126,5.6303,5.6219,5.62,5.62,5.62,5.62,5.62,5.62,5.62,5.62,5.6753,5.6728,5.62,5.6734,5.6684,5.62,5.62,5.62,5.62,5.62,5.6527,5.706,5.7656,5.8227,5.8761,5.9307,5.9483,5.9483,7.7861,7.81,7.831,7.8968,7.8938,7.8867,7.9058,7.9088,7.9088,7.9088,7.9088,7.9088,7.9088,7.8908,7.8807,7.8807,7.8807,7.8807,7.8807,7.8807,7.8807,7.8807,7.8807,7.8699,7.8489,7.8489,7.816,7.7484,7.7981,7.7412,7.5916,7.6347,7.524,7.2907,7.2907,7.2159,7.0889,7.0889,7.0889,7.0889,7.0889,7.0889,7.0889,7.0889,7.0889,7.0889,7.0889,7.0889,7.0889,7.0889,7.038,6.9708,6.9708,6.9991,7.032,7.032,7.059,7.0859,7.0679,7.062,7.0679,7.0859,6.9889,6.9058,6.968,6.6276,6.3025,6.3061,5.9832,5.6935,5.6784,5.6326,5.5867,5.5516,5.5447,5.5415,5.5247,5.5516,5.5792,5.5942,5.7236,5.8091,5.8091,5.973,6.0562,6.0041,5.9322,5.8666,5.8126,5.6895,5.62,5.62,5.62,5.62,5.62,5.62,5.62,5.62,5.6351,5.6351,5.62,5.6376,5.6351,5.62,5.62,5.62,5.62,5.62,5.6527,5.706,5.7656,5.8227,5.8761,5.9307,5.9483,5.9483,7.7562,7.7574,7.7694,7.8639,7.8579,7.8489,7.8759,7.8807,7.8807,7.8807,7.8807,7.8807,7.8807,7.8807,7.8807,7.8807,7.8807,7.8807,7.8807,7.8807,7.8807,7.8807,7.8807,7.8807,7.8807,7.8807,7.846,7.7801,7.846,7.7801,7.5916,7.6527,7.554,7.3266,7.3027,7.2295,7.1278,7.1009,7.0889,7.0889,7.0889,7.0889,7.0889,7.0889,7.0889,7.0889,7.0889,7.0889,7.0889,7.0889,7.0516,7.0007,7.0007,7.0247,7.05,7.0231,7.05,7.0799,7.029,7.053,7.0889,7.0889,7.044,6.998,6.9828,6.6942,6.4127,6.3402,6.0295,5.7537,5.7085,5.6753,5.6451,5.6226,5.6376,5.6527,5.6527,5.7135,5.7676,5.7936,5.9158,6.0052,6.0346,6.175,6.2661,6.2661,6.0988,5.9661,5.8938,5.7859,5.695,5.6237,5.62,5.62,5.62,5.62,5.62,5.62,5.62,5.62,5.62,5.62,5.62,5.62,5.62,5.62,5.62,5.62,5.6401,5.6753,5.7305,5.7882,5.8434,5.9006,5.9332,5.9483,7.7382,7.7125,7.7125,7.84,7.813,7.7921,7.8519,7.8669,7.8687,7.8627,7.8747,7.8777,7.8717,7.8759,7.8807,7.8807,7.8807,7.8807,7.8807,7.8807,7.8807,7.8807,7.8807,7.8807,7.8807,7.8807,7.8489,7.7891,7.843,7.7771,7.6006,7.6497,7.5689,7.3791,7.3176,7.2505,7.1773,7.1158,7.0889,7.0889,7.0889,7.0889,7.0889,7.0889,7.0889,7.0889,7.0889,7.0889,7.0889,7.0889,7.0516,7.0007,7.0067,7.0067,6.9977,6.9363,6.9991,7.0649,6.9482,7.0021,7.0889,7.0889,7.0486,6.9719,6.8403,6.6083,6.3703,6.1891,5.9976,5.8309,5.7261,5.7209,5.7162,5.6676,5.7151,5.759,5.759,5.8975,6.019,6.081,6.1441,6.2086,6.2691,6.3834,6.4551,6.4551,6.2722,6.0869,5.9235,5.8815,5.7895,5.6255,5.62,5.62,5.62,5.62,5.62,5.62,5.62,5.62,5.62,5.62,5.62,5.62,5.62,5.62,5.62,5.62,5.62,5.6251,5.6784,5.738,5.7951,5.8485,5.9056,5.9483,7.6155,7.6168,7.6347,7.7095,7.7125,7.7065,7.7215,7.7664,7.7831,7.7305,7.816,7.8579,7.8071,7.8489,7.8807,7.8807,7.8807,7.8807,7.8807,7.8807,7.8807,7.8807,7.8807,7.8807,7.8807,7.8807,7.8747,7.8579,7.819,7.7514,7.6617,7.6258,7.5031,7.3116,7.2967,7.2235,7.1098,7.0949,7.0889,7.0889,7.0889,7.0889,7.0889,7.0889,7.0889,7.0889,7.0889,7.0889,7.0889,7.0889,7.0516,7.0067,7.0576,7.0709,7.0679,7.053,7.0679,7.0829,7.056,7.0679,7.0889,7.0889,7.0799,7.0254,6.8507,6.6152,6.3809,6.1909,5.966,5.8001,5.775,5.8899,5.9874,5.9743,6.1105,6.2174,6.2174,6.2053,6.2048,6.2158,6.3106,6.3761,6.392,6.543,6.6415,6.6415,6.3411,6.1427,6.1039,5.833,5.6605,5.6219,5.62,5.62,5.62,5.62,5.62,5.62,5.62,5.62,5.62,5.62,5.62,5.62,5.62,5.62,5.62,5.62,5.62,5.6251,5.6784,5.738,5.7951,5.8485,5.9056,5.9483,7.5766,7.5647,7.5707,7.6647,7.6557,7.6587,7.7185,7.7305,7.7305,7.7275,7.7604,7.7694,7.7365,7.7921,7.846,7.8759,7.8807,7.8807,7.8807,7.8807,7.8807,7.8807,7.8807,7.8807,7.8807,7.8807,7.8489,7.7861,7.7831,7.6976,7.542,7.5407,7.451,7.2877,7.2565,7.2026,7.1354,7.1038,7.0889,7.0889,7.0889,7.0739,7.05,7.0799,7.0709,7.047,7.047,7.047,7.05,7.0799,7.0679,7.047,7.0799,7.0889,7.0829,7.0576,7.0679,7.0829,7.056,7.047,7.053,7.0829,7.0679,6.9804,6.7284,6.5705,6.3999,6.1122,6.0268,5.9955,5.9672,6.1168,6.238,6.2127,6.3144,6.3872,6.356,6.3946,6.4274,6.4274,6.5035,6.5592,6.5592,6.6446,6.7014,6.7014,6.5247,6.3411,6.1679,5.9799,5.7984,5.6255,5.62,5.62,5.62,5.62,5.62,5.62,5.62,5.62,5.62,5.62,5.62,5.62,5.62,5.62,5.62,5.62,5.62,5.6244,5.6502,5.7129,5.7926,5.8227,5.883,5.9458,7.5587,7.5275,7.5245,7.6288,7.6168,7.6215,7.7173,7.7006,7.6916,7.7263,7.7006,7.6749,7.6676,7.7245,7.7921,7.8579,7.8627,7.8627,7.8627,7.8747,7.8747,7.8639,7.8747,7.8807,7.8807,7.8687,7.81,7.6958,7.7424,7.6485,7.424,7.4587,7.4061,7.2877,7.2206,7.1833,7.1683,7.1128,7.0889,7.0889,7.0799,7.044,7.0037,7.044,7.026,6.9828,6.9828,6.9768,6.9798,7.062,7.0769,7.062,7.0829,7.0889,7.0799,7.0306,7.05,7.0799,7.0306,7.0067,7.0157,7.0739,7.044,6.9227,6.6341,6.571,6.4579,6.0645,6.1367,6.2522,6.191,6.3407,6.4582,6.4255,6.4747,6.5031,6.4604,6.5626,6.6433,6.6433,6.6753,6.7014,6.7014,6.7014,6.7014,6.7014,6.6708,6.5105,6.178,6.1309,5.9609,5.6285,5.62,5.62,5.62,5.62,5.62,5.62,5.62,5.62,5.62,5.62,5.62,5.62,5.62,5.62,5.62,5.62,5.62,5.62,5.62,5.6828,5.775,5.7851,5.8403,5.9031,7.4886,7.4946,7.4946,7.5125,7.5557,7.5766,7.5365,7.6155,7.6437,7.5425,7.6185,7.6617,7.6078,7.6587,7.7215,7.7891,7.7951,7.7951,7.7951,7.846,7.8519,7.7981,7.8489,7.8807,7.8807,7.822,7.7861,7.7664,7.7185,7.6497,7.5617,7.454,7.3642,7.2877,7.2206,7.1593,7.1038,7.0949,7.0889,7.0859,7.0336,7.0067,6.9947,6.9453,6.9213,6.9123,6.9123,6.875,6.8556,7.032,7.0171,6.9453,7.056,7.0889,7.0889,7.0799,7.0829,7.0889,7.0799,7.0396,7.0157,7.0739,7.044,6.9611,6.8069,6.7707,6.6456,6.2038,6.2632,6.3772,6.3162,6.4605,6.6041,6.655,6.7613,6.8557,6.9047,6.832,6.7748,6.7748,6.7294,6.7014,6.7014,6.7014,6.7014,6.7014,6.556,6.3781,6.1713,6.0127,5.8313,5.6273,5.62,5.62,5.62,5.62,5.62,5.62,5.62,5.62,5.62,5.62,5.62,5.62,5.62,5.62,5.62,5.62,5.62,5.62,5.62,5.6577,5.7186,5.7725,5.7656,5.7405,7.4826,7.4886,7.5006,7.5395,7.5395,7.5467,7.5886,7.5826,7.5677,7.5467,7.5617,7.5647,7.5365,7.6198,7.7065,7.7724,7.7801,7.7801,7.7801,7.8071,7.7951,7.7275,7.7873,7.8071,7.7694,7.7394,7.7065,7.6754,7.6437,7.5779,7.4779,7.418,7.3343,7.2325,7.2042,7.1534,7.0889,7.0889,7.0889,7.0859,7.0247,7.0007,6.9917,6.9243,6.9004,6.9004,6.9004,6.8794,6.875,6.9977,7.026,7.0171,7.0709,7.0889,7.0889,7.0889,7.0889,7.0889,7.0889,7.044,7.0157,7.0739,7.044,6.9676,6.8391,6.8918,6.8499,6.4367,6.5039,6.629,6.6036,6.7239,6.8488,6.9122,6.9403,6.9528,6.9453,6.893,6.8271,6.7523,6.7194,6.7014,6.7014,6.7014,6.7014,6.7014,6.6276,6.5026,6.3199,6.1377,5.9574,5.7752,5.6732,5.62,5.62,5.62,5.62,5.62,5.62,5.62,5.62,5.62,5.62,5.62,5.62,5.62,5.62,5.62,5.62,5.62,5.62,5.6527,5.7035,5.7305,5.743,5.7481]}]]